     2.11           OBSERVATION DATA    G (GPS)             RINEX VERSION / TYPE
teqc 2010Oct21 OPUS Account 20111026 16:15:54UTC            PGM / RUN BY / DATE
C 1523                                                      MARKER NAME
1184                                                        MARKER NUMBER
CSMIDDLETON NGS                                             OBSERVER / AGENCY
0220269730 TRIMBLE 5700 NP 1.22 / SP 1.22                   REC # / TYPE / VERS
60041226 TRM41249.00 NONE                                   ANT # / TYPE
  -746865.6052 -5507009.8817  3119539.6035                  APPROX POSITION XYZ
        2.0010        0.0000        0.0000                  ANTENNA: DELTA H/E/N
     1     1                                                WAVELENGTH FACT L1/2
     5    L1    L2    C1    P1    P2                        # / TYPES OF OBSERV
  2011     8     1    15    48   30.0000000     GPS         TIME OF FIRST OBS
                                                            END OF HEADER
 11  8  1 15 48 30.0000000  0  1G23
    -76479.31658    -50852.77156  20370835.0704                   20370831.0084
 11  8  1 15 49  0.0000000  0  8G03G06G13G16G19G20G23G32
   -213021.85257   -153436.76355  21713693.7664                   21713693.1094
   -148707.32057    -98858.59055  22250718.1174                   22250717.5204
   -229659.06257   -166733.34155  21863662.5314                   21863660.6214
      -476.45758     -4751.05556  20490423.1564                   20490420.1764
   -219241.01656   -166745.36554  23824217.1414                   23824216.3954
     47661.07057     28865.82155  21891473.2194                   21891471.3524
   -164602.11748   -119519.90046  20354065.7504                   20354061.5234
     80967.11357     52557.92354  22648101.3594                   22648101.8054
 11  8  1 15 49 30.0000000  0  9G03G06G13G16G19G20G23G32G07
   -327089.62947   -242320.72345  21691986.8284                   21691986.5744
   -231138.23847   -163090.45445  22235032.3914                   22235031.4694
   -354571.65647   -264067.82245  21839892.2194                   21839890.1954
     -1716.93448     -5717.67746  20490187.6334                   20490184.6914
   -356607.35946   -273783.94544  23798076.8134                   23798076.9144
     71824.70747     47694.57145  21896071.2584                   21896069.8284
   -253311.79748   -188644.33446  20337185.2814                   20337180.5434
    122965.07447     85283.51745  22656093.3754                   22656093.6454
   -171176.88756   -131125.91354  24244826.1804                   24244826.8364
 11  8  1 15 50  0.0000000  0  9G03G06G13G16G19G20G23G32G07
   -441527.41847   -331493.02545  21670210.6884                   21670209.7234
   -313871.61747   -227558.02345  22219288.3364                   22219287.5704
   -480071.25047   -361859.70045  21816010.5084                   21816008.5474
     -3211.56648     -6882.34846  20489902.9534                   20489899.9144
   -494720.24246   -381404.25344  23771795.0784                   23771794.5904
     95589.76647     66212.72545  21900593.3524                   21900592.1214
   -342395.20748   -258059.99746  20320233.1024                   20320228.9734
    164424.76647    117589.64344  22663983.4304                   22663983.2384
   -277795.36746   -214205.15943  24224537.8284                   24224537.6524
 11  8  1 15 50 30.0000000  0  9G03G06G13G16G19G20G23G32G07
   -556270.37147   -420903.10745  21648375.4304                   21648375.0164
   -396843.14547   -292211.12245  22203498.8754                   22203499.1414
   -606092.69947   -460058.22145  21792029.7584                   21792027.4304
     -4900.18448     -8198.16146  20489581.8914                   20489579.0044
   -633514.13346   -489555.21344  23745383.1484                   23745382.9064
    119016.00047     84466.84345  21905051.0634                   21905050.2304
   -431787.76248   -327716.53946  20303221.9924                   20303218.0004
    205405.90247    149522.95244  22671781.9304                   22671781.8404
   -385044.85946   -297776.14144  24204128.7734                   24204128.2934
 11  8  1 15 51  0.0000000  0  9G03G06G13G16G19G20G23G32G07
   -671279.85947   -510520.86445  21626489.9774                   21626489.4614
   -480015.41847   -357020.67745  22187672.5944                   22187671.3244
   -732599.15647   -558634.66245  21767956.1174                   21767954.3204
     -6750.86748     -9640.27946  20489229.4774                   20489226.8714
   -772951.04746   -598207.29544  23718849.3444                   23718848.8524
    142135.68047    102482.12845  21909450.9304                   21909449.6174
   -521451.57848   -397584.46646  20286160.0474                   20286155.4574
    245941.03547    181108.68744  22679495.6724                   22679495.5904
   -492890.83646   -381811.89544  24183605.9614                   24183607.0474
 11  8  1 15 51 30.0000000  0  9G03G06G13G16G19G20G23G32G07
   -786526.84847   -600323.68945  21604559.0704                   21604558.4534
   -563360.31247   -421964.74445  22171811.9224                   22171811.3954
   -859561.93447   -657566.69045  21743796.3134                   21743794.1684
     -8739.58248    -11189.95046  20488850.6644                   20488848.1134
   -913001.78146   -707337.62443  23692197.9774                   23692198.0354
    164971.70747    120276.35145  21913796.7734                   21913795.3874
   -611358.93448   -467642.14746  20269050.9064                   20269046.6454
    286053.25447    212364.87544  22687128.7114                   22687128.3404
   -601307.75446   -466292.54243  24162974.6724                   24162975.6954
 11  8  1 15 52  0.0000000  0  9G03G06G13G16G19G20G23G32G07
   -901982.18447   -690288.86045  21582589.2584                   21582588.0084
   -646849.59847   -487021.32045  22155924.7424                   22155923.9144
   -986952.96547   -756832.39945  21719554.1254                   21719552.0744
    -10842.33248    -12828.46946  20488451.2194                   20488447.7894
  -1053637.02046   -816923.38044  23665435.9144                   23665435.6884
    187547.55547    137867.86045  21918092.5634                   21918091.3834
   -701481.30148   -537867.37446  20251901.2274                   20251897.0514
    325765.96147    243309.75744  22694685.5084                   22694686.1134
   -710269.93446   -551198.10944  24142240.6884                   24142240.1954
 11  8  1 15 52 30.0000000  0  9G03G06G13G16G19G20G23G32G07
  -1017623.10547   -780398.64745  21560582.8204                   21560582.2464
   -730461.30147   -552173.27345  22140014.2584                   22140013.2074
  -1114749.97347   -856414.48045  21695235.0474                   21695232.9654
    -13041.51647    -14542.14346  20488032.0634                   20488029.5004
  -1194834.20546   -926946.94644  23638567.2734                   23638566.5164
    209880.32447    155269.94545  21922342.4064                   21922341.1564
   -791796.67648   -608243.00346  20234714.4924                   20234710.1724
    365096.51647    273956.83644  22702170.3594                   22702170.4574
   -819757.81246   -636513.27843  24121405.5864                   24121405.3284
 11  8  1 15 53  0.0000000  0  9G03G06G13G16G19G20G23G32G07
  -1133432.25847   -870639.52145  21538545.1954                   21538544.4304
   -814179.33247   -617408.07045  22124082.5394                   22124082.3834
  -1242936.64847   -956300.17345  21670841.7734                   21670840.6254
    -15325.25047    -16321.70246  20487597.9064                   20487595.1484
  -1336576.23046  -1037395.18644  23611594.4774                   23611593.7544
    231980.96947    172491.18045  21926548.1954                   21926546.8874
   -882288.39548   -678756.03746  20217494.9614                   20217490.3754
    404056.14847    304314.89044  22709584.2114                   22709584.5164
   -929758.18446   -722227.79744  24100472.0554                   24100472.4694
 11  8  1 15 53 30.0000000  0  9G03G06G13G16G19G20G23G32G07
  -1249392.72347   -960998.29845  21516478.4694                   21516477.9884
   -897987.63747   -682713.23645  22108133.8444                   22108133.8094
  -1371496.79747  -1056476.88845  21646378.1954                   21646376.4844
    -17682.29747    -18158.37846  20487149.3834                   20487146.4344
  -1478846.06646  -1148254.66544  23584521.3134                   23584520.5864
    253860.89847    189540.41245  21930711.8134                   21930710.4184
   -972940.41848   -749393.98046  20200244.2504                   20200239.8524
    442656.19947    334392.79144  22716929.2814                   22716929.5514
  -1040257.51246   -808331.15044  24079445.3204                   24079445.2464
 11  8  1 15 54  0.0000000  0  9G03G06G13G16G19G20G23G32G07
  -1365485.17247  -1051459.91445  21494386.9844                   21494386.3204
   -981867.92247   -748074.48245  22092172.3834                   22092171.6844
  -1500412.12947  -1156930.37645  21621846.3674                   21621844.6094
    -20098.78947    -20041.38846  20486689.1254                   20486686.6884
  -1621624.30146  -1259510.27044  23557351.2034                   23557350.3554
    275533.23447    206427.88445  21934836.1024                   21934834.1024
  -1063734.56648   -820142.68046  20182966.9304                   20182962.4304
    480910.23447    364201.03044  22724209.0864                   22724209.1884
  -1151239.95746   -894810.93044  24058325.9774                   24058325.8554
 11  8  1 15 54 30.0000000  0  9G03G06G13G16G19G20G23G32G07
  -1481700.38747  -1142017.20445  21472271.8524                   21472270.9844
  -1065812.14147   -813485.52845  22076198.5634                   22076197.6884
  -1629673.75447  -1257653.70145  21597248.1724                   21597246.5984
    -22570.86748    -21967.69646  20486218.6884                   20486216.5594
  -1764902.23846  -1371155.27744  23530086.6804                   23530085.8014
    297001.20747    223156.10845  21938921.1024                   21938919.7704
  -1154662.48048   -890995.60346  20165663.6644                   20165659.2734
    518821.48447    393742.17444  22731423.4534                   22731423.5744
  -1262700.12546   -981662.97943  24037115.9304                   24037116.2704
 11  8  1 15 55  0.0000000  0  9G03G06G13G16G19G20G23G32G07
  -1598024.30547  -1232659.19845  21450136.0864                   21450135.4804
  -1149807.07447   -878936.08745  22060215.4224                   22060214.3834
  -1759268.34847  -1358636.49445  21572587.6254                   21572585.7664
    -25089.48447    -23930.28046  20485740.0634                   20485737.2894
  -1908665.18746  -1483178.17444  23502728.9304                   23502728.4144
    318273.02347    239731.47345  21942969.2894                   21942968.2704
  -1245710.46148   -961942.08246  20148337.9774                   20148333.5984
    556398.43447    423022.79944  22738574.0864                   22738574.3164
  -1374626.80946  -1068878.51543  24015816.7734                   24015817.6414
 11  8  1 15 55 30.0000000  0  9G03G06G13G16G19G20G23G32G07
   -139022.74247    -95774.82545  21727775.1644                   21727774.4224
    341579.23447    283183.10445  22344016.1884                   22344015.6994
   -313761.89547   -232267.80345  21847657.8754                   21847656.3984
   1547770.19147   1201674.64446  20785044.9614                   20785042.2734
   -477477.90246   -367967.11744  23775074.8284                   23775074.1524
   1914772.36347   1483756.87745  22246772.9694                   22246771.6884
    238553.57048    194627.28646  20430783.7114                   20430779.5784
   2169064.21947   1679645.41844  23045454.2274                   23045454.6374
     88410.14545     71150.28643  24294223.7584                   24294223.9304
 11  8  1 15 56  0.0000000  0  9G03G06G13G16G19G20G23G32G07
   -255537.08647   -186565.22045  21705603.1334                   21705602.2074
    257506.59847    217671.96345  22328017.5864                   22328017.1884
   -443997.59447   -333750.16445  21822875.3524                   21822873.4304
   1545168.92647   1199647.66546  20784549.7894                   20784547.1914
   -622183.57846   -480724.59044  23747538.3674                   23747537.1954
   1935661.21547   1500033.83445  22250748.0634                   22250746.7974
    147289.55548    123512.47946  20413417.2274                   20413412.9844
   2205982.25847   1708412.62244  23052479.4924                   23052479.8914
    -24433.62146    -16779.84343  24272749.3524                   24272749.9804
 11  8  1 15 56 30.0000000  0  9G03G06G13G16G19G20G23G32G07
   -372131.92247   -277418.31345  21683415.5634                   21683414.8594
    173408.53147    152141.04545  22312014.3594                   22312013.6134
   -574540.07047   -435471.56645  21798033.7274                   21798031.8094
   1542532.74647   1197593.48046  20784048.2814                   20784045.4454
   -767345.89146   -593837.90944  23719914.7664                   23719913.9494
   1956365.03147   1516166.62145  22254688.0394                   22254686.3714
     55931.21948     52324.14646  20396031.8524                   20396027.6804
   2242577.19547   1736928.05744  23059443.3284                   23059443.8014
   -137725.91846   -105059.57843  24251191.4454                   24251191.3014
 11  8  1 15 57  0.0000000  0  9G03G06G13G16G19G20G23G32G07
   -488795.96147   -368325.33745  21661214.9064                   21661214.6644
     89295.39147     86598.34745  22296007.3594                   22296007.8014
   -705378.35547   -537423.45445  21773136.5004                   21773134.5474
   1539868.05947   1195517.09446  20783541.2424                   20783538.6954
   -912953.24246   -707298.04744  23692206.1334                   23692205.3404
   1976888.66447   1532158.98845  22258593.8594                   22258592.3284
    -35510.69148    -18929.28946  20378631.1724                   20378626.9534
   2278854.77047   1765196.19344  23066346.6644                   23066347.0044
   -251459.00446   -193682.65943  24229549.1334                   24229548.9304
 11  8  1 15 57 30.0000000  0  9G03G06G13G16G19G20G23G32G07
   -605522.82447   -459281.33045  21639002.6484                   21639001.7664
      5172.24647     21047.83645  22280000.0944                   22279999.3524
   -836506.95347   -639601.56445  21748183.0704                   21748181.2074
   1537175.60247   1193419.04846  20783028.6564                   20783026.1294
  -1058999.41846   -821100.09144  23664415.0784                   23664413.1804
   1997232.71147   1548011.44045  22262464.9064                   22262463.7624
   -127030.99247    -90243.80946  20361215.5004                   20361211.4414
   2314815.54747   1793217.49044  23073190.2424                   23073190.1484
   -365630.31246   -282647.31643  24207822.5634                   24207822.4384
 11  8  1 15 58  0.0000000  0  9G03G06G13G16G19G20G23G32G07
   -722306.71547   -550281.72645  21616779.4924                   21616778.2544
    -78956.59447    -44507.05845  22263990.4064                   22263990.2274
   -967920.92647   -742002.06045  21723175.6884                   21723173.9574
   1534455.41047   1191299.40546  20782511.3834                   20782508.8094
  -1205478.39146   -935239.39844  23636540.7504                   23636539.4064
   2017396.70347   1563723.56845  22266301.4304                   22266300.8204
   -218624.96948   -161615.74246  20343785.6954                   20343781.2304
   2350458.87146   1820991.39344  23079972.5634                   23079973.0554
   -480237.65246   -371951.66443  24186013.1484                   24186013.3054
 11  8  1 15 58 30.0000000  0  9G03G06G13G16G19G20G23G32G07
   -839135.80547   -641317.37145  21594548.0394                   21594547.0664
   -163079.78147   -110057.59744  22247982.4694                   22247981.7154
  -1099608.53947   -844615.76345  21698116.0164                   21698114.6134
   1531714.28947   1189163.44246  20781989.7734                   20781986.9774
  -1352378.00446  -1049706.47644  23608585.8284                   23608585.1724
   2037386.84047   1579300.23945  22270105.8914                   22270104.6294
   -310281.03948   -233036.06946  20326343.6564                   20326340.0004
   2385791.87947   1848523.48444  23086696.9534                   23086697.0434
   -595272.22746   -461588.92944  24164123.1954                   24164122.6804
 11  8  1 15 59  0.0000000  0  9G03G06G13G16G19G20G23G32G07
   -956004.62947   -732383.95945  21572308.1254                   21572307.7114
   -247193.12547   -175600.43845  22231976.5474                   22231975.5704
  -1231565.08647   -947439.04845  21673005.9144                   21673004.1994
   1528952.22348   1187011.16746  20781464.3204                   20781461.1914
  -1499692.60946  -1164496.89844  23580553.1024                   23580551.9264
   2057203.13347   1594741.42445  22273877.1334                   22273875.7304
   -401994.73848   -304501.29246  20308891.5314                   20308887.2664
   2420814.07846   1875813.41844  23093360.9064                   23093361.4534
   -710732.00446   -551557.59243  24142151.7114                   24142151.6214
 11  8  1 15 59 30.0000000  0  9G03G06G13G16G19G20G23G32G07
  -1072910.52047   -823479.44645  21550061.7424                   21550061.0984
   -331294.78947   -241134.19945  22215972.5554                   22215971.6524
  -1363788.27047  -1050470.08945  21647844.6884                   21647842.6094
   1526166.53947   1184840.48546  20780933.8674                   20780931.2584
  -1647419.31246  -1279608.46244  23552441.0004                   23552440.6644
   2076842.02747   1610044.40845  22277614.1254                   22277612.8204
   -493763.90248   -376009.73546  20291428.5004                   20291424.2704
   2455522.56346   1902858.88244  23099965.9064                   23099966.0554
   -826617.39545   -641857.77743  24120099.8204                   24120098.1374
 11  8  1 16  0  0.0000000  0  9G03G06G13G16G19G20G23G32G07
  -1189848.58247   -914599.97145  21527809.2664                   21527808.3984
   -415381.14547   -306656.04245  22199971.4614                   22199970.4264
  -1496273.91047  -1153705.62945  21622633.4454                   21622631.4024
   1523357.00447   1182651.21546  20780399.4614                   20780396.9774
  -1795553.06646  -1395037.20144  23524251.1564                   23524250.9344
   2096302.80547   1625208.59045  22281317.4614                   22281316.2464
   -585584.57848   -447558.32446  20273955.7344                   20273951.2894
   2489916.62146   1929659.32444  23106511.1724                   23106511.8014
   -942927.21546   -732488.76643  24097966.1484                   24097965.7894
 11  8  1 16  0 30.0000000  0  9G03G06G13G16G19G20G23G32G07
  -1306810.19547  -1005738.87645  21505551.8444                   21505551.3714
   -499444.54747   -372159.97145  22183974.9694                   22183973.9024
  -1629013.79347  -1257139.29445  21597374.0554                   21597372.1054
   1520526.68447   1180445.75546  20779860.7974                   20779858.3364
  -1944084.66846  -1510775.88744  23495987.2034                   23495986.3834
   2115588.23847   1640236.12345  22284987.5704                   22284986.1174
   -677448.63348   -519140.69646  20256474.2974                   20256470.0824
   2523999.31646   1956217.16244  23112996.9144                   23112997.5664
  -1059655.99246   -823446.25743  24075754.0234                   24075753.6724
 11  8  1 16  1  0.0000000  0  9G03G06G13G16G19G20G23G32G07
  -1423790.10547  -1096892.01545  21483291.3284                   21483290.7344
   -583481.03947   -437642.92245  22167982.9384                   22167982.3014
  -1762003.17647  -1360767.37945  21572066.6334                   21572064.9494
   1517675.20347   1178223.80346  20779317.8594                   20779315.5704
  -2093009.14146  -1626820.78644  23467647.7734                   23467646.9384
   2134697.29747   1655126.20745  22288623.9144                   22288622.5514
   -769351.74648   -590753.52146  20238985.8594                   20238981.6294
   2557769.87147   1982531.78344  23119422.6804                   23119423.6644
  -1176801.82046   -914728.65943  24053461.0634                   24053460.9454
 11  8  1 16  1 30.0000000  0  9G03G06G13G16G19G20G23G32G07
  -1540783.55147  -1188055.71445  21461028.5084                   21461027.6174
   -667486.94547   -503102.06145  22151997.8054                   22151996.6564
  -1895237.75447  -1464586.52045  21546712.9924                   21546711.5274
   1514802.11747   1175985.01646  20778771.3284                   20778768.9844
  -2242321.31246  -1743167.74544  23439234.8054                   23439233.2934
   2153629.17247   1669878.24945  22292226.7504                   22292225.3204
   -861290.00848   -662393.73546  20221490.2194                   20221486.5164
   2591227.86347   2008602.85444  23125790.1174                   23125790.6054
  -1294363.53946  -1006335.16843  24031090.1024                   24031089.3524
 11  8  1 16  2  0.0000000  0  9G03G06G13G16G19G20G23G32G07
  -1657790.40247  -1279229.86445  21438762.5084                   21438761.7974
   -751462.80547   -568537.77845  22136017.2194                   22136016.2734
  -2028717.37948  -1568596.60645  21521312.9774                   21521311.0084
   1511902.46147   1173725.51946  20778219.6334                   20778217.2424
  -2392020.16446  -1859816.05244  23410747.9304                   23410747.0864
   2172378.55947   1684488.09845  22295794.5084                   22295793.2704
   -953263.71148   -734061.57046  20203988.8364                   20203984.2234
   2624367.87146   2034426.10844  23132096.7424                   23132096.7274
  -1412343.53946  -1098267.65043  24008639.1174                   24008638.8244
 11  8  1 16  2 30.0000000  0  9G03G06G13G16G19G20G23G32G07
  -1774804.57847  -1370409.72145  21416495.7194                   21416494.9734
   -835404.03147   -633946.51645  22120043.5704                   22120043.1334
  -2162436.80948  -1672793.56245  21495866.6094                   21495864.7424
   1508976.91847   1171445.85046  20777663.1174                   20777660.4614
  -2542099.28946  -1976760.68944  23382188.5554                   23382187.2344
   2190945.33647   1698955.63445  22299327.9224                   22299326.3594
  -1045267.67248   -805752.97646  20186480.8834                   20186476.4884
   2657190.46146   2060002.01244  23138343.1334                   23138343.2734
  -1530739.56646  -1190524.22543  23986109.2504                   23986108.1024
 11  8  1 16  3  0.0000000  0  9G03G06G13G16G19G20G23G32G07
  -1891822.56647  -1461592.54445  21394227.8524                   21394226.9104
   -919308.10947   -699326.27645  22104077.0004                   22104076.2464
  -2296392.93047  -1777174.93345  21470375.8524                   21470374.1174
   1506023.50447   1169144.47246  20777101.0474                   20777098.6484
  -2692555.53946  -2093999.15944  23353558.3834                   23353556.5864
   2209327.40247   1713279.25745  22302825.9694                   22302824.4144
  -1137299.18748   -877465.85446  20168967.7664                   20168963.7974
   2689693.45747   2085328.90244  23144528.1254                   23144528.3954
  -1649551.21546  -1283104.72443  23963500.0864                   23963499.7774
 11  8  1 16  3 30.0000000  0  9G03G06G13G16G19G20G23G32G07
  -2008840.49247  -1552775.30345  21371960.1804                   21371959.3164
  -1003172.54747   -764675.17945  22088118.6334                   22088117.4654
  -2430582.46147  -1881738.18945  21444840.1954                   21444838.2584
   1503040.73847   1166820.20846  20776533.1884                   20776530.7114
  -2843384.55946  -2211528.12844  23324855.5784                   23324854.4964
   2227522.66447   1727457.31045  22306288.0234                   22306287.1524
  -1229355.16848   -949197.80546  20151450.3984                   20151445.9734
   2721874.96546   2110405.27944  23150652.0474                   23150652.5164
  -1768778.29346  -1376008.93043  23940812.8284                   23940811.2974
 11  8  1 16  4  0.0000000  0  9G03G06G13G16G19G20G23G32G07
  -2125851.90647  -1643953.00545  21349693.4454                   21349692.6994
  -1086991.69947   -829988.77845  22072168.0164                   22072167.4414
  -2564999.03148  -1986478.36245  21419261.5864                   21419259.7344
   1500029.60547   1164473.86746  20775960.4614                   20775957.5824
  -2994579.23846  -2329342.01544  23296083.8204                   23296083.2704
   2245531.80547   1741490.31844  22309715.6484                   22309714.3914
  -1321429.84048  -1020944.29046  20133929.0234                   20133924.6484
   2753736.21146   2135232.10044  23156714.8914                   23156715.2664
  -1888416.70346  -1469233.62443  23918045.2424                   23918044.7234
 11  8  1 16  4 30.0000000  0  9G03G06G13G16G19G20G23G32G07
  -2242853.33247  -1735122.90745  21327429.1174                   21327427.8674
  -1170763.41447   -895265.40245  22056226.8364                   22056226.1094
  -2699639.27747  -2091392.82945  21393640.0864                   21393638.5434
   1496988.37547   1162104.05546  20775381.6334                   20775379.0204
  -3146135.69546  -2447437.78344  23267244.0234                   23267242.6954
   2263352.75447   1755376.69845  22313106.8834                   22313105.4454
  -1413520.12948  -1092702.98446  20116404.7734                   20116400.6604
   2785275.17247   2159807.79344  23162717.0394                   23162717.4694
  -2008466.80546  -1562779.06743  23895200.5474                   23895200.3954
 11  8  1 16  5  0.0000000  0  9G03G06G13G16G19G20G23G32G07
  -2359836.37147  -1826278.49645  21305167.5864                   21305166.7664
  -1254480.60547   -960499.53845  22040295.8204                   22040295.0594
  -2834495.75448  -2196475.77945  21367978.5394                   21367976.0634
   1493919.95747   1159713.05546  20774797.7344                   20774795.1214
  -3298045.29346  -2565808.79344  23238336.5234                   23238334.6024
   2280987.74247   1769118.18445  22316462.4454                   22316461.5354
  -1505618.60548  -1164468.03346  20098878.7114                   20098875.0554
   2816494.54346   2184134.44644  23168657.8834                   23168658.6914
  -2128923.60246  -1656641.50144  23872278.4384                   23872278.4264
 11  8  1 16  5 30.0000000  0  9G03G06G13G16G19G20G23G32G07
  -2476792.23447  -1917412.91545  21282911.8674                   21282911.0744
  -1338135.37547  -1025685.05745  22024376.8054                   22024376.2424
  -2969559.30548  -2301720.11945  21342276.5004                   21342274.6054
   1490828.01247   1157303.71946  20774209.6094                   20774206.9144
  -3450299.05546  -2684448.00344  23209363.2734                   23209362.0004
   2298440.20747   1782717.43044  22319783.3674                   22319782.6484
  -1597717.14847  -1236233.14046  20081353.0004                   20081349.3244
   2847397.86746   2208214.83544  23174538.0164                   23174539.3594
  -2249781.16046  -1750816.15843  23849280.0234                   23849279.7074
 11  8  1 16  6  0.0000000  0  9G03G06G13G16G19G20G23G32G07
  -2593714.80147  -2008521.37845  21260661.6564                   21260661.4064
  -1421722.69147  -1090817.99745  22008471.1804                   22008470.1214
  -3104824.16048  -2407121.29045  21316536.4064                   21316534.6884
   1487713.51647   1154876.81646  20773616.9924                   20773614.2624
  -3602889.78946  -2803349.75044  23180326.9384                   23180324.8324
   2315710.64147   1796174.84745  22323070.3984                   22323068.9574
  -1689810.48447  -1307994.18546  20063828.1954                   20063824.2544
   2877985.77347   2232049.41044  23180359.2424                   23180359.5744
  -2371036.38746  -1845300.66243  23826205.5784                   23826205.5274
 11  8  1 16  6 30.0000000  0 10G03G06G13G16G19G20G23G32G07G10
  -2710598.55547  -2099599.58545  21238419.6724                   21238419.2074
  -1505238.41047  -1155895.14745  21992578.3524                   21992577.2464
  -3240285.50848  -2512675.57445  21290759.2344                   21290756.9924
   1484576.29347   1152432.21246  20773019.6334                   20773017.2464
  -3755811.69946  -2922509.61144  23151226.5084                   23151224.3714
   2332798.56647   1809490.01144  22326322.1094                   22326320.4024
  -1781893.96947  -1379747.56946  20046305.3444                   20046301.5514
   2908258.33247   2255638.29244  23186120.2344                   23186120.5704
  -2492686.88346  -1940093.23344  23803056.3594                   23803056.6844
   1375495.96155   1075221.15853  24490902.5474                   24490901.9614
 11  8  1 16  7  0.0000000  0 10G03G06G13G16G19G20G23G32G07G10
  -2827446.64547  -2190650.03245  21216184.4614                   21216183.4024
  -1588686.85947  -1220919.89145  21976698.4534                   21976697.7624
  -3375946.47348  -2618385.41145  21264943.3444                   21264941.5634
   1481408.13347   1149963.48646  20772416.8594                   20772414.0824
  -3909067.42246  -3041929.56344  23122062.7664                   23122060.6174
   2349695.19147   1822656.13945  22329537.5474                   22329536.3094
  -1873970.85947  -1451495.81746  20028784.1484                   20028779.5234
   2938206.85547   2278974.70444  23191819.3674                   23191819.7704
  -2614739.06246  -2035198.78044  23779831.0234                   23779830.7704
   1252079.68445    979052.64043  24467417.5004                   24467417.3134
 11  8  1 16  7 30.0000000  0 10G03G06G13G16G19G20G23G32G07G10
  -2944250.53547  -2281666.02245  21193956.9924                   21193956.4184
  -1672060.32447  -1285886.19545  21960832.8134                   21960832.2344
  -3511798.68048  -2724244.26445  21239091.8444                   21239089.6684
   1478212.91447   1147473.68346  20771808.6644                   20771806.3404
  -4062647.67646  -3161602.37844  23092837.2734                   23092835.6134
   2366403.59047   1835675.58044  22332717.1334                   22332716.0084
  -1966033.28948  -1523232.77746  20011264.6564                   20011260.6684
   2967834.61746   2302061.12844  23197457.3674                   23197457.8914
  -2737187.36746  -2130612.98544  23756530.3204                   23756530.0594
   1128663.54345    882884.20342  24443930.8284                   24443931.1884
 11  8  1 16  8  0.0000000  0 10G03G06G13G16G19G20G23G32G07G10
  -3060996.48047  -2372636.85945  21171741.2194                   21171740.5594
  -1755346.85247  -1350784.77445  21944983.7814                   21944982.9184
  -3647828.81648  -2830241.75745  21213205.6644                   21213204.0904
   1474997.98447   1144968.54246  20771197.3134                   20771194.4804
  -4216538.69946  -3281517.41844  23063552.5004                   23063550.8954
   2382931.37147   1848554.29644  22335861.8524                   22335861.1134
  -2058068.58647  -1594948.60446  19993751.0554                   19993747.0204
   2997149.93446   2324904.09443  23203036.2114                   23203036.2034
  -2860021.44546  -2226327.74344  23733154.7664                   23733154.7074
   1005259.93446    786725.54243  24420449.0784                   24420448.4734
 11  8  1 16  8 30.0000000  0 10G03G06G13G16G19G20G23G32G07G10
  -3177667.93747  -2463549.67145  21149539.6644                   21149538.4654
  -1838530.75847  -1415603.38745  21929154.7114                   21929153.8674
  -3784020.29748  -2936364.98145  21187289.6254                   21187287.4804
   1471774.91447   1142457.03946  20770584.0944                   20770581.1994
  -4370723.08646  -3401661.02044  23034212.1094                   23034210.6994
   2399289.66047   1861300.92444  22338974.8204                   22338973.7074
  -2150060.97347  -1666630.99846  19976245.4924                   19976241.5514
   3026163.71146   2347512.09543  23208556.2194                   23208557.6564
  -2983227.57446  -2322332.51343  23709709.3754                   23709709.3364
    881884.66045    690588.99143  24396971.4304                   24396970.3054
 11  8  1 16  9  0.0000000  0 10G03G06G13G16G19G20G23G32G07G10
  -1718821.40247  -1326786.11245  21427148.3594                   21427147.7344
   -346171.09047   -252725.70445  22213140.9694                   22213140.6804
  -2344929.57448  -1814995.58345  21461139.4844                   21461137.4804
   3043978.00847   2367550.35146  21069763.9384                   21069761.1524
  -2949755.81246  -2294413.73144  23304613.1804                   23304611.4304
   3990911.56347   3101525.69544  22641850.5944                   22641849.7464
   -666568.38347   -510662.75646  20258544.9534                   20258541.1174
   4630309.45346   3597495.66044  23513815.5314                   23513817.1174
  -1531365.29346  -1191011.20144  23985989.4534                   23985989.1414
   2333979.79345   1822091.65242  24673295.1094                   24673294.5984
 11  8  1 16  9 30.0000000  0 10G03G06G13G16G19G20G23G32G07G10
  -1835288.83647  -1417539.95345  21404985.5474                   21404984.5434
   -429098.38347   -317344.36645  22197360.8134                   22197359.9884
  -2481389.52748  -1921328.00345  21435171.5784                   21435169.6564
   3040778.05547   2365056.87046  21069155.3834                   21069152.7304
  -3104470.26246  -2414970.37644  23275172.1804                   23275170.1334
   4006968.88747   3114037.83644  22644906.2114                   22644905.5784
   -758421.23848   -582236.41346  20241065.9064                   20241062.0044
   4658759.68046   3619664.54044  23519229.8914                   23519230.7814
  -1655269.82046  -1287560.11544  23962411.3674                   23962410.8554
   2210712.95345   1726039.63742  24649838.6414                   24649838.1374
 11  8  1 16 10  0.0000000  0 10G03G06G13G16G19G20G23G32G07G10
  -1951629.49247  -1508194.97545  21382846.5944                   21382845.7774
   -511874.28947   -381845.06645  22181609.2114                   22181608.3324
  -2617958.73448  -2027745.57645  21409183.6414                   21409182.1724
   3037606.98447   2362585.87746  21068551.8054                   21068549.5514
  -3259423.75446  -2535713.29044  23245685.4304                   23245683.7664
   4022892.22347   3126445.54744  22647936.3444                   22647935.3324
   -850180.54348   -653737.16846  20223604.2344                   20223600.3594
   4686944.86346   3641626.85744  23524592.6644                   23524594.2734
  -1779503.19546  -1384365.24743  23938770.3204                   23938770.2974
   2087524.12145   1630048.35242  24626396.6564                   24626395.2074
 11  8  1 16 10 30.0000000  0 10G03G06G13G16G19G20G23G32G07G10
  -2067848.27347  -1598755.04345  21360730.7194                   21360730.0864
   -594504.97747   -446232.61045  22165884.8524                   22165884.1994
  -2754642.46948  -2134252.35545  21383173.7034                   21383171.8554
   3034454.52747   2360129.40546  21067951.8284                   21067948.9414
  -3414620.24647  -2656645.56444  23216151.8834                   23216150.7234
   4038670.93847   3138740.53544  22650939.3204                   22650938.1564
   -941851.97748   -725169.47046  20206159.9694                   20206156.1914
   4714855.02046   3663374.89143  23529904.7894                   23529905.5784
  -1904073.13346  -1481432.72143  23915065.4064                   23915064.9804
   1964407.11745   1534113.01642  24602966.6564                   24602967.8954
 11  8  1 16 11  0.0000000  0 10G03G06G13G16G19G20G23G32G07G10
  -2183945.35948  -1689220.29145  21338638.4224                   21338637.7584
   -676991.61347   -510507.90545  22150188.0704                   22150187.4654
  -2891440.85948  -2240848.51145  21357141.8674                   21357139.8164
   3031315.51647   2357683.39646  21067354.2194                   21067351.5864
  -3570059.74247  -2777767.15744  23186572.6724                   23186571.1094
   4054299.32047   3150918.42144  22653913.7424                   22653912.5204
  -1033436.27048   -796533.86646  20188732.3594                   20188728.1564
   4742484.55146   3684904.21144  23535162.3364                   23535164.1644
  -2028982.91046  -1578764.99044  23891295.8754                   23891295.8444
   1841360.82045   1438232.75143  24579552.9224                   24579552.5354
 11  8  1 16 11 30.0000000  0 10G03G06G13G16G19G20G23G32G07G10
  -2299925.18447  -1779594.14845  21316568.3914                   21316567.1484
   -759340.14847   -574675.59145  22134517.6804                   22134517.0434
  -3028358.39148  -2347537.49945  21331087.0944                   21331085.3364
   3028179.92247   2355240.06546  21066757.7114                   21066755.4104
  -3725745.90247  -2899080.96144  23156947.0784                   23156945.5274
   4069767.43047   3162971.42044  22656856.4844                   22656855.9184
  -1124938.43448   -867834.26546  20171319.8594                   20171315.8014
   4769823.75846   3706207.37144  23540365.5234                   23540365.8014
  -2154239.97746  -1676367.84144  23867460.3834                   23867460.0594
   1718379.80545   1342403.43842  24556150.7344                   24556150.0204
 11  8  1 16 12  0.0000000  0 10G03G06G13G16G19G20G23G32G07G10
  -2415784.32847  -1869873.99845  21294520.8594                   21294519.7814
   -841548.22747   -638733.82445  22118874.3594                   22118873.4924
  -3165391.38348  -2454316.44545  21305010.5944                   21305008.7934
   3025046.27347   2352798.23046  21066161.7504                   21066159.0084
  -3881674.59847  -3020583.78944  23127274.3834                   23127272.8984
   4085073.29347   3174897.96844  22659769.4924                   22659768.5634
  -1216355.71548   -939068.52446  20153924.0394                   20153919.9924
   4796871.00846   3727283.00544  23545512.0864                   23545513.8324
  -2279843.49246  -1774240.69244  23843558.9304                   23843557.9264
   1595467.00845   1246627.25842  24532760.6334                   24532761.4024
 11  8  1 16 12 30.0000000  0 10G03G06G13G16G19G20G23G32G07G10
  -2531519.84047  -1960057.50145  21272497.2814                   21272496.2544
   -923614.20347   -702681.31945  22103257.3984                   22103256.5124
  -3302537.38348  -2561183.46345  21278912.6094                   21278910.7974
   3021912.26647   2350356.13046  21065565.3284                   21065562.6724
  -4037842.44147  -3142272.92844  23097556.6724                   23097555.3874
   4100213.94947   3186695.77644  22662650.3054                   22662649.2934
  -1307686.01648  -1010234.99946  20136544.5634                   20136540.4734
   4823623.71946   3748129.10544  23550603.0394                   23550604.4104
  -2405793.86346  -1872383.81244  23819590.9534                   23819590.5044
   1472623.96155   1150905.41452  24509384.2974                   24509383.9384
 11  8  1 16 13  0.0000000  0 10G03G06G13G16G19G20G23G32G07G10
  -2647124.84047  -2050139.30145  21250497.9774                   21250497.6254
  -1005532.52047   -766513.75545  22087668.6094                   22087668.0084
  -3439789.53548  -2668133.17045  21252794.6884                   21252792.7074
   3018779.41447   2347914.94046  21064969.1954                   21064966.5984
  -4194241.34447  -3264142.13644  23067794.6414                   23067793.8244
   4115190.87947   3198366.03244  22665500.6024                   22665499.9964
  -1398922.97348  -1081328.75546  20119182.5554                   20119178.4844
   4850083.44946   3768746.94044  23555638.0474                   23555639.6804
  -2532087.18446  -1970794.11544  23795558.0084                   23795557.8094
   1349856.50045   1055242.48442  24486022.1804                   24486023.0314
 11  8  1 16 13 30.0000000  0 10G03G06G13G16G19G20G23G32G07G10
  -2762595.43748  -2140116.36545  21228524.7034                   21228524.2584
  -1087300.71547   -830229.21945  22072108.6644                   22072108.3714
  -3577144.01648  -2775162.62245  21226656.7034                   21226654.8014
   3015646.41447   2345473.62746  21064373.3134                   21064370.4304
  -4350866.99247  -3386188.01544  23037989.7664                   23037988.4384
   4130002.29747   3209907.31044  22668319.7114                   22668318.8874
  -1490063.38748  -1152347.26546  20101839.1484                   20101835.1094
   4876248.97746   3789135.50743  23560617.7344                   23560619.2774
  -2658722.23846  -2069470.76444  23771460.3834                   23771460.5744
   1227167.67645    959640.82042  24462675.3134                   24462674.6684
 11  8  1 16 14  0.0000000  0 10G03G06G13G16G19G20G23G32G07G10
  -2877925.48048  -2229983.91745  21206577.8914                   21206577.5744
  -1168913.60947   -893823.67345  22056578.4774                   22056577.6094
  -3714594.59048  -2882266.95245  21200500.7194                   21200499.2034
   3012514.43447   2343033.10746  21063776.9844                   21063774.1454
  -4507712.27347  -3508405.01044  23008143.4224                   23008141.9844
   4144649.04347   3221320.26745  22671106.5234                   22671106.0514
  -1581101.66848  -1223286.19346  20084515.3674                   20084511.1024
   4902121.49646   3809295.73043  23565541.5234                   23565542.3164
  -2785695.47746  -2168410.89644  23747298.2114                   23747298.0434
   1104562.77345    864104.47342  24439344.5864                   24439343.2704
 11  8  1 16 14 30.0000000  0 10G03G06G13G16G19G20G23G32G07G10
  -2993107.15247  -2319735.85545  21184659.4614                   21184659.3284
  -1250364.57447   -957291.94545  22041078.7974                   22041077.6134
  -3852132.78947  -2989439.56645  21174328.2974                   21174326.3054
   3009386.39147   2340595.65646  21063181.7894                   21063179.1524
  -4664768.43446  -3630786.36344  22978256.0784                   22978254.7154
   4159133.49647   3232606.77644  22673863.3054                   22673862.0784
  -1672030.46548  -1294139.81546  20067211.6954                   20067207.6764
   4927703.76246   3829229.78943  23570409.7114                   23570411.0744
  -2913002.18446  -2267610.91944  23723072.7424                   23723072.2584
    982048.74245    768639.01642  24416031.5634                   24416029.6644
 11  8  1 16 15  0.0000000  0 10G03G06G13G16G19G20G23G32G07G10
  -3108134.75448  -2409367.75945  21162770.9614                   21162770.0434
  -1331649.03547  -1020630.49145  22025611.0084                   22025609.7384
  -3989752.80148  -3096675.92945  21148140.3524                   21148137.9844
   3006263.04747   2338161.86046  21062587.7734                   21062584.6954
  -4822028.87947  -3753326.88744  22948330.7584                   22948329.0394
   4173456.28947   3243767.29544  22676588.8134                   22676587.6914
  -1762844.31248  -1364903.86346  20049930.5554                   20049926.3164
   4952996.32446   3848938.13243  23575222.6884                   23575223.7974
  -3040639.01246  -2367068.08544  23698783.9844                   23698783.8014
    859630.20745    673248.00343  24392735.1804                   24392735.3284
 11  8  1 16 15 30.0000000  0 10G03G06G13G16G19G20G23G32G07G10
  -3223009.50848  -2498880.54245  21140910.9614                   21140910.2774
  -1412769.53947  -1083841.24945  22010173.5314                   22010173.1334
  -4127456.11348  -3203977.20145  21121935.7034                   21121933.7544
   3003137.89847   2335726.67946  21061992.5944                   21061990.0554
  -4979493.96147  -3876026.86644  22918365.9224                   22918364.2194
   4187610.32847   3254796.33044  22679282.0234                   22679281.3204
  -1853545.58648  -1435580.18546  20032670.8444                   20032666.5004
   4977992.90646   3868415.79943  23579979.4454                   23579980.6294
  -3168610.06246  -2466785.74144  23674431.8594                   23674431.4694
    737305.02045    577929.71343  24369457.7344                   24369457.6524
 11  8  1 16 16  0.0000000  0 10G03G06G13G16G19G20G23G32G07G10
  -3337726.64847  -2588270.52546  21119080.8594                   21119080.3484
  -1493722.52747  -1146921.49245  21994768.6024                   21994768.3054
  -4265237.83648  -3311339.57445  21095716.4454                   21095714.9574
   3000010.78948   2333289.95446  21061397.3594                   21061395.2584
  -5137158.17247  -3998882.01544  22888363.3674                   22888361.2814
   4201595.10547   3265693.45744  22681943.6024                   22681942.8794
  -1944130.09448  -1506165.52246  20015433.3674                   20015428.8714
   5002693.19146   3887662.62543  23584679.4384                   23584681.3634
  -3296913.45746  -2566762.35144  23650016.2344                   23650015.5944
    615077.20346    482687.23843  24346198.4144                   24346199.0354
 11  8  1 16 16 30.0000000  0 10G03G06G13G16G19G20G23G32G07G10
  -3452277.80948  -2677531.15945  21097282.3594                   21097281.9574
  -1574501.41047  -1209866.06845  21979397.5314                   21979396.5394
  -4403089.56648  -3418756.49445  21069484.5394                   21069482.7624
   2996884.42648   2330853.81346  21060802.8444                   21060800.0824
  -5295012.31246  -4121885.17644  22858324.6884                   22858322.5944
   4215413.29347   3276460.77544  22684572.8674                   22684572.3244
  -2034590.02748  -1576653.79346  19998218.9844                   19998215.1024
   5027100.08646   3906680.82543  23589324.5554                   23589326.0124
  -3425543.83646  -2666993.77444  23625538.9224                   23625538.0274
    492953.75046    387526.10543  24322959.8134                   24322959.6374
 11  8  1 16 17  0.0000000  0 10G03G06G13G16G19G20G23G32G07G10
  -3566659.99648  -2766660.14545  21075516.2734                   21075515.1684
  -1655104.37947  -1272673.56345  21964059.1644                   21964058.2424
  -4541008.20748  -3526225.54645  21043239.1954                   21043237.1994
   2993756.79348   2328416.66546  21060207.5634                   21060204.5704
  -5453052.71547  -4245033.47944  22828250.5864                   22828248.9964
   4229062.28947   3287096.29044  22687169.9534                   22687169.7194
  -2124923.22348  -1647043.30646  19981029.0554                   19981025.0474
   5051211.38746   3925468.67143  23593912.4454                   23593914.2704
  -3554500.96546  -2767479.78444  23600999.1414                   23600998.7854
    370936.53846    292447.78143  24299740.5084                   24299740.4654
 11  8  1 16 17 30.0000000  0 10G03G06G13G16G19G20G23G32G07G10
  -3680863.26648  -2855649.70545  21053784.0474                   21053783.7664
  -1735522.53947  -1335337.06345  21948756.0084                   21948755.3984
  -4678983.43048  -3633738.70845  21016983.7114                   21016981.6374
   2990633.34448   2325982.79145  21059613.3204                   21059610.6524
  -5611268.15247  -4368318.14944  22798143.1334                   22798141.6214
   4242547.01247   3297603.76244  22689736.6724                   22689736.1414
  -2215119.75448  -1717326.32546  19963865.4534                   19963861.6954
   5075032.53546   3944030.41444  23598446.3914                   23598447.5434
  -3683777.42646  -2868214.62044  23576398.8914                   23576397.9924
    249035.01646    197459.63743  24276543.9064                   24276543.1174
 11  8  1 16 18  0.0000000  0 10G03G06G13G16G19G20G23G32G07G10
  -3794877.98848  -2944492.34245  21032087.9844                   21032086.9304
  -1815747.21547  -1397849.80545  21933489.7664                   21933489.2934
  -4817004.76647  -3741287.78745  20990719.2034                   20990717.0354
   2987518.92247   2323555.93846  21059020.6414                   21059018.1254
  -5769647.90647  -4491730.89145  22768004.4844                   22768002.7194
   4255872.32047   3307987.01644  22692272.1564                   22692271.5634
  -2305170.71548  -1787495.90746  19946729.4614                   19946725.5394
   5098568.45747   3962369.92543  23602925.0474                   23602926.2854
  -3813365.74646  -2969192.47444  23551738.4454                   23551738.3984
    127258.19146    102568.62743  24253369.8984                   24253369.7344
 11  8  1 16 18 30.0000000  0 10G03G06G13G16G19G20G23G32G07G10
  -3908702.44548  -3033186.73945  21010427.8054                   21010427.0204
  -1895778.30547  -1460211.70645  21918260.7114                   21918259.3204
  -4955071.30548  -3848872.08445  20964445.9384                   20964443.6914
   2984409.93847   2321133.33545  21058429.0554                   21058426.6054
  -5928189.37147  -4615269.63544  22737835.0704                   22737833.3324
   4269034.07447   3318242.83944  22694777.0634                   22694775.7934
  -2395075.03548  -1857551.22346  19929621.4924                   19929617.2734
   5121815.60946   3980484.43043  23607348.9224                   23607350.1524
  -3943267.07046  -3070414.24544  23527019.2894                   23527019.2274
      5606.30546      7774.90843  24230220.5084                   24230220.6954
 11  8  1 16 19  0.0000000  0 10G03G06G13G16G19G20G23G32G07G10
  -4022330.80548  -3121728.32945  20988804.9924                   20988804.2584
  -1975611.21947  -1522419.16145  21903068.6954                   21903067.5594
  -5093176.16047  -3956486.26045  20938165.2974                   20938163.4024
   2981307.37948   2318715.72246  21057838.1644                   21057835.7464
  -6086886.15647  -4738929.43644  22707635.8914                   22707634.0634
   4282032.98047   3328371.76744  22697250.6724                   22697250.0354
  -2484827.50848  -1927488.22446  19912541.6564                   19912537.3794
   5144774.51646   3998374.31043  23611717.4614                   23611718.8244
  -4073478.19946  -3171877.39344  23502240.5554                   23502240.3364
   -115915.51246    -86917.37043  24207095.7034                   24207095.4804
 11  8  1 16 19 30.0000000  0 10G03G06G13G16G19G20G23G32G07G10
  -4135756.52748  -3210112.01245  20967221.0004                   20967220.0004
  -2055240.69547  -1584468.10445  21887916.2034                   21887914.8754
  -5231312.59047  -4064125.00945  20911878.7814                   20911876.8954
   2978212.53947   2316304.14445  21057249.7664                   21057246.7894
  -6245729.68047  -4862703.53644  22677408.7734                   22677406.9414
   4294870.01247   3338374.57444  22699693.5784                   22699693.0744
  -2574422.08648  -1997302.18546  19895492.3204                   19895488.2504
   5167447.27746   4016041.24243  23616032.2424                   23616033.6764
  -4203995.48046  -3273579.14044  23477404.6644                   23477403.7304
   -237301.65246   -181503.98443  24183996.0234                   24183996.4304
 11  8  1 16 20  0.0000000  0 10G03G06G13G16G19G20G23G32G07G10
  -4248973.97347  -3298333.38845  20945676.4064                   20945675.4264
  -2134662.24247  -1646355.04545  21872802.7424                   21872801.3984
  -5369474.40647  -4171783.56745  20885587.4774                   20885585.5594
   2975126.72347   2313899.57845  21056662.2344                   21056659.8444
  -6404713.88347  -4986587.29644  22647155.4224                   22647153.0354
   4307546.00847   3348251.85544  22702105.9144                   22702105.1914
  -2663853.75448  -2066989.21146  19878474.0164                   19878470.0984
   5189834.68446   4033485.80543  23620293.0394                   23620294.5314
  -4334815.32846  -3375516.61344  23452509.4064                   23452509.5434
   -358547.15246   -275980.95443  24160924.0164                   24160924.5634
 11  8  1 16 20 30.0000000  0 10G03G06G13G16G19G20G23G32G07G10
  -4361980.01247  -3386390.06245  20924172.0234                   20924171.3484
  -2213874.12547  -1708078.57945  21857729.0234                   21857728.0744
  -5507658.63747  -4279459.59046  20859291.9064                   20859290.1644
   2972047.77748   2311500.37745  21056076.4224                   21056073.9654
  -6563834.26647  -5110577.16144  22616875.8054                   22616873.6604
   4320058.64547   3358001.87644  22704487.0234                   22704486.6764
  -2753119.72348  -2136547.11246  19861487.9774                   19861483.4774
   5211934.77046   4050706.42943  23624499.0634                   23624500.4694
  -4465937.47346  -3477689.71244  23427558.3284                   23427557.2114
   -479650.17246   -370346.97843  24137878.6174                   24137879.2304
 11  8  1 16 21  0.0000000  0 10G03G06G13G16G19G20G23G32G07G10
  -2899348.42247  -2246677.14245  21202501.7114                   21202500.9534
   -717452.64147   -542035.84145  22142488.6254                   22142487.7074
  -4070437.77047  -3159547.20146  21132786.1484                   21132784.2734
   4544393.44148   3536704.77745  21355283.8204                   21355281.6764
  -5147662.20747  -4007066.42644  22886364.4144                   22886362.6334
   5907824.71547   4595222.09244  23006628.9304                   23006628.6254
  -1266795.13348   -978372.11946  20144325.6254                   20144321.2934
   6809164.41446   5295300.75443  23928441.6884                   23928443.1524
  -3021937.51646  -2352494.87244  23702342.3914                   23702341.0234
    974815.01246    763002.53843  24414655.3754                   24414655.1884
 11  8  1 16 21 30.0000000  0 10G03G06G13G16G19G20G23G32G07G10
  -3011917.00847  -2334392.92445  21181080.5634                   21181079.5474
   -796234.70747   -603424.48945  22127497.0004                   22127496.0354
  -4208651.03548  -3267245.83645  21106484.5474                   21106483.0274
   4541328.37147   3534316.39545  21354700.9064                   21354697.9064
  -5307037.42647  -4131254.88045  22856036.1414                   22856034.4734
   5920009.48847   4604716.58544  23008947.5634                   23008946.8554
  -1355716.51648  -1047661.51046  20127404.2664                   20127400.6024
   6830690.05546   5312073.80443  23932538.0234                   23932539.1764
  -3153656.85246  -2455133.27844  23677277.0314                   23677275.8914
    854009.05546    668868.00243  24391666.5784                   24391666.0234
 11  8  1 16 22  0.0000000  0 10G03G06G13G16G19G20G23G32G07G10
  -3124264.71148  -2421936.60045  21159701.6334                   21159700.6644
   -874801.36747   -664645.25245  22112546.5784                   22112544.7934
  -4346875.92248  -3374953.54445  21080181.5634                   21080179.6334
   4538265.34047   3531929.59745  21354117.8834                   21354115.0704
  -5466535.89747  -4255539.39045  22825684.5084                   22825682.3914
   5932025.16046   4614079.36044  23011234.2734                   23011233.6644
  -1444464.66448  -1116815.92246  20110516.3754                   20110512.4964
   6851923.64546   5328619.34743  23936578.4144                   23936580.4344
  -3285676.29346  -2558005.50444  23652154.2814                   23652153.8444
    733352.59846    574850.00943  24368706.5634                   24368706.3324
 11  8  1 16 22 30.0000000  0 10G03G06G13G16G19G20G23G32G07G10
  -3236383.06647  -2509301.52846  21138365.8284                   21138365.1804
   -953145.59447   -725692.71345  22097637.2974                   22097636.9414
  -4485103.53148  -3482663.34545  21053877.9534                   21053875.5204
   4535207.85247   3529547.11545  21353535.8204                   21353533.3094
  -5626148.42247  -4379912.68645  22795310.9614                   22795309.4534
   5943874.53147   4623312.54944  23013488.7814                   23013488.5824
  -1533031.49248  -1185829.05046  20093662.5634                   20093658.6174
   6872868.57046   5344939.84743  23940564.1644                   23940566.0084
  -3417989.84846  -2661106.94844  23626975.7114                   23626975.0234
    612852.95346    480954.09043  24345775.4924                   24345775.7974
 11  8  1 16 23  0.0000000  0 10G03G06G13G16G19G20G23G32G07G10
  -3348273.14548  -2596488.59545  21117074.4304                   21117073.1804
  -1031269.46947   -786568.46445  22082771.3444                   22082770.1454
  -4623334.41848  -3590375.71946  21027572.9454                   21027571.3714
   4532150.29748   3527164.57245  21352954.2974                   21352951.7504
  -5785874.26247  -4504374.35945  22764916.3364                   22764914.5904
   5955551.96547   4632411.74144  23015711.0784                   23015710.6914
  -1621418.10548  -1254701.74346  20076843.1094                   20076838.8714
   6893519.52746   5361031.23744  23944494.4844                   23944495.8444
  -3550600.62546  -2764440.00344  23601740.8914                   23601740.2734
    492508.45746    387179.25643  24322875.4384                   24322874.5944
 11  8  1 16 23 30.0000000  0 10G03G06G13G16G19G20G23G32G07G10
  -3459925.89547  -2683490.74645  21095827.0314                   21095826.3834
  -1109165.83247   -847266.90845  22067947.7194                   22067947.2234
  -4761559.34047  -3698083.43546  21001269.9384                   21001268.0314
   4529096.44548   3524784.92645  21352373.1804                   21352370.7154
  -5945703.98847  -4628916.92545  22734501.8054                   22734500.0234
   5967060.80147   4641379.53044  23017901.0394                   23017900.9574
  -1709616.57048  -1323427.82246  20060059.7344                   20060055.5164
   6913880.03546   5376896.45343  23948368.4454                   23948370.2854
  -3683502.60546  -2867999.93844  23576450.3754                   23576450.0944
    372326.87545    293531.33143  24300004.6564                   24300004.4844
 11  8  1 16 24  0.0000000  0 10G03G06G13G16G19G20G23G32G07G10
  -3571342.78947  -2770309.10545  21074625.5164                   21074624.2234
  -1186836.97747   -907789.88545  22053167.1484                   22053166.8754
  -4899778.83247  -3805786.92246  20974967.4924                   20974965.8014
   4526040.76648   3522403.85645  21351791.8134                   21351789.3594
  -6105637.06247  -4753540.05845  22704067.3134                   22704065.4614
   5978395.13346   4650211.35744  23020058.8984                   23020058.6884
  -1797628.21148  -1392008.33346  20043311.5704                   20043307.3674
   6933944.90246   5392531.22543  23952187.4384                   23952188.9694
  -3816699.06246  -2971789.35244  23551103.7034                   23551103.2734
    252306.45346    200008.85542  24277165.3674                   24277165.3524
 11  8  1 16 24 30.0000000  0 10G03G06G13G16G19G20G23G32G07G10
  -3682520.51647  -2856941.08745  21053468.7344                   21053468.0554
  -1264281.36747   -968136.15745  22038430.2274                   22038429.6804
  -5037989.48847  -3913483.53345  20948666.7894                   20948665.1054
   4522981.29348   3520019.82745  21351209.5784                   21351207.2154
  -6265669.44547  -4878240.57045  22673614.0864                   22673612.4414
   5989552.72346   4658905.48744  23022181.6254                   23022181.5594
  -1885450.89548  -1460441.59646  20026599.0784                   20026595.6174
   6953711.93446   5407933.89743  23955949.0474                   23955950.7464
  -3950189.35547  -3075807.72544  23525701.9694                   23525700.8594
    132448.77746    106613.33543  24254358.2114                   24254356.4694
 11  8  1 16 25  0.0000000  0 10G03G06G13G16G19G20G23G32G07G10
  -3793456.66847  -2943384.84045  21032358.2194                   21032357.3634
  -1341497.78547  -1028304.80545  22023737.0004                   22023735.7814
  -5176188.44947  -4021171.03645  20922368.7974                   20922366.4104
   4519915.56648   3517630.91245  21350626.2274                   21350623.9104
  -6425797.37947  -5003015.54045  22643142.5634                   22643140.8284
   6000531.02346   4667459.89244  23024270.9064                   23024270.7424
  -1973082.73048  -1528726.16346  20009923.7974                   20009919.5274
   6973178.98846   5423102.84743  23959653.4774                   23959655.2974
  -4083973.51246  -3180055.10944  23500243.3134                   23500242.5514
     12755.78546     13346.03743  24231579.8834                   24231580.6994
 11  8  1 16 25 30.0000000  0 10G03G06G13G16G19G20G23G32G07G10
  -3904151.67647  -3029640.67745  21011293.7344                   21011292.9104
  -1418487.76247  -1088296.98845  22009085.9844                   22009085.2304
  -5314375.24647  -4128849.04945  20896072.5474                   20896070.4964
   4516838.78948   3515233.39445  21350040.5634                   21350038.4694
  -6586019.66047  -5127864.00345  22612653.5784                   22612651.4184
   6011324.85246   4675870.54944  23026324.9844                   23026324.4064
  -2060524.17648  -1596862.36746  19993284.1954                   19993280.2974
   6992341.37546   5438034.45243  23963299.8594                   23963301.8874
  -4218053.84446  -3284533.21944  23474728.5944                   23474727.7814
   -106773.80546    -79793.89743  24208834.8134                   24208834.7774
 11  8  1 16 26  0.0000000  0 10G03G06G13G16G19G20G23G32G07G10
  -4014599.74247  -3115704.10345  20990276.5314                   20990275.3054
  -1495246.78547  -1148109.23045  21994479.2194                   21994478.0434
  -5452543.44148  -4236512.58746  20869779.9144                   20869777.8554
   4513752.34848   3512828.32845  21349453.4064                   21349450.9344
  -6746329.25847  -5252780.51045  22582147.1174                   22582145.3674
   6021934.76246   4684137.91144  23028343.7504                   23028343.6334
  -2147769.89548  -1664846.06246  19976681.6414                   19976677.6724
   7011200.48046   5452729.66143  23966888.5474                   23966890.4884
  -4352426.60946  -3389239.20244  23449158.3754                   23449158.0554
   -226134.86746   -172802.47342  24186122.2114                   24186120.1054
 11  8  1 16 26 30.0000000  0 10G03G06G13G16G19G20G23G32G07G10
  -4124796.37147  -3201571.57846  20969306.3674                   20969305.8014
  -1571771.99647  -1207739.24345  21979916.7344                   21979915.9304
  -5590688.16047  -4344157.81446  20843491.8364                   20843489.8014
   4510655.70748   3510415.34645  21348864.1254                   21348861.3754
  -6906720.63747  -5377760.76445  22551625.7114                   22551624.0084
   6032360.29746   4692261.59444  23030328.2814                   23030328.1134
  -2234816.35948  -1732674.49446  19960117.2274                   19960113.4734
   7029755.76646   5467188.16443  23970420.1024                   23970422.4024
  -4487089.84446  -3494171.57244  23423533.0634                   23423531.8324
   -345324.55145   -265677.54742  24163439.3914                   24163439.5274
 11  8  1 16 27  0.0000000  0 10G03G06G13G16G19G20G23G32G07G10
  -4234735.39847  -3287238.34845  20948385.5784                   20948384.8014
  -1648058.23047  -1267183.07145  21965400.2114                   21965399.0394
  -5728802.57047  -4451779.42645  20817209.5314                   20817207.2234
   4507550.85548   3507995.95045  21348273.2424                   21348270.9654
  -7067186.07447  -5502798.70645  22521090.1954                   22521088.2544
   6042603.28146   4700242.99944  23032276.6254                   23032276.8524
  -2321657.37948  -1800342.83446  19943592.0474                   19943588.2074
   7048008.88746   5481411.15843  23973893.6334                   23973895.2194
  -4622039.40246  -3599327.02644  23397852.8754                   23397852.0984
   -464336.89546   -358414.43742  24140793.1484                   24140792.7384
 11  8  1 16 27 30.0000000  0 10G03G06G13G16G19G20G23G32G07G10
  -4344417.43047  -3372704.85245  20927514.5004                   20927513.1134
  -1724107.57447  -1326442.28545  21950928.4454                   21950927.6054
  -5866886.54347  -4559377.33646  20790933.3754                   20790931.1334
   4504432.13348   3505565.74345  21347680.1884                   21347676.9414
  -7227724.59047  -5627893.56645  22490540.8674                   22490539.1024
   6052657.51246   4708077.35744  23034190.3674                   23034190.3594
  -2408294.15648  -1867852.02346  19927105.7734                   19927101.6454
   7065955.18846   5495395.09043  23977308.7034                   23977311.3204
  -4757277.94946  -3704707.67844  23372117.6254                   23372116.6684
   -583173.66446   -451014.44142  24118178.7814                   24118178.4344
 11  8  1 16 28  0.0000000  0 10G03G06G13G16G19G20G23G32G07G10
  -4453833.93047  -3457964.44945  20906692.8134                   20906691.6214
  -1799912.68447  -1385511.18845  21936503.2814                   21936502.6684
  -6004930.76247  -4666944.24645  20764663.9454                   20764662.1294
   4501304.02048   3503128.22945  21347084.7504                   21347082.4064
  -7388326.34447  -5753037.73345  22459978.9694                   22459977.2774
   6062527.16047   4715767.88244  23036068.5314                   23036068.5984
  -2494718.69948  -1935195.83546  19910659.7274                   19910655.6764
   7083598.48846   5509142.91943  23980665.7194                   23980668.5554
  -4892799.33646  -3810308.68744  23346328.7344                   23346328.1214
   -701826.75046   -543471.41842  24095599.7814                   24095599.9534
 11  8  1 16 28 30.0000000  0 10G03G06G13G16G19G20G23G32G07G10
  -4562976.83647  -3543010.84245  20885923.2814                   20885922.5634
  -1875466.79747  -1444384.52645  21922125.3134                   21922124.9494
  -6142926.73047  -4774473.56746  20738404.1884                   20738402.2504
   4498169.95347   3500686.05745  21346488.3914                   21346485.5864
  -7548981.81647  -5878223.73045  22429407.4694                   22429405.7974
   6072215.32846   4723316.96444  23037912.4384                   23037911.8634
  -2580923.28548  -2002368.25546  19894255.2274                   19894251.4104
   7100942.51746   5522657.62143  23983966.6414                   23983969.0234
  -5028597.41046  -3916125.33444  23320487.1414                   23320486.5984
   -820289.27045   -635779.92242  24073057.4454                   24073057.1954
 11  8  1 16 29  0.0000000  0 10G03G06G13G16G19G20G23G32G07G10
  -4671837.27047  -3627837.14046  20865208.0554                   20865207.0084
  -1950762.18047  -1503056.25345  21907798.0084                   21907796.5124
  -6280864.53147  -4881957.57346  20712155.9224                   20712153.7274
   4495034.39848   3498242.75045  21345891.3984                   21345889.1414
  -7709680.38747  -6003443.32745  22398827.6174                   22398825.5824
   6081726.31347   4730728.01944  23039722.2734                   23039722.6024
  -2666899.30548  -2069362.56146  19877894.9774                   19877890.8594
   7117991.93846   5535942.67043  23987211.7114                   23987213.4844
  -5164665.11347  -4022152.04944  23294594.1094                   23294593.6764
   -938553.07846   -727933.54342  24050552.3364                   24050551.7974
 11  8  1 16 29 30.0000000  0 10G03G06G13G16G19G20G23G32G07G10
  -4780407.54747  -3712437.32145  20844547.6334                   20844547.0274
  -2025792.95747  -1561521.79045  21893519.7344                   21893518.8364
  -6418735.93447  -4989389.83446  20685919.7034                   20685917.4964
   4491899.99647   3495800.33245  21345294.7504                   21345292.7114
  -7870413.46547  -6128689.83045  22368240.2424                   22368238.9804
   6091062.53547   4738002.89244  23041499.4454                   23041498.8404
  -2752639.78948  -2136173.34646  19861578.8834                   19861575.0354
   7134749.55546   5549000.30743  23990400.1564                   23990402.5084
  -5300997.27346  -4128384.86144  23268651.5004                   23268651.0434
  -1056611.61346   -819927.13742  24028086.8834                   24028085.6724
 11  8  1 16 30  0.0000000  0 10G03G06G13G16G19G20G23G32G07G10
  -4888684.96547  -3796809.32545  20823943.1644                   20823942.2384
  -2100557.40647  -1619779.82745  21879292.3284                   21879291.0704
  -6556537.53548  -5096767.71546  20659696.7584                   20659694.7894
   4488765.55947   3493357.88745  21344698.4064                   21344696.5124
  -8031176.60947  -6253959.72845  22337648.6094                   22337646.9184
   6100222.10547   4745140.08344  23043241.8284                   23043241.9774
  -2838142.34048  -2202798.71646  19845308.3444                   19845304.2774
   7151213.98446   5561829.51143  23993533.5784                   23993536.2194
  -5437592.90646  -4234822.97244  23242657.8054                   23242657.2664
  -1174462.64546   -911759.11342  24005660.6724                   24005659.6254
 11  8  1 16 30 30.0000000  0 10G03G06G13G16G19G20G23G32G07G10
  -4996666.52747  -3880950.77745  20803394.9924                   20803394.2854
  -2175053.76647  -1677828.94545  21865116.2194                   21865115.5474
  -6694265.36348  -5204088.09846  20633487.9614                   20633486.2384
   4485629.68047   3490914.31745  21344101.3674                   21344099.6524
  -8191964.93447  -6379249.24445  22307051.5234                   22307049.6994
   6109203.74646   4752138.67643  23044951.0234                   23044950.8714
  -2923404.30948  -2269236.63846  19829083.6414                   19829079.5594
   7167384.04746   5574429.39243  23996610.7424                   23996613.7854
  -5574450.90646  -4341465.55544  23216614.5234                   23216613.6884
  -1292104.09846  -1003427.78942  23983274.7034                   23983273.5744
 11  8  1 16 31  0.0000000  0 10G03G06G13G16G19G20G23G32G07G10
  -3528920.33247  -2737252.42046  21082697.9384                   21082697.0554
   -673852.80547   -508061.98845  22150785.5784                   22150784.7304
  -5256486.03948  -4083740.55646  20907087.9614                   20907086.4494
   6057916.41447   4716072.78645  21643298.1954                   21643295.8484
  -6777343.48447  -5276946.74545  22576244.8204                   22576242.9534
   7693430.36747   5986600.85744  23346419.9224                   23346419.3754
  -1432995.16048  -1107878.86846  20112698.8204                   20112695.3094
   8758682.96946   6814402.35243  24299424.9224                   24299427.8324
  -4136140.54346  -3220704.17944  23490315.3674                   23490314.9614
    165895.19146    132675.54743  24260722.9144                   24260722.5434
 11  8  1 16 31 30.0000000  0 10G03G06G13G16G19G20G23G32G07G10
  -3636290.28547  -2820917.29345  21062265.9384                   21062265.0084
   -747797.29347   -565681.07845  22136714.5634                   22136713.2854
  -5394044.36748  -4190928.87046  20880912.0784                   20880910.0434
   6054783.86747   4713631.81245  21642701.9844                   21642699.7704
  -6938158.06647  -5402256.74745  22545643.3204                   22545641.1954
   7702061.30147   5993326.11044  23348062.5314                   23348061.9884
  -1517757.52748  -1173927.48446  20096569.0864                   20096565.4224
   8774271.08246   6826548.72843  24302391.5554                   24302394.2114
  -4273509.35246  -3327744.77744  23464175.5864                   23464174.7624
     48690.06646     41346.91943  24238418.5634                   24238418.7424
 11  8  1 16 32  0.0000000  0 10G03G06G13G16G19G20G23G32G07G10
  -3743345.97747  -2904337.29145  21041894.0084                   21041893.1484
   -821459.33247   -623080.07445  22122696.9304                   22122695.8594
  -5531507.88747  -4298043.30246  20854753.3754                   20854751.4844
   6051655.33647   4711193.96645  21642106.7114                   21642104.3874
  -7098974.87947  -5527568.48645  22515040.3204                   22515038.6094
   7710518.36746   5999915.85944  23349671.3674                   23349671.6804
  -1602262.25448  -1239775.34646  20080488.4694                   20080484.4224
   8789570.36346   6838470.07743  24305302.8524                   24305305.3014
  -4411127.89846  -3434979.94844  23437987.3984                   23437986.5984
    -68289.47746    -49805.99243  24216158.4614                   24216157.9104
 11  8  1 16 32 30.0000000  0 10G03G06G13G16G19G20G23G32G07G10
  -3850082.67247  -2987508.71345  21021582.5164                   21021581.7734
   -894835.44147   -680256.28445  22108733.9064                   22108732.9064
  -5668871.06247  -4405079.54846  20828614.3054                   20828611.9534
   6048531.51647   4708759.80645  21641512.0784                   21641510.0044
  -7259787.55147  -5652877.00845  22484438.7344                   22484436.9384
   7718802.00046   6006370.54844  23351248.2424                   23351248.3134
  -1686504.75448  -1305418.85746  20064457.5704                   20064453.9694
   8804581.56346   6850166.89643  24308159.2974                   24308162.8674
  -4548993.17647  -3542407.40044  23411752.5634                   23411751.8594
   -185039.82446   -140780.32443  24193941.6094                   24193941.1644
 11  8  1 16 33  0.0000000  0 10G03G06G13G16G19G20G23G32G07G10
  -3956500.59447  -3070431.75545  21001332.0944                   21001331.1884
   -967927.49647   -737211.15145  22094824.4384                   22094824.2854
  -5806133.68047  -4512037.41946  20802494.0634                   20802491.8524
   6045406.75447   4706324.89545  21640917.4304                   21640915.4774
  -7420595.14547  -5778181.54845  22453838.4384                   22453836.4264
   7726906.85946   6012685.91044  23352790.5314                   23352790.2384
  -1770486.06648  -1370858.85046  20048476.9614                   20048472.8754
   8819299.73446   6861635.42843  24310960.8754                   24310962.6374
  -4687107.71546  -3650029.10044  23385470.5314                   23385469.1914
   -301562.02346   -231576.85743  24171767.6564                   24171768.2544
 11  8  1 16 33 30.0000000  0 10G03G06G13G16G19G20G23G32G07G10
  -4062591.39847  -3153099.89645  20981143.3754                   20981142.5474
  -1040728.03947   -793938.82945  22080971.2344                   22080970.6414
  -5943285.97347  -4618909.34946  20776394.6804                   20776392.7384
   6042285.84047   4703892.97745  21640323.5864                   21640321.3714
  -7581386.81247  -5903473.73645  22423240.4304                   22423238.6564
   7734837.08646   6018865.16643  23354299.3984                   23354299.4844
  -1854198.00048  -1436088.94346  20032546.8444                   20032543.1094
   8833729.43446   6872879.19443  24313706.7034                   24313709.4774
  -4825464.27046  -3757839.36344  23359142.0864                   23359140.8914
   -417848.38746   -322189.52743  24149639.0864                   24149639.0784
 11  8  1 16 34  0.0000000  0 10G03G06G13G16G19G20G23G32G07G10
  -4168351.48047  -3235510.32345  20961018.2734                   20961016.9804
  -1113235.16047   -850437.89545  22067173.4774                   22067173.1334
  -6080323.78947  -4725692.05446  20750317.1484                   20750315.2814
   6039167.91847   4701463.39445  21639730.7274                   21639728.1334
  -7742157.94947  -6028749.88945  22392646.8984                   22392645.0084
   7742591.63746   6024907.51244  23355775.8134                   23355775.6564
  -1937637.43448  -1501106.69346  20016668.8284                   20016664.6724
   8847870.17646   6883897.74743  24316397.7274                   24316400.4924
  -4964061.52046  -3865837.16844  23332767.2114                   23332766.5434
   -533896.59846   -412616.71143  24127556.5474                   24127555.7234
 11  8  1 16 34 30.0000000  0 10G03G06G13G16G19G20G23G32G07G10
  -4273774.11347  -3317657.81945  20940956.8054                   20940955.7424
  -1185443.09047   -906703.81745  22053432.6954                   22053432.0314
  -6217239.00048  -4832379.23446  20724263.1024                   20724261.0704
   6036056.14548   4699038.60845  21639138.5004                   21639136.1844
  -7902899.41847  -6154002.91945  22362058.2274                   22362056.4184
   7750173.06646   6030814.98544  23357217.9144                   23357219.0744
  -2020797.80948  -1565906.99246  20000843.9064                   20000840.1094
   8861724.50446   6894693.10743  24319034.2194                   24319037.3014
  -5102893.98447  -3974018.25944  23306348.6804                   23306347.9844
   -649699.84446   -502853.02743  24105519.8204                   24105520.4224
 11  8  1 16 35  0.0000000  0 10G03G06G13G16G19G20G23G32G07G10
  -4378855.53547  -3399539.43545  20920960.9454                   20920959.1094
  -1257349.63347   -962734.87245  22039749.5164                   22039748.5474
  -6354027.24248  -4938967.46846  20698233.2274                   20698231.4104
   6032949.37547   4696617.73445  21638547.3054                   21638545.0984
  -8063606.25047  -6279228.98545  22331477.3594                   22331474.8954
   7757580.20346   6036586.67844  23358627.8914                   23358628.4804
  -2103676.06248  -1630487.46746  19985072.7114                   19985069.0824
   8875292.22746   6905265.11143  24321615.7894                   24321619.5314
  -5241959.83247  -4082381.25044  23279885.5234                   23279884.1644
   -765255.60546   -592896.44043  24083530.4064                   24083530.5434
 11  8  1 16 35 30.0000000  0 10G03G06G13G16G19G20G23G32G07G10
  -4483592.25447  -3481152.43746  20901029.5234                   20901028.9654
  -1328952.27747  -1018529.13845  22026123.9224                   22026123.1134
  -6490683.70748  -5045453.01946  20672228.3984                   20672226.5434
   6029847.37948   4694200.57145  21637957.0944                   21637954.7194
  -8224273.27047  -6404424.01945  22300903.2734                   22300901.0514
   7764812.34846   6042221.95144  23360003.9454                   23360004.7584
  -2186268.78548  -1694845.44646  19969355.8674                   19969351.7934
   8888573.10246   6915613.62043  24324144.2114                   24324147.2814
  -5381257.32447  -4190924.70144  23253377.5474                   23253376.9804
   -880561.11746   -682744.97243  24061588.4614                   24061588.5044
 11  8  1 16 36  0.0000000  0 10G03G06G13G16G19G20G23G32G07G10
  -4587976.32847  -3562490.66245  20881166.3594                   20881165.3444
  -1400244.64847  -1074081.61845  22012557.2974                   22012556.4304
  -6627199.71548  -5151829.11446  20646250.4774                   20646247.9104
   6026754.25848   4691790.31445  21637368.4144                   21637365.8524
  -8384890.71947  -6529580.43645  22270338.6174                   22270336.6294
   7771873.22746   6047723.78644  23361348.0784                   23361348.3524
  -2268568.47748  -1758975.09146  19953694.7504                   19953690.8094
   8901570.68846   6925741.38143  24326616.6954                   24326620.9534
  -5520779.78147  -4299643.47544  23226827.8914                   23226827.0904
   -995609.26646   -772392.86443  24039694.6644                   24039695.5904
 11  8  1 16 36 30.0000000  0 10G03G06G13G16G19G20G23G32G07G10
  -4692013.64848  -3643558.69945  20861368.2424                   20861367.3324
  -1471234.04347  -1129398.02345  21999048.6484                   21999047.6884
  -6763580.05948  -5258099.51746  20620298.1884                   20620295.8284
   6023659.43047   4689378.72945  21636779.1954                   21636777.2274
  -8545462.51247  -6654701.25945  22239782.6254                   22239780.3794
   7778752.32446   6053083.96144  23362657.1724                   23362657.0514
  -2350581.54348  -1822881.38746  19938088.2344                   19938084.3094
   8914275.26646   6935640.89843  24329034.6484                   24329038.6134
  -5660535.10246  -4408543.66444  23200232.5704                   23200232.0594
  -1110406.95146   -861845.55343  24017850.2034                   24017850.1374
 11  8  1 16 37  0.0000000  0 10G03G06G13G16G19G20G23G32G07G10
  -4795700.64147  -3724353.76145  20841637.3284                   20841636.4774
  -1541917.80947  -1184476.25145  21985598.0004                   21985597.0704
  -6899819.82048  -5364260.35446  20594372.3914                   20594370.1094
   6020562.96547   4686965.87945  21636190.1884                   21636187.8954
  -8705982.62147  -6779781.84445  22209236.5394                   22209234.6054
   7785449.31646   6058302.26244  23363931.3204                   23363932.2504
  -2432303.91448  -1886561.16246  19922536.8284                   19922532.9964
   8926686.60946   6945311.82643  24331396.6174                   24331400.8094
  -5800520.68746  -4517623.29644  23173594.6484                   23173593.1954
  -1224950.78146   -951100.50543  23996052.8914                   23996053.9454
 11  8  1 16 37 30.0000000  0 10G03G06G13G16G19G20G23G32G07G10
  -4899038.47348  -3804876.72645  20821972.7894                   20821971.9344
  -1612298.87947  -1239318.63345  21972204.8834                   21972204.2344
  -7035919.46148  -5470312.01546  20568473.5864                   20568471.5354
   6017459.10548   4684547.25445  21635599.8594                   21635597.1414
  -8866451.20747  -6904822.25945  22178700.5944                   22178698.1644
   7791958.09846   6063373.87043  23365170.3754                   23365170.6334
  -2513738.37948  -1950016.61446  19907040.7734                   19907036.7304
   8938799.42246   6954750.12443  24333702.5474                   24333706.2034
  -5940740.07446  -4626885.10544  23146911.5234                   23146910.4344
  -1339243.38746  -1040159.68243  23974303.6094                   23974303.7464
 11  8  1 16 38  0.0000000  0 10G03G06G13G16G19G20G23G32G07G10
  -5002022.12548  -3885123.72145  20802375.7974                   20802374.8674
  -1682373.42647  -1293922.18545  21958870.6094                   21958869.1604
  -7171872.62148  -5576249.53246  20542602.1644                   20542600.4494
   6014349.21947   4682123.95045  21635008.3204                   21635005.4574
  -9026861.39547  -7029817.18345  22148175.4304                   22148173.3364
   7798279.46946   6068299.52244  23366373.4304                   23366373.9264
  -2594879.59448  -2013243.54846  19891599.8984                   19891595.9574
   8950614.91046   6963956.80143  24335950.1644                   24335955.4304
  -6081189.10546  -4736325.86244  23120184.3984                   23120184.3674
  -1453280.38746  -1129019.68543  23952604.1484                   23952603.0704
 11  8  1 16 38 30.0000000  0 10G03G06G13G16G19G20G23G32G07G10
  -5104648.74247  -3965092.53245  20782846.5784                   20782845.3484
  -1752139.65247  -1348285.49245  21945593.4844                   21945593.3134
  -7307675.22348  -5682069.73146  20516759.6094                   20516757.9144
   6011232.43848   4679695.24645  21634414.7974                   21634412.4264
  -9187208.00047  -7154762.55345  22117662.7114                   22117660.3094
   7804412.60246   6073078.43743  23367540.4144                   23367540.9964
  -2675724.96148  -2076239.96146  19876215.4304                   19876211.7774
   8962132.30546   6972931.14243  24338142.6094                   24338146.6254
  -6221866.39846  -4845944.50344  23093415.7424                   23093413.7664
  -1567059.47746  -1217678.65943  23930951.9614                   23930952.2304
 11  8  1 16 39  0.0000000  0 10G03G06G13G16G19G20G23G32G07G10
  -5206912.76647  -4044778.76845  20763386.3204                   20763385.2304
  -1821593.59847  -1402405.44445  21932377.2894                   21932376.4184
  -7443320.67248  -5787767.47646  20490947.2584                   20490945.8404
   6008109.94947   4677262.12145  21633820.7034                   21633818.4884
  -9347483.84047  -7279652.79545  22087163.1804                   22087160.4144
   7810358.13746   6077711.18143  23368672.3204                   23368672.5434
  -2756269.55948  -2139001.99646  19860888.3054                   19860884.3014
   8973353.07046   6981674.32543  24340277.7274                   24340282.0554
  -6362768.08646  -4955737.96244  23066602.2504                   23066600.9964
  -1680576.30946  -1306133.36943  23909349.9614                   23909350.7854
 11  8  1 16 39 30.0000000  0 10G03G06G13G16G19G20G23G32G07G10
  -5308807.88747  -4124177.54545  20743996.2034                   20743995.2344
  -1890729.88747  -1456277.85945  21919221.0314                   21919220.2074
  -7578801.39848  -5893336.86646  20465166.2424                   20465164.2464
   6004984.58647   4674826.74845  21633225.5634                   21633223.4304
  -9507680.53547  -7404481.35145  22056678.9144                   22056675.9064
   7816118.68846   6082199.77043  23369767.9844                   23369769.3484
  -2836507.09848  -2201524.77146  19845619.5784                   19845615.9304
   8984280.31346   6990188.82643  24342357.8524                   24342361.1024
  -6503888.92246  -5065702.20344  23039748.0314                   23039746.7304
  -1793824.75846  -1394378.92643  23887799.9694                   23887799.9024
 11  8  1 16 40  0.0000000  0 10G03G06G13G16G19G20G23G32G07G10
  -5410332.91447  -4203287.95445  20724676.5234                   20724675.7854
  -1959548.96147  -1509903.11745  21906125.3984                   21906124.5084
  -7714115.35548  -5998776.30846  20439416.9614                   20439415.1374
   6001853.46547   4672386.87245  21632630.0864                   21632627.5594
  -9667795.10547  -7529245.91745  22026210.0784                   22026207.5164
   7821691.42646   6086541.99143  23370828.9774                   23370829.2934
  -2916436.62948  -2263807.55246  19830409.6174                   19830405.7894
   8994911.04746   6998472.32243  24344381.1024                   24344384.5554
  -6645229.47346  -5175837.64944  23012850.9304                   23012850.4104
  -1906804.63746  -1482415.16243  23866300.6254                   23866300.3284
 11  8  1 16 40 30.0000000  0 10G03G06G13G16G19G20G23G32G07G10
  -5511481.37147  -4282104.92945  20705428.8284                   20705427.7584
  -2028045.50047  -1563277.06545  21893090.4924                   21893089.6644
  -7849254.55548  -6104079.56346  20413700.7194                   20413698.6214
   5998719.22747   4669944.59345  21632033.8134                   21632031.6644
  -9827818.97347  -7653939.79945  21995758.0234                   21995755.7274
   7827078.55246   6090739.53943  23371854.3594                   23371854.4304
  -2996052.32848  -2325845.77346  19815259.2894                   19815255.6644
   9005248.02346   7006526.93143  24346348.1644                   24346352.0904
  -6786784.46546  -5286140.17444  22985914.5704                   22985913.2274
  -2019509.96946  -1570237.45943  23844853.7424                   23844853.2854
 11  8  1 16 41  0.0000000  0 10G03G06G13G16G19G20G23G32G07G10
  -4036827.89847  -3133024.29145  20986046.3204                   20986044.9184
   -520796.43447   -388797.27045  22179910.4064                   22179909.8014
  -6408790.92248  -4981640.36746  20687812.0234                   20687809.9884
   7571000.42647   5895098.74545  21931229.0944                   21931226.7154
  -8412322.60247  -6550955.57445  22265118.5474                   22265116.0944
   9407697.80146   7322390.86443  23672635.7894                   23672637.2424
  -1499929.59448  -1160035.86547  20099962.3754                   20099958.0944
  10590709.73046   8241951.31642  24648051.5474                   24648055.4494
  -5353128.13346  -4169005.32144  23258729.6094                   23258729.5554
   -556515.92246   -430242.12243  24123251.8134                   24123252.4694
 11  8  1 16 41 30.0000000  0 10G03G06G13G16G19G20G23G32G07G10
  -4137216.55147  -3211249.19045  20966942.4224                   20966941.8984
   -588644.86747   -441666.20745  22166999.4614                   22166998.8874
  -6543570.15648  -5086663.13146  20662164.3134                   20662162.3834
   7567855.87547   5892648.41145  21930630.3364                   21930628.2974
  -8572152.16047  -6675498.03545  22234703.9534                   22234701.5554
   9412708.10946   7326294.87843  23673588.9534                   23673589.8444
  -1578911.30148  -1221580.07746  20084932.6414                   20084928.5904
  10600455.61745   8249545.26642  24649905.7974                   24649910.1484
  -5495108.52047  -4279639.37844  23231712.3594                   23231711.8554
   -668668.19546   -517633.50643  24101910.1094                   24101910.4694
 11  8  1 16 42  0.0000000  0 10G03G06G13G16G19G20G23G32G07G10
  -4237209.66847  -3289165.89845  20947914.7034                   20947913.5204
   -656155.76247   -494272.11045  22154152.9534                   22154152.1054
  -6678151.81648  -5191531.95346  20636554.0004                   20636552.0434
   7564715.69147   5890201.47545  21930033.0004                   21930030.4884
  -8731866.20747  -6799950.47645  22204311.3914                   22204309.0044
   9417539.79746   7330059.67043  23674509.0234                   23674510.1724
  -1657561.10248  -1282865.64946  20069965.6484                   20069961.9574
  10609916.03945   8256916.78542  24651706.9384                   24651710.3874
  -5637287.99647  -4390428.54644  23204655.8054                   23204655.2384
   -780529.30946   -604798.05043  24080623.3754                   24080624.1174
 11  8  1 16 42 30.0000000  0 10G03G06G13G16G19G20G23G32G07G10
  -4336805.02747  -3366772.65945  20928962.3754                   20928960.7894
   -723328.00847   -546614.14345  22141370.3524                   22141369.3794
  -6812532.18748  -5296243.92946  20610982.1024                   20610980.3984
   7561579.03147   5887757.29945  21929436.3594                   21929433.8014
  -8891459.75047  -6924309.02245  22173941.2344                   22173939.0234
   9422190.98846   7333683.86443  23675394.5234                   23675395.0354
  -1735876.67248  -1343890.78246  20055062.9454                   20055059.2384
  10619090.02046   8264065.10542  24653452.0394                   24653456.8754
  -5779665.73847  -4501372.18244  23177562.4224                   23177561.5704
   -892097.67646   -691734.41743  24059392.6334                   24059393.3164
 11  8  1 16 43  0.0000000  0 10G03G06G13G16G19G20G23G32G07G10
  -4436001.65647  -3444068.73445  20910085.7194                   20910084.6884
   -790161.91047   -598692.51645  22128652.2814                   22128651.4574
  -6946709.42648  -5400797.60946  20585449.4064                   20585447.6844
   7558442.67247   5885313.36045  21928839.5164                   21928836.7854
  -9050930.12947  -7048571.59945  22143595.3364                   22143592.4774
   9426658.53146   7337164.93343  23676244.9304                   23676245.2154
  -1813857.49648  -1404655.07846  20040223.6414                   20040219.7704
  10627974.51245   8270987.82042  24655143.1174                   24655147.6254
  -5922241.78547  -4612470.35744  23150431.3204                   23150429.9024
  -1003373.13746   -778442.56743  24038217.0704                   24038218.0164
 11  8  1 16 43 30.0000000  0 10G03G06G13G16G19G20G23G32G07G10
  -4534796.58247  -3521051.79445  20891285.9304                   20891284.6174
   -856655.82847   -650505.99345  22115998.8204                   22115998.1994
  -7080678.86748  -5505189.39346  20559956.0234                   20559953.9534
   7555306.38747   5882869.47945  21928242.3754                   21928240.1684
  -9210272.53947  -7172734.43745  22113273.3834                   22113270.6994
   9430941.60246   7340502.22443  23677059.1254                   23677060.0904
  -1891500.81648  -1465156.37146  20025448.4144                   20025445.1214
  10636569.14146   8277684.64142  24656778.4774                   24656783.5084
  -6065014.03147  -4723721.41744  23123262.9924                   23123261.8244
  -1114353.51646   -864920.73843  24017098.3444                   24017098.5704
 11  8  1 16 44  0.0000000  0 10G03G06G13G16G19G20G23G32G07G10
  -4633186.06247  -3597718.90545  20872562.5474                   20872561.4574
   -922807.31647   -702052.61245  22103410.7034                   22103410.1684
  -7214435.80948  -5609415.57546  20534502.6254                   20534500.7774
   7552170.27347   5880425.74445  21927645.5784                   21927643.4264
  -9369480.99247  -7296792.93045  22082977.0164                   22082974.4414
   9435040.12546   7343695.76743  23677840.2974                   23677840.9774
  -1968803.06648  -1525391.92246  20010738.4384                   20010734.4574
  10644874.21946   8284155.87142  24658359.3364                   24658363.3404
  -6207980.15647  -4835123.56944  23096057.0084                   23096056.2854
  -1225035.71946   -951166.64343  23996036.7974                   23996036.6994
 11  8  1 16 44 30.0000000  0 10G03G06G13G16G19G20G23G32G07G10
  -4731164.12947  -3674065.44545  20853917.9144                   20853916.8404
   -988611.72347   -753328.78345  22090888.8364                   22090887.5744
  -7347972.64148  -5713470.25146  20509091.5084                   20509089.2854
   7549036.53147   5877983.81545  21927049.3834                   21927046.7384
  -9528547.27347  -7420740.60945  22052707.4384                   22052704.9264
   9438956.01646   7346746.94544  23678585.3914                   23678586.8444
  -2045758.86748  -1585357.49646  19996093.9844                   19996090.2814
  10652892.20746   8290403.40943  24659885.4304                   24659889.0314
  -6351135.08247  -4946672.79344  23068815.4384                   23068814.3954
  -1335414.60246  -1037176.16643  23975032.0784                   23975031.8984
 11  8  1 16 45  0.0000000  0 10G03G06G13G16G19G20G23G32G07G10
  -4828725.77347  -3750087.51545  20835353.1954                   20835352.0744
  -1054065.17647   -804331.50545  22078433.4144                   22078432.4064
  -7481282.83248  -5817348.31846  20483723.2974                   20483721.4884
   7545906.63347   5875544.91445  21926453.4304                   21926451.5004
  -9687464.28547  -7544572.00645  22022466.5314                   22022464.1844
   9442690.66846   7349656.90744  23679296.2504                   23679297.1454
  -2122363.35548  -1645049.31846  19981516.9224                   19981513.1054
  10660624.89846   8296428.64343  24661357.9064                   24661362.1764
  -6494474.96547  -5058366.16644  23041539.1564                   23041537.8244
  -1445485.85946  -1122945.91343  23954086.5084                   23954086.8754
 11  8  1 16 45 30.0000000  0 10G03G06G13G16G19G20G23G32G07G10
  -4925872.95347  -3825786.62145  20816866.4304                   20816865.2544
  -1119170.82047   -855063.17545  22066043.8594                   22066042.9064
  -7614366.93748  -5921050.21746  20458398.0554                   20458396.4224
   7542775.48447   5873105.04145  21925857.9144                   21925855.8134
  -9846231.58247  -7668286.71545  21992253.8594                   21992251.4184
   9446238.23446   7352421.11543  23679971.5634                   23679972.0084
  -2198618.63348  -1704469.02846  19967005.9144                   19967002.2464
  10668067.14146   8302227.45743  24662773.7734                   24662778.1214
  -6638002.21147  -5170205.55944  23014226.4064                   23014225.1134
  -1555251.62946  -1208477.73243  23933198.6954                   23933198.8834
 11  8  1 16 46  0.0000000  0 10G03G06G13G16G19G20G23G32G07G10
  -5022596.39847  -3901155.53045  20798459.8914                   20798459.3834
  -1183920.78147   -905517.70245  22053722.9064                   22053721.9924
  -7747214.35948  -6024567.68246  20433118.1644                   20433116.3954
   7539648.63747   5870668.51345  21925262.6414                   21925260.5784
 -10004837.76247  -7791875.89445  21962072.2894                   21962069.6804
   9449604.32046   7355043.90644  23680611.7114                   23680613.2544
  -2274515.78948  -1763609.69446  19952562.9774                   19952559.5944
  10675224.75046   8307804.49243  24664136.9614                   24664140.2854
  -6781709.12147  -5282184.90245  22986879.9304                   22986879.4774
  -1664703.93446  -1293765.23743  23912370.1174                   23912370.9454
 11  8  1 16 46 30.0000000  0 10G03G06G13G16G19G20G23G32G07G10
  -5118898.18447  -3976195.88545  20780134.7344                   20780133.7274
  -1248318.31247   -955697.62045  22041468.1094                   22041467.6294
  -7879825.81648  -6127901.28146  20407883.3284                   20407881.0164
   7536520.76647   5868231.18245  21924667.9844                   21924665.5984
 -10163282.82847  -7915339.54145  21931920.6094                   21931918.7304
   9452783.35546   7357520.95443  23681217.2114                   23681217.9614
  -2350056.97748  -1822472.97146  19938188.2814                   19938184.1954
  10682092.34446   8313155.60843  24665444.0314                   24665447.5044
  -6925598.43047  -5394306.41445  22959498.8054                   22959497.1804
  -1773845.17246  -1378810.36543  23891602.0234                   23891602.0274
 11  8  1 16 47  0.0000000  0 10G03G06G13G16G19G20G23G32G07G10
  -5214771.29347  -4050902.22045  20761890.7274                   20761889.6524
  -1312357.45347  -1005598.26845  22029281.6564                   22029281.3094
  -8012192.45348  -6231044.11446  20382694.6254                   20382692.4734
   7533395.34047   5865795.75745  21924072.9454                   21924070.6094
 -10321557.37147  -8038670.30445  21901801.9534                   21901799.8134
   9455778.46546   7359854.62643  23681786.7814                   23681788.2074
  -2425235.35948  -1881053.54746  19923882.3914                   19923878.7034
  10688673.74246   8318283.67543  24666696.2274                   24666699.6954
  -7069663.80147  -5506565.09844  22932083.9774                   22932082.6764
  -1882669.18746  -1463608.23943  23870892.4224                   23870893.3054
 11  8  1 16 47 30.0000000  0 10G03G06G13G16G19G20G23G32G07G10
  -5310217.92247  -4125276.21445  20743728.2814                   20743727.1644
  -1376041.88747  -1055222.50645  22017163.1174                   22017162.7154
  -8144315.05948  -6333996.78246  20357552.3204                   20357550.4574
   7530266.83247   5863357.94145  21923477.7344                   21923475.5234
 -10479661.32047  -8161868.14745  21871715.9144                   21871713.6564
   9458584.02346   7362040.68443  23682320.3754                   23682321.8484
  -2500053.11348  -1939353.11946  19909644.8754                   19909641.0394
  10694963.63746   8323184.57943  24667893.1024                   24667898.2734
  -7213908.32847  -5618963.37744  22904635.1644                   22904634.4774
  -1991178.51646  -1548160.98343  23850243.9064                   23850244.6134
 11  8  1 16 48  0.0000000  0 10G03G06G13G16G19G20G23G32G07G10
  -5405228.06247  -4199310.09045  20725648.0314                   20725646.8324
  -1439362.50447  -1104563.24645  22005113.6484                   22005112.5234
  -8276182.10948  -6436750.32946  20332458.9224                   20332457.3484
   7527142.44547   5860923.33245  21922883.1564                   21922880.8714
 -10637581.93447  -8284923.13945  21841665.1094                   21841662.3244
   9461206.68046   7364084.11943  23682819.7974                   23682821.2304
  -2574500.54748  -1997364.13546  19895477.9144                   19895474.1994
  10700969.25846   8327863.94643  24669036.1564                   24669040.7274
  -7358322.50447  -5731493.89944  22877153.7194                   22877152.9104
  -2099363.76646  -1632461.18543  23829657.5554                   23829658.1954
 11  8  1 16 48 30.0000000  0 10G03G06G13G16G19G20G23G32G07G10
  -5499806.43747  -4273007.52145  20707650.0084                   20707649.5984
  -1502325.70747  -1153625.49645  21993132.0004                   21993131.1174
  -8407796.96948  -6539307.35646  20307413.7504                   20307411.5044
   7524013.69147   5858485.31245  21922288.0394                   21922285.9884
 -10795322.19547  -8407837.57345  21811647.7034                   21811645.0354
   9463637.79846   7365978.29043  23683282.4844                   23683284.4574
  -2648582.94948  -2055090.68646  19881380.4304                   19881376.5354
  10706681.97346   8332315.09343  24670123.2894                   24670128.5164
  -7502912.26247  -5844161.19444  22849639.0394                   22849638.1174
  -2207230.78546  -1716513.41743  23809130.5704                   23809131.0164
 11  8  1 16 49  0.0000000  0  9G03G06G13G16G19G20G23G07G10
  -5593944.92247  -4346362.17245  20689736.3834                   20689735.3794
  -1564924.43747  -1202403.70745  21981220.2034                   21981218.8594
  -8539149.86348  -6641660.25546  20282418.1884                   20282416.0514
   7520885.33647   5856047.60445  21921692.4774                   21921690.6094
 -10952871.76647  -8530603.44445  21781667.1414                   21781664.9734
   9465881.74646   7367726.76643  23683709.8134                   23683710.9614
  -2722292.33648  -2112526.59846  19867354.5234                   19867350.5004
  -7647670.02347  -5956959.40244  22822092.4384                   22822092.2424
  -2314771.78946  -1800311.60743  23788666.5004                   23788667.0664
 11  8  1 16 49 30.0000000  0  9G03G06G13G16G19G20G23G07G10
  -5687641.98447  -4419372.89045  20671906.1954                   20671905.3794
  -1627158.37146  -1250897.68045  21969377.5394                   21969376.6844
  -8670237.69948  -6743806.62346  20257472.7504                   20257470.8014
   7517756.02747   5853609.14545  21921096.8444                   21921095.0124
 -11110226.44147  -8653217.44345  21751723.1804                   21751721.1294
   9467936.78146   7369327.96843  23684101.0314                   23684102.0744
  -2795627.28948  -2169670.73246  19853399.0004                   19853395.2854
  -7792595.03947  -6069887.95244  22794514.3674                   22794513.7194
  -2421985.85246  -1883855.03443  23768264.7894                   23768264.6484
 11  8  1 16 50  0.0000000  0  9G03G06G13G16G19G20G23G07G10
  -4205462.75047  -3264428.04245  20953956.3054                   20953954.6454
   -113594.74247    -71497.45445  22257398.9454                   22257398.4804
  -7225622.51248  -5618132.45046  20532373.8284                   20532371.9224
   9090054.55547   7078776.79145  22220295.7894                   22220293.7034
  -9691946.81247  -7548064.45045  22021613.0784                   22021610.2584
  11045231.31646   8598388.43443  23984250.0084                   23984251.6214
  -1293153.75448   -998912.16146  20139310.5314                   20139306.4104
  -6362251.19147  -4955334.28344  23066699.3594                   23066698.6884
   -953438.20346   -739532.17643  24047719.8284                   24047719.9184
 11  8  1 16 50 30.0000000  0  9G03G06G13G16G19G20G23G07G10
  -4298247.65647  -3336727.96945  20936299.4454                   20936298.3634
   -175073.32447   -119402.85545  22245699.6644                   22245698.6484
  -7356145.83248  -5719838.93546  20507536.1954                   20507534.2384
   9086943.03147   7076352.19645  22219703.5314                   22219701.1214
  -9848875.44147  -7670346.47645  21991750.3204                   21991747.8524
  11046927.25046   8599709.79443  23984573.3834                   23984574.2384
  -1365711.09848  -1055450.37646  20125503.1564                   20125499.1334
  -6507483.26647  -5068502.09344  23039063.1254                   23039061.9614
  -1059971.30546   -822544.97343  24027448.3444                   24027446.7424
 11  8  1 16 51  0.0000000  0  9G03G06G13G16G19G20G23G07G10
  -4390576.92647  -3408672.86945  20918729.8204                   20918728.9454
   -236176.28947   -167015.57045  22234071.9924                   22234071.8014
  -7486384.90248  -5821323.92346  20482752.3834                   20482750.2034
   9083835.49647   7073930.70245  22219112.4064                   22219109.7894
 -10005587.43447  -7792459.69445  21961929.1484                   21961926.7974
  11048438.58246   8600887.36343  23984861.0164                   23984861.8554
  -1437880.19148  -1111686.05746  20111769.6884                   20111765.9104
  -6652869.93447  -5181790.34944  23011396.5474                   23011396.0904
  -1166165.10946   -905293.45943  24007240.1804                   24007239.1484
 11  8  1 16 51 30.0000000  0  9G03G06G13G16G19G20G23G07G10
  -4482451.64147  -3480263.56245  20901246.4774                   20901245.2234
   -296905.89847   -214337.34945  22222516.2034                   22222514.8914
  -7616339.06647  -5922586.90646  20458023.0704                   20458020.9454
   9080727.79347   7071509.08645  22218521.0084                   22218518.7154
 -10162081.73447  -7914403.26845  21932149.7274                   21932146.8054
  11049760.90646   8601917.50443  23985113.0164                   23985113.6054
  -1509662.39548  -1167620.26246  20098110.2894                   20098106.1054
  -6798412.86347  -5295200.38644  22983701.2734                   22983699.1764
  -1272020.87546   -987778.43743  23987095.3914                   23987095.3634
 11  8  1 16 52  0.0000000  0  9G03G06G13G16G19G20G23G07G10
  -4573874.36747  -3551502.04845  20883849.5784                   20883847.9384
   -357265.72347   -261370.97345  22211029.3364                   22211028.7074
  -7746009.11347  -6023628.49746  20433347.7974                   20433345.3594
   9077614.30147   7069082.95045  22217928.5084                   22217925.6724
 -10318358.49247  -8036177.31445  21902410.7114                   21902408.5124
  11050888.24246   8602795.79643  23985327.4304                   23985327.9884
  -1581060.04748  -1223254.82046  20084523.8914                   20084519.8634
  -6944114.95347  -5408734.46344  22955974.4304                   22955973.3674
  -1377541.85946  -1070002.55343  23967016.5864                   23967014.9104
 11  8  1 16 52 30.0000000  0  9G03G06G13G16G19G20G23G07G10
  -4664848.14547  -3622390.69345  20866537.7194                   20866536.9694
   -417260.83647   -308120.42045  22199612.9224                   22199612.4104
  -7875396.55948  -6124449.89046  20408725.8284                   20408723.8954
   9074488.77047   7066647.45945  22217333.8834                   22217331.2464
 -10474418.65647  -8157782.61445  21872713.6024                   21872711.1524
  11051813.67246   8603516.73343  23985503.3984                   23985504.4734
  -1652077.02048  -1278592.73746  20071009.2274                   20071005.7544
  -7089980.47347  -5522395.83444  22928217.4304                   22928215.9414
  -1482732.67246  -1151969.39943  23946999.0554                   23946999.3634
 11  8  1 16 53  0.0000000  0 10G03G06G13G16G19G20G23G08G07G10
  -4755376.72347  -3692932.44145  20849310.4534                   20849309.6914
   -476895.67647   -354589.12745  22188265.1564                   22188264.3134
  -8004503.49247  -6225052.69446  20384157.7194                   20384155.9064
   9071344.39547   7064197.27245  22216735.3054                   22216733.2624
 -10630263.04747  -8279219.75845  21843057.1484                   21843054.7734
  11052530.79346   8604075.43943  23985639.9304                   23985641.4844
  -1722716.64548  -1333636.63446  20057567.3134                   20057563.4654
   9208435.38716                  25014825.273
  -7236013.00447  -5636187.39644  22900428.3834                   22900426.8674
  -1587597.11746  -1233682.00543  23927043.4694                   23927043.5984
 11  8  1 16 53 30.0000000  0 10G03G06G13G16G19G20G23G08G07G10
  -4845466.88347  -3763132.56845  20832167.2734                   20832166.0394
   -536178.12147   -400783.26245  22176983.8054                   22176983.1254
  -8133334.84847  -6325440.78646  20359642.2274                   20359639.7034
   9068171.91447   7061725.13745  22216131.8134                   22216129.3404
 -10785896.14547  -8400492.27045  21813441.2734                   21813438.8444
  11053029.24246   8604463.64643  23985736.0314                   23985737.1914
  -1792986.32448  -1388392.25846  20044195.2814                   20044191.6644
   9055556.457 5                  24985733.516
  -7382219.89147  -5750114.81644  22872605.9614                   22872604.7234
  -1692142.51246  -1315145.93743  23907149.7974                   23907148.7154
 11  8  1 16 54  0.0000000  0 10G03G06G13G16G19G20G23G08G07G10
  -4935123.10947  -3832994.55045  20815105.9454                   20815104.4224
   -595113.98847   -446707.32245  22165768.7814                   22165767.8014
  -8261893.71147  -6425616.50746  20335177.9534                   20335176.2304
   9064963.79747   7059225.28045  22215521.2114                   22215519.2584
 -10941319.84447  -8521601.58145  21783865.3674                   21783862.3794
  11053301.32446   8604675.51843  23985787.3204                   23985788.0944
  -1862890.63347  -1442863.15246  20030893.2584                   20030889.2704
   8902436.62946   6966288.82452  24956594.7424                   24956596.1914
  -7528606.11347  -5864181.95844  22844749.4774                   22844748.1054
  -1796373.79346  -1396365.17543  23887314.4224                   23887315.0204
 11  8  1 16 54 30.0000000  0 10G03G06G13G16G19G20G23G08G07G10
  -5024341.90247  -3902515.68845  20798128.3594                   20798127.1564
   -653700.75447   -492359.37645  22154620.4454                   22154619.3244
  -8390174.34847  -6525575.45846  20310767.1804                   20310765.1844
   9061720.95347   7056698.37045  22214904.4224                   22214902.1054
 -11096528.00447  -8642542.96645  21754330.2194                   21754327.3794
  11053347.38746   8604711.23843  23985795.8754                   23985797.3954
  -1932426.09448  -1497046.66346  20017660.9454                   20017656.9064
   8749078.55145   6846789.08642  24927410.9924                   24927412.8874
  -7675168.20346  -5978386.14244  22816859.6644                   22816858.6764
  -1900288.34046  -1477337.52243  23867540.6644                   23867539.5784
 11  8  1 16 55  0.0000000  0 10G03G06G13G16G19G20G23G08G07G10
  -5113115.84847  -3971690.17445  20781234.7664                   20781234.0164
   -711932.50447   -537734.79944  22143539.2274                   22143537.9804
  -8518168.08647  -6625310.83646  20286410.5784                   20286408.6174
   9058447.55947   7054147.62145  22214280.8204                   22214279.1374
 -11251510.94547  -8763308.84345  21724837.8134                   21724835.1374
  11053172.14146   8604574.53643  23985762.7664                   23985764.1954
  -2001585.18748  -1550936.89246  20004500.3984                   20004496.6764
   8595488.34045   6727108.42242  24898185.3204                   24898185.9104
  -7821899.17247  -6092721.94644  22788937.8674                   22788936.0634
  -2003879.25446  -1558057.78243  23847828.2344                   23847827.8984
 11  8  1 16 55 30.0000000  0 10G03G06G13G16G19G20G23G08G07G10
  -5201440.10947  -4040514.28745  20764427.3594                   20764426.5944
   -769805.23447   -582830.46745  22132526.2584                   22132525.0004
  -8645868.02347  -6724817.29546  20262110.5704                   20262108.0234
   9055146.21947   7051575.10944  22213653.0944                   22213650.6604
 -11406261.23847  -8883893.46845  21695388.9924                   21695386.6134
  11052777.24246   8604266.61443  23985687.8524                   23985689.2304
  -2070363.98048  -1604530.78246  19991412.2344                   19991408.6374
   8441670.59846   6607250.50842  24868914.4224                   24868915.3244
  -7968794.26647  -6207185.63044  22760984.7974                   22760982.8014
  -2107141.94846  -1638522.26743  23828177.8444                   23828177.3014
 11  8  1 16 56  0.0000000  0 10G03G06G13G16G19G20G23G08G07G10
  -5289314.13747  -4108987.54145  20747705.4144                   20747704.8524
   -827319.52347   -627646.81044  22121581.7034                   22121580.8284
  -8773271.38747  -6824092.64946  20237866.5554                   20237863.9414
   9051814.14847   7048978.65745  22213019.0864                   22213017.0204
 -11560775.21947  -9004293.91145  21665986.5234                   21665983.8984
  11052160.34046   8603785.77543  23985570.9144                   23985571.8054
  -2138761.37548  -1657827.47346  19978396.9534                   19978392.8164
   8287625.24245   6487215.27742  24839601.6254                   24839602.7934
  -8115853.09447  -6321776.86544  22733000.2814                   22732999.0234
  -2210076.57046  -1718730.99643  23808589.9534                   23808589.5784
 11  8  1 16 56 30.0000000  0 10G03G06G13G16G19G20G23G08G07G10
  -5376737.67647  -4177109.75645  20731069.3914                   20731068.3634
   -884476.12547   -672184.44845  22110705.2814                   22110704.6294
  -8900376.18747  -6923135.35646  20213679.0164                   20213677.0434
   9048449.59847   7046356.92045  22212378.4844                   22212376.8204
 -11715050.14847  -9124508.10245  21636628.8984                   21636626.3794
  11051318.70346   8603129.73243  23985410.3134                   23985412.9494
  -2206777.14547  -1710826.78646  19965453.7664                   19965450.2194
   8133352.18846   6367002.47742  24810243.3364                   24810244.0164
  -8263075.52347  -6436495.60444  22704984.4774                   22704983.3244
  -2312683.10946  -1798684.22843  23789063.6884                   23789063.9414
 11  8  1 16 57  0.0000000  0 10G03G06G13G16G19G20G23G08G07G10
  -5463707.11347  -4244878.13745  20714519.8204                   20714518.7034
   -941272.65647   -716441.51844  22099897.1804                   22099896.1564
  -9027177.40647  -7021941.49146  20189549.4384                   20189547.5314
   9045053.08247   7043710.23745  22211732.5784                   22211730.6024
 -11869080.09047  -9244531.38845  21607317.9384                   21607315.0904
  11050252.86746   8602299.02143  23985206.9774                   23985209.2384
  -2274408.01247  -1763526.18746  19952584.0164                   19952580.2814
   7978853.73045   6246614.19942  24780843.5634                   24780843.6174
  -8410458.51247  -6551339.43244  22676938.4384                   22676937.3204
  -2414958.89146  -1878379.62543  23769601.8674                   23769602.4454
 11  8  1 16 57 30.0000000  0 10G03G06G13G16G19G20G23G08G07G10
  -5550221.16447  -4312291.68845  20698056.3594                   20698055.7274
   -997709.03147   -760417.91245  22089157.6644                   22089156.7464
  -9153671.84448  -7120508.59646  20165478.4224                   20165476.2974
   9041623.35547   7041037.68145  22211079.8914                   22211077.9144
 -12022861.03147  -9364360.64245  21578054.6174                   21578052.0234
  11048961.06346   8601292.19843  23984961.4534                   23984963.6644
  -2341652.74248  -1815924.69346  19939788.0084                   19939783.8594
   7824130.82845   6126050.90642  24751399.6174                   24751401.1454
  -8558000.50847  -6666307.20444  22648861.9844                   22648860.9104
  -2516903.28146  -1957816.84543  23750202.7734                   23750202.3094
 11  8  1 16 58  0.0000000  0 10G03G06G13G16G19G20G23G08G07G10
  -5636285.22347  -4379354.59345  20681679.5004                   20681677.8914
  -1053792.16447   -804119.06945  22078485.4694                   22078484.4574
  -9279863.06247  -7218839.42046  20141464.8914                   20141462.9804
   9038152.07447   7038332.75244  22210419.1334                   22210417.0944
 -12176396.04347  -9483998.27045  21548837.7814                   21548835.0944
  11047434.94945   8600102.87543  23984671.1564                   23984673.3164
  -2408517.23048  -1868026.90846  19927063.8134                   19927060.2384
   7669177.03145   6005307.77742  24721913.7034                   24721915.4494
  -8705707.52747  -6781403.54345  22620754.3674                   22620753.1214
  -2618522.39547  -2037000.55343  23730865.4774                   23730865.1604
 11  8  1 16 58 30.0000000  0 10G03G06G13G16G19G20G23G08G07G10
  -5721900.15647  -4446067.51345  20665387.3754                   20665386.1454
  -1109523.30147   -847545.93745  22067880.5234                   22067879.3714
  -9405749.57847  -7316932.82146  20117509.5084                   20117507.6024
   9034636.54747   7035593.35345  22209750.4534                   22209747.8404
 -12329682.73447  -9603442.40845  21519668.1724                   21519665.6134
  11045671.30146   8598728.44943  23984336.0704                   23984338.0394
  -2475001.76248  -1919833.05146  19914412.0394                   19914408.6484
   7513991.71545   5884384.21142  24692383.2974                   24692383.8754
  -8853579.70347  -6896628.58145  22592615.3054                   22592613.4024
  -2719816.64546  -2115931.14943  23711589.4454                   23711589.6214
 11  8  1 16 59  0.0000000  0 10G03G06G13G16G19G20G23G08G07G10
  -4231641.57447  -3284827.06845  20948974.2194                   20948973.0634
    410519.71147    336903.17445  22357135.0704                   22357134.0944
  -7955903.47747  -6187182.60946  20393406.2194                   20393404.1724
  10606496.17247   8260418.98744  22508865.2664                   22508863.0864
 -10907291.87147  -8495085.83945  21790339.9224                   21790337.6454
  12619088.86746   9824767.86443  24283748.1334                   24283749.1764
   -965682.85948   -743740.40446  20201626.0704                   20201622.6454
   8934000.96146   6990885.07443  24962601.2664                   24962603.0434
  -7426190.52747  -5784377.24945  22864238.7034                   22864237.3014
  -1245362.05546   -967005.53743  23992169.1254                   23992169.0634
 11  8  1 16 59 30.0000000  0 10G03G06G13G16G19G20G23G08G07G10
  -4316353.61747  -3350836.46645  20932853.9774                   20932852.5784
    355493.56347    294025.67445  22346663.8914                   22346662.7894
  -8081170.50047  -6284793.29046  20369568.7974                   20369566.7114
  10602889.13347   8257608.26244  22508179.0234                   22508176.7894
 -11060069.47347  -8614133.28845  21761267.6414                   21761264.8014
  12616846.05546   9823020.05743  24283321.1414                   24283322.3594
  -1031403.55548   -794951.36346  20189120.0474                   20189116.2344
   8778355.23046   6869602.68943  24932984.6094                   24932984.5044
  -7574388.26247  -5899856.00245  22836036.8594                   22836035.5944
  -1346004.50846  -1045428.22343  23973016.9924                   23973016.6844
 11  8  1 17  0  0.0000000  0 10G03G06G13G16G19G20G23G08G07G10
  -4400616.03147  -3416495.49645  20916819.1094                   20916818.0164
    300816.27347    251420.02045  22336258.7894                   22336257.9534
  -8206126.75847  -6382161.81146  20345790.3444                   20345788.5044
  10599230.51647   8254757.36144  22507482.9384                   22507480.5944
 -11212590.40247  -8732980.73545  21732243.3594                   21732241.0474
  12614357.72746   9821080.89043  24282847.2894                   24282849.7464
  -1096744.32048   -845866.26546  20176685.7814                   20176682.2774
   8622476.66446   6748138.96543  24903319.5554                   24903320.9454
  -7722750.86347  -6015463.14745  22807805.3134                   22807803.4384
  -1446323.57846  -1123598.92443  23953927.3054                   23953926.6094
 11  8  1 17  0 30.0000000  0 10G03G06G13G16G19G20G23G08G07G10
  -4484427.41847  -3481803.08145  20900870.6024                   20900869.5234
    246488.54747    209086.74745  22325920.3594                   22325919.9804
  -8330768.47747  -6479285.22446  20322071.7974                   20322069.8674
  10595519.92246   8251865.97444  22506776.7584                   22506774.1294
 -11364850.20347  -8851624.69245  21703269.6564                   21703266.9304
  12611622.93046   9818949.66043  24282327.0784                   24282329.5004
  -1161703.75848   -896484.01646  20164324.4144                   20164320.7974
   8466366.68046   6626494.84743  24873614.1804                   24873615.3484
  -7871276.09047  -6131197.05545  22779541.8984                   22779540.3834
  -1546318.14846  -1201516.80343  23934898.8834                   23934898.5784
 11  8  1 17  1  0.0000000  0 10G03G06G13G16G19G20G23G08G07G10
  -4567792.16047  -3546762.65945  20885006.7734                   20885005.7424
    192504.58247    167021.32144  22315647.8134                   22315646.7424
  -8455098.49647  -6576165.77846  20298412.3364                   20298410.5784
  10591750.32046   8248928.59144  22506059.6254                   22506057.3134
 -11516850.75047  -8970066.63545  21674344.6334                   21674341.7234
  12608634.24246   9816620.69243  24281758.8204                   24281761.2074
  -1226286.36348   -946808.15046  20152034.7974                   20152031.2974
   8310020.07846   6504666.36743  24843861.9534                   24843863.0314
  -8019969.03947  -6247061.66745  22751245.5864                   22751244.7154
  -1645993.41446  -1279185.86443  23915931.1644                   23915931.3754
 11  8  1 17  1 30.0000000  0 10G03G06G13G16G19G20G23G08G07G10
  -4650708.52347  -3611372.82945  20869228.3284                   20869227.5004
    138864.98447    125224.25644  22305440.0474                   22305439.8014
  -8579113.33647  -6672800.71246  20274813.2114                   20274811.3754
  10587920.90247   8245944.56044  22505331.0394                   22505328.1564
 -11668587.67647  -9088303.16545  21645470.1414                   21645467.5204
  12605390.54746   9814092.87143  24281142.4384                   24281144.0434
  -1290490.52748   -996837.37946  20139817.8134                   20139813.4304
   8153438.20346   6382654.60943  24814065.2504                   24814066.5004
  -8168827.68447  -6363055.40345  22722918.7664                   22722917.3984
  -1745348.19146  -1356605.23143  23897024.2344                   23897024.6724
 11  8  1 17  2  0.0000000  0 10G03G06G13G16G19G20G23G08G07G10
  -4733174.67247  -3675632.18745  20853535.3594                   20853534.6214
     85570.82847     83696.32745  22295298.8364                   22295297.7704
  -8702808.75847  -6769186.77246  20251274.5554                   20251272.7114
  10584031.61347   8242913.92044  22504590.4924                   22504588.4924
 -11820056.29747  -9206330.62745  21616646.3364                   21616644.0044
  12601891.81646   9811366.37443  24280475.9534                   24280477.9654
  -1354314.46148  -1046570.32846  20127671.8134                   20127668.4264
   7996622.87546   6260460.86143  24784224.4144                   24784225.6134
  -8317849.60547  -6479176.34245  22694561.5704                   22694559.9144
  -1844380.68746  -1433773.34843  23878179.6954                   23878178.9144
 11  8  1 17  2 30.0000000  0 10G03G06G13G16G19G20G23G08G07G10
  -4815191.45747  -3739541.39745  20837928.2734                   20837927.0784
     32619.96547     42435.92844  22285222.5314                   22285221.7814
  -8826183.65247  -6865323.07346  20227797.3594                   20227795.0664
  10580079.20346   8239834.07244  22503838.9144                   22503836.2934
 -11971254.47347  -9324147.37145  21587874.6884                   21587871.6454
  12598134.06646   9808438.07643  24279761.1094                   24279762.7504
  -1417759.18748  -1096007.79846  20115599.0474                   20115595.1954
   7839573.01646   6138084.44443  24754338.5864                   24754339.9574
  -8467035.22347  -6595424.83945  22666172.1804                   22666170.8484
  -1943092.57446  -1510691.77543  23859394.4384                   23859394.6024
 11  8  1 17  3  0.0000000  0 10G03G06G13G16G19G20G23G08G07G10
  -4896757.96947  -3803099.73745  20822406.8204                   20822405.5984
    -19987.62547      1443.00844  22275212.0004                   22275211.0864
  -8949235.02047  -6961207.27046  20204381.5084                   20204379.5354
  10576062.57847   8236704.21244  22503074.2114                   22503072.0314
 -12122178.60947  -9441750.56445  21559154.5314                   21559151.8794
  12594115.86346   9805306.84443  24278996.9924                   24278998.3914
  -1480823.51648  -1145148.86146  20103598.3834                   20103594.3444
   7682289.09446   6015525.61743  24724408.0004                   24724409.3874
  -8616383.47747  -6711800.08245  22637752.1254                   22637750.8874
  -2041483.09446  -1587359.73943  23840672.3134                   23840671.9144
 11  8  1 17  3 30.0000000  0 10G03G06G13G16G19G20G23G08G07G10
  -4977875.42247  -3866308.16045  20806970.3364                   20806969.5904
    -72253.87947    -39283.97645  22265266.0234                   22265265.0084
  -9071961.88347  -7056838.58646  20181027.6174                   20181025.6054
  10571978.38746   8233521.68244  22502297.5944                   22502294.7194
 -12272826.73447  -9559138.67745  21530487.4064                   21530484.1254
  12589833.88745   9801969.97843  24278182.0704                   24278184.1484
  -1543509.05548  -1193994.75446  20091669.3754                   20091665.7544
   7524770.09446   5892783.64743  24694432.9224                   24694434.9144
  -8765895.07846  -6828302.58945  22609300.6724                   22609299.5474
  -2139553.80946  -1663778.51243  23822009.7974                   23822010.3914
 11  8  1 17  4  0.0000000  0 10G03G06G13G16G19G20G23G08G07G10
  -5058541.12147  -3929164.58245  20791620.0234                   20791619.6334
   -124177.39847    -79743.87044  22255384.8134                   22255384.4344
  -9194359.89147  -7152213.67746  20157735.5004                   20157733.8754
  10567827.09047   8230286.87444  22501506.9064                   22501504.7584
 -12423193.67647  -9676307.68445  21501872.9774                   21501870.1414
  12585288.34046   9798427.82043  24277317.7034                   24277319.3404
  -1605812.85948  -1242543.18946  20079814.0164                   20079809.6684
   7367018.05946   5769860.07643  24664414.6884                   24664414.8554
  -8915566.98847  -6944930.03445  22580819.4384                   22580817.9494
  -2237303.04746  -1739946.76643  23803408.6954                   23803408.4264
 11  8  1 17  4 30.0000000  0 10G03G06G13G16G19G20G23G08G07G10
  -5138759.31647  -3991672.27045  20776355.1174                   20776354.2704
   -175763.51246   -119940.85745  22245568.6414                   22245568.0664
  -9316431.19147  -7247334.17746  20134506.4144                   20134504.4104
  10563602.41447   8226994.89044  22500703.0634                   22500700.9304
 -12573280.92647  -9793258.74745  21473312.5314                   21473310.3014
  12580472.28546   9794674.88143  24276400.9224                   24276403.3284
  -1667739.37948  -1290797.64746  20068029.1414                   20068025.5664
   7209028.82446   5646751.66543  24634349.9534                   24634351.1804
  -9065403.32447  -7061685.57645  22552306.1334                   22552305.3054
  -2334735.19146  -1815867.94243  23784868.6644                   23784868.7934
 11  8  1 17  5  0.0000000  0 10G03G06G13G16G19G20G23G08G07G10
  -5218524.03147  -4053826.58845  20761176.3834                   20761175.6604
   -227007.18447   -159871.02944  22235817.4694                   22235816.5004
  -9438167.40247  -7342193.56446  20111340.6954                   20111338.7704
  10559308.49247   8223648.93044  22499886.2814                   22499884.4264
 -12723079.54747  -9909984.91945  21444806.9064                   21444804.0784
  12575389.49246   9790713.94243  24275434.6484                   24275437.3054
  -1729282.36348  -1338753.23746  20056318.1254                   20056314.4104
   7050808.20746   5523462.93543  24604241.4454                   24604242.0514
  -9215397.38746  -7178564.04944  22523763.5234                   22523762.3404
  -2431844.52046  -1891537.60743  23766388.8054                   23766389.1954
 11  8  1 17  5 30.0000000  0 10G03G06G13G16G19G20G23G08G07G10
  -5297827.63747  -4115621.61445  20746085.4304                   20746085.1174
   -277901.74247   -199529.14144  22226132.8054                   22226131.6454
  -9559558.86347  -7436784.32746  20088240.7344                   20088238.7624
  10554950.37547   8220252.95744  22499056.8134                   22499054.5394
 -12872578.97747 -10026477.94345  21416358.3444                   21416355.4144
  12570045.19146   9786549.32943  24274416.8754                   24274420.7034
  -1790434.57047  -1386404.33746  20044681.2584                   20044677.1414
   6892363.70746   5399999.79443  24574090.3134                   24574091.4064
  -9365541.05546  -7295559.08844  22495191.9144                   22495190.5944
  -2528623.82446  -1966950.06743  23747972.7814                   23747972.7934
 11  8  1 17  6  0.0000000  0 10G03G06G13G16G19G20G23G08G07G10
  -5376666.06247  -4177054.15845  20731083.1334                   20731082.2814
   -328443.85247   -238912.63445  22216514.6804                   22216514.0204
  -9680599.15247  -7531101.44146  20065207.7114                   20065205.4774
  10550530.92247   8216809.18944  22498215.6484                   22498213.4884
 -13021771.78947 -10142732.05045  21387967.4064                   21387964.6724
  12564441.61746   9782182.69843  24273350.3364                   24273354.1954
  -1851191.53947  -1433747.46446  20033119.6724                   20033115.6994
   6733700.11346   5276365.86743  24543898.1334                   24543898.5354
  -9515829.22346  -7412666.70945  22466592.6724                   22466592.0044
  -2625069.30946  -2042102.42943  23729619.6804                   23729620.0004
 11  8  1 17  6 30.0000000  0 10G03G06G13G16G19G20G23G08G07G10
  -5455034.15647  -4238120.20145  20716170.3134                   20716169.1174
   -378629.71147   -278018.52345  22206964.2974                   22206963.6414
  -9801281.71147  -7625139.79046  20042242.7344                   20042240.1054
  10546052.90647   8213319.80344  22497363.6414                   22497361.6564
 -13170650.66047 -10258741.51145  21359636.6804                   21359634.1334
  12558581.24646   9777615.87443  24272235.7344                   24272238.7234
  -1911548.58247  -1480778.93646  20021633.9844                   20021630.4494
   6574821.85546   5152564.74443  24513664.3444                   24513664.6844
  -9666256.89847  -7529883.05545  22437967.1724                   22437966.3134
  -2721176.29746  -2116991.01143  23711330.6644                   23711330.8204
 11  8  1 17  7  0.0000000  0 10G03G06G13G16G19G20G23G08G07G10
  -5532925.54747  -4298814.78845  20701347.8754                   20701346.7774
   -428453.96947   -316842.65544  22197483.1884                   22197482.7774
  -9921597.82847  -7718892.62146  20019347.0634                   20019345.0124
  10541520.72346   8209788.18144  22496501.5864                   22496499.2624
 -13319206.24647 -10374499.09745  21331367.3984                   21331364.9774
  12552468.03946   9772852.04743  24271072.2894                   24271075.6764
  -1971499.48848  -1527493.96446  20010225.8444                   20010222.1094
   6415735.45346   5028601.34343  24483391.4144                   24483391.5044
  -9816816.81646  -7647202.41945  22409316.9384                   22409315.3834
  -2816939.06246  -2191611.39243  23693107.8594                   23693107.8364
 11  8  1 17  7 30.0000000  0 10G03G06G13G16G19G20G23G08G07G10
  -4034910.37547  -3131530.24145  20986410.5084                   20986409.8204
   1097511.66047    872221.46344  22487864.5234                   22487863.8874
  -8466113.84447  -6584749.25846  20296316.2664                   20296314.3404
  12112360.45347   9433819.09144  22795422.2274                   22795420.1054
 -11892003.12547  -9262392.73246  21602955.2424                   21602952.4024
  14121527.59446  10995495.67343  24569655.0784                   24569658.3954
   -455614.58648   -346284.97446  20298689.1804                   20298685.4654
   7831873.42246   6132085.56343  24752873.0784                   24752873.0784
  -8392075.95347  -6537014.71045  22680436.0164                   22680435.0514
  -1336927.58646  -1038355.63443  23974744.4614                   23974744.4804
 11  8  1 17  8  0.0000000  0 10G03G06G13G16G19G20G23G08G07G10
  -4111828.08647  -3191466.10845  20971773.8134                   20971772.9884
   1048428.53547    833974.82444  22478524.4614                   22478523.8634
  -8585669.92647  -6677909.85146  20273565.8134                   20273563.6454
  12107735.30147   9430215.04944  22794541.7894                   22794540.4104
 -12039882.52347  -9377623.40245  21574814.6334                   21574811.4844
  14114923.32446  10990349.22243  24568398.8754                   24568401.4344
   -514732.25848   -392350.71446  20287439.5234                   20287435.9694
   7672391.03146   6007813.68843  24722524.2504                   24722524.3594
  -8542877.87547  -6654522.68345  22651739.5234                   22651738.0514
  -1431982.85946  -1112424.75843  23956656.6414                   23956656.1914
 11  8  1 17  8 30.0000000  0 10G03G06G13G16G19G20G23G08G07G10
  -4188256.44947  -3251020.65945  20957230.0234                   20957228.8674
    999717.10547    796017.84144  22469255.3364                   22469254.4924
  -8704840.01647  -6770769.65746  20250888.5234                   20250886.8244
  12103063.47747   9426574.63744  22793652.7894                   22793651.1414
 -12187416.81247  -9492585.16645  21546739.9224                   21546737.4144
  14108073.16046  10985011.16343  24567095.5784                   24567097.8524
   -573430.42648   -438089.57446  20276269.9304                   20276265.9964
   7512713.84846   5883389.93842  24692138.6334                   24692138.5634
  -8693797.20347  -6772122.12745  22623020.5314                   22623019.1484
  -1526681.96146  -1186216.33643  23938636.2034                   23938635.1484
 11  8  1 17  9  0.0000000  0 10G03G06G13G16G19G20G23G08G07G10
  -4264189.64547  -3310189.40645  20942780.3674                   20942779.7344
    951382.43047    758354.42744  22460057.6954                   22460056.9144
  -8823616.12547  -6863322.48446  20228286.0004                   20228284.2504
  12098349.77747   9422901.57744  22792756.5004                   22792754.8794
 -12334597.33647  -9607271.27645  21518732.2584                   21518729.3594
  14100980.76246  10979484.46143  24565745.5234                   24565748.5474
   -631703.55947   -483497.24746  20265180.3594                   20265177.3444
   7352847.62546   5758818.90242  24661717.0084                   24661717.0274
  -8844827.25447  -6889807.84445  22594280.2344                   22594278.5234
  -1621019.57046  -1259726.15343  23920684.1564                   23920684.4844
 11  8  1 17  9 30.0000000  0 10G03G06G13G16G19G20G23G08G07G10
  -4339628.11347  -3368972.63345  20928424.7584                   20928423.8674
    903422.81347    720983.26544  22450930.8284                   22450930.6684
  -8941996.87147  -6955567.22546  20205759.2424                   20205757.0514
  12093590.93047   9419193.32444  22791850.6254                   22791848.9384
 -12481421.63347  -9721679.79046  21490792.2974                   21490789.8054
  14093643.35246  10973766.68843  24564349.9844                   24564352.1134
   -689552.56648   -528574.43146  20254172.2344                   20254168.8404
   7192792.05546   5634100.37142  24631259.8754                   24631259.2074
  -8995967.90247  -7007579.76645  22565519.2034                   22565517.4774
  -1714996.83346  -1332955.24643  23902800.1724                   23902800.4804
 11  8  1 17 10  0.0000000  0 10G03G06G13G16G19G20G23G08G07G10
  -4414558.16447  -3427359.69845  20914166.4534                   20914165.3674
    855850.93047    683914.24944  22441878.5164                   22441878.1604
  -9059966.34847  -7047491.50246  20183310.2034                   20183308.1644
  12088799.25447   9415459.51544  22790939.0474                   22790937.1954
 -12627872.96147  -9835797.67245  21462923.3834                   21462921.0904
  14086072.30946  10967866.94743  24562908.7584                   24562912.2074
   -746963.32448   -573310.10946  20243247.3524                   20243243.7234
   7032561.15246   5509245.13742  24600768.8754                   24600767.6994
  -9147204.51647  -7125426.41545  22536740.0314                   22536737.8284
  -1808600.48846  -1405893.22443  23884988.2274                   23884988.7384
 11  8  1 17 10 30.0000000  0 10G03G06G13G16G19G20G23G08G07G10
  -4488979.56247  -3485350.40545  20900004.1334                   20900003.3484
    808666.43847    647147.09444  22432899.7344                   22432898.8984
  -9177521.72747  -7139093.09246  20160940.1414                   20160937.9884
  12083973.89147   9411699.43244  22790020.4304                   22790018.5434
 -12773947.89547  -9949622.27145  21435126.7274                   21435123.9104
  14078266.82446  10961784.56543  24561423.3524                   24561426.4344
   -803935.44147   -617704.00346  20232405.8914                   20232402.4774
   6872155.52046   5384253.82042  24570244.2424                   24570243.4574
  -9298535.73047  -7243346.84345  22507942.4694                   22507941.0204
  -1901830.40646  -1478539.89243  23867247.2274                   23867247.8204
 11  8  1 17 11  0.0000000  0 10G03G06G13G16G19G20G23G08G07G10
  -4562887.97347  -3542941.36745  20885939.7664                   20885938.9654
    761872.82447    610684.51644  22423995.1094                   22423994.5784
  -9294656.51247  -7230366.95446  20138650.1094                   20138648.0354
  12079117.40647   9407915.12844  22789096.7504                   22789094.5984
 -12919638.96547 -10063147.75245  21407402.4694                   21407400.2074
  14070228.82846  10955520.93442  24559894.9774                   24559897.2704
   -860464.63747   -661752.74546  20221648.8364                   20221645.5634
   6711579.85246   5259129.98042  24539687.4614                   24539687.6214
  -9449956.28147  -7361336.85645  22479127.8204                   22479127.0634
  -1994682.43746  -1550892.09843  23849579.1484                   23849578.4414
 11  8  1 17 11 30.0000000  0 10G03G06G13G16G19G20G23G08G07G10
  -4636280.37547  -3600130.26145  20871973.7424                   20871972.9694
    715471.86347    574527.90944  22415165.6094                   22415164.7734
  -9411365.77047  -7321309.23046  20116441.0784                   20116438.9884
  12074231.05947   9404107.55644  22788166.3754                   22788164.5944
 -13064940.57047 -10176369.74845  21379752.2664                   21379749.9534
  14061959.71145  10949077.20742  24558320.6334                   24558323.4454
   -916547.87548   -705454.00846  20210976.5314                   20210973.1954
   6550837.13746   5133875.98042  24509099.5084                   24509099.0124
  -9601462.60547  -7479393.72245  22450297.5474                   22450296.1524
  -2087154.19946  -1622948.10443  23831981.8984                   23831982.0084
 11  8  1 17 12  0.0000000  0 10G03G06G13G16G19G20G23G08G07G10
  -4709154.92647  -3656915.65645  20858106.4844                   20858105.2774
    669465.08647    538678.44844  22406410.4844                   22406410.2544
  -9527644.97347  -7411916.40346  20094313.9304                   20094311.8284
  12069315.66447   9400277.34144  22787231.2274                   22787229.4964
 -13209847.66847 -10289284.35145  21352177.4534                   21352174.7814
  14053459.65646  10942453.56342  24556703.2664                   24556705.9804
   -972183.12148   -748806.18346  20200389.6024                   20200386.2074
   6389930.32046   5008494.11342  24478479.4844                   24478479.6604
  -9753051.50847  -7597514.89045  22421451.2664                   22421449.4304
  -2179243.71946  -1694706.16543  23814457.7194                   23814457.1684
 11  8  1 17 12 30.0000000  0 10G03G06G13G16G19G20G23G08G07G10
  -4781517.05547  -3713301.73045  20844336.3594                   20844335.1564
    623845.91047    503130.98944  22397729.2814                   22397728.7974
  -9643497.60947  -7502191.18246  20072267.7894                   20072265.8984
  12064364.04347   9396418.87444  22786288.9614                   22786287.4964
 -13354362.52747 -10401893.29046  21324677.1644                   21324674.9304
  14044721.23046  10935644.14542  24555040.6884                   24555042.9144
  -1027375.89147   -791813.56546  20189886.7114                   20189883.5314
   6228854.21546   4882980.32842  24447827.8134                   24447827.8364
  -9904727.26647  -7715703.78345  22392587.2894                   22392586.3524
  -2270957.10246  -1766171.17243  23797004.8134                   23797005.1254
 11  8  1 17 13  0.0000000  0 10G03G06G13G16G19G20G23G08G07G10
  -4853367.30547  -3769288.95945  20830663.9774                   20830662.8874
    578613.00047    467884.52144  22389122.0084                   22389121.2504
  -9758921.63347  -7592131.97146  20050303.1644                   20050301.1994
  12059374.59047   9392530.94244  22785339.8524                   22785338.0204
 -13498482.49647 -10514194.54846  21297252.2424                   21297249.4454
  14035742.28545  10928647.32442  24553332.8134                   24553334.0594
  -1082126.75447   -834476.61046  20179467.9694                   20179464.5314
   6067608.71546   4757334.50043  24417144.1724                   24417143.1024
 -10056489.41847  -7833959.98745  22363708.7734                   22363706.9694
  -2362294.89846  -1837343.52643  23779623.6644                   23779624.2194
 11  8  1 17 13 30.0000000  0 10G03G06G13G16G19G20G23G08G07G10
  -4924701.52047  -3824874.06145  20817088.9614                   20817088.2344
    533769.70747    432941.68644  22380588.0784                   22380587.7704
  -9873910.73447  -7681733.87246  20028421.8134                   20028419.6954
  12054349.82447   9388615.51644  22784383.2034                   22784381.6914
 -13642200.59047 -10626182.63146  21269903.5394                   21269900.7464
  14026525.26245  10921464.95742  24551578.4224                   24551581.1994
  -1136431.16047   -876791.76046  20169134.3204                   20169130.7934
   5906198.48846   4631560.33243  24386428.9774                   24386428.6844
 -10208332.43447  -7952279.17945  22334813.5864                   22334812.0354
  -2453253.31246  -1908220.24643  23762314.8054                   23762315.6214
 11  8  1 17 14  0.0000000  0 10G03G06G13G16G19G20G23G08G07G10
  -4995521.93447  -3880058.81445  20803612.2734                   20803611.4694
    489312.94547    398300.02944  22372129.1884                   22372128.0354
  -9988464.98847  -7770996.92046  20006622.2424                   20006620.4694
  12049286.14147   9384669.70844  22783419.9844                   22783418.1884
 -13785516.03547 -10737856.97846  21242631.3594                   21242628.3484
  14017066.16845  10914094.06342  24549778.5164                   24549781.7894
  -1190291.66047   -918761.01146  20158884.9144                   20158881.4774
   5744621.55946   4505656.34743  24355681.8754                   24355681.2154
 -10360258.01247  -8070662.74145  22305903.3054                   22305901.7274
  -2543835.23846  -1978803.62743  23745078.2894                   23745078.2384
 11  8  1 17 14 30.0000000  0 10G03G06G13G16G19G20G23G08G07G10
  -5065833.24247  -3934846.85545  20790233.0554                   20790232.3054
    445236.89147    363955.03544  22363741.4064                   22363740.6804
 -10102586.90247  -7859923.08546  19984906.1334                   19984904.0514
  12044177.57047   9380688.96444  22782447.8284                   22782446.0234
 -13928430.49647 -10849218.87445  21215435.5314                   21215433.1174
  14007358.44946  10906529.38943  24547932.1804                   24547935.4064
  -1243713.05147   -960388.11546  20148719.4614                   20148715.8284
   5582873.78546   4379619.16442  24324901.7734                   24324900.5864
 -10512269.44947  -8189113.20445  22276976.4304                   22276974.3954
  -2634045.57846  -2049097.39543  23727912.4694                   23727911.9694
 11  8  1 17 15  0.0000000  0 10G03G06G13G16G19G20G23G08G07G10
  -5135630.73447  -3989234.53845  20776950.9384                   20776949.7584
    401545.82047    329909.99044  22355427.6254                   22355426.7234
 -10216269.39847  -7948506.85046  19963272.9224                   19963270.7034
  12039027.67647   9376676.00544  22781467.8204                   22781466.2934
 -14070935.98047 -10960262.08446  21188317.6564                   21188315.1914
  13997405.71146  10898773.69243  24546038.8134                   24546042.1954
  -1296690.26648  -1001669.10146  20138638.2664                   20138634.8014
   5420960.74246   4253453.19243  24294090.1884                   24294090.6684
 -10664360.62547  -8307625.79345  22248034.6024                   22248032.8714
  -2723879.62546  -2119097.98243  23710817.3134                   23710817.1454
 11  8  1 17 15 30.0000000  0 10G03G06G13G16G19G20G23G08G07G10
  -5204920.34447  -4043226.41345  20763765.2894                   20763764.4104
    358232.89847    296159.67544  22347185.0474                   22347184.6604
 -10329515.95347  -8036750.89646  19941722.9774                   19941720.8754
  12033829.22147   9372625.23944  22780478.8834                   22780476.7304
 -14213035.42247 -11070988.87646  21161277.1644                   21161274.3834
  13987200.20346  10890821.06943  24544096.6174                   24544100.5634
  -1349229.14848  -1042608.51646  20128640.2734                   20128636.5984
   5258877.11346   4127154.38243  24263246.8834                   24263247.8204
 -10816536.15647  -8426204.10245  22219076.2424                   22219075.0164
  -2813343.71146  -2188810.32243  23693793.0864                   23693791.9924
 11  8  1 17 16  0.0000000  0 10G03G06G13G16G19G20G23G08G07G10
  -3698278.37547  -2869219.68345  21050469.9144                   21050468.4964
   1890720.02047   1490305.44644  22638807.4304                   22638807.3134
  -8866899.42647  -6897049.71046  20220049.5164                   20220047.5474
  13604002.41447  10596136.72444  23079273.1564                   23079271.0434
 -12779299.91047  -9953792.34845  21434107.8834                   21434105.1954
  15552161.95746  12110271.54543  24841899.2034                   24841903.0354
    174093.32048    144395.98046  20418518.9614                   20418515.5044
   6672050.34046   5228328.39743  24532165.3524                   24532165.8484
  -9393368.52047  -7317242.31345  22489896.1254                   22489894.8014
  -1327013.84446  -1030631.22143  23976631.1174                   23976632.0744
 11  8  1 17 16 30.0000000  0 10G03G06G13G16G19G20G23G08G07G10
  -3766556.61347  -2922423.49845  21037476.8054                   21037475.7774
   1848156.37147   1457138.97744  22630708.0394                   22630707.3754
  -8979272.17647  -6984612.88846  20198665.7734                   20198663.9774
  13598698.66847  10592003.89944  23078263.5234                   23078261.4734
 -12920582.67647 -10063882.77446  21407222.4924                   21407219.7974
  15541441.79346  12101917.82343  24839859.1724                   24839862.9734
    122426.50448    104136.08546  20408687.3284                   20408683.7114
   6509622.95746   5101761.63643  24501255.7034                   24501256.3754
  -9545713.76647  -7435952.88945  22460905.8914                   22460904.8914
  -1415743.57446  -1099771.29843  23959746.8674                   23959746.9654
 11  8  1 17 17  0.0000000  0 10G03G06G13G16G19G20G23G08G07G10
  -3834332.25447  -2975235.69145  21024579.5084                   21024578.4384
   1805963.35247   1424261.27244  22622679.3204                   22622678.3404
  -9091207.18747  -7071834.97046  20177365.2974                   20177362.9104
  13593337.92647  10587826.64644  23077243.5864                   23077241.9694
 -13061455.12147 -10173653.48846  21380415.6884                   21380412.7814
  15530459.55146  12093360.00243  24837769.6644                   24837773.5434
     71193.26248     64214.04046  20398937.7344                   20398934.0434
   6347021.92246   4975059.68543  24470314.7584                   24470315.0744
  -9698144.63747  -7554730.15545  22431899.0704                   22431897.5784
  -1504109.41046  -1168627.88143  23942931.6484                   23942931.1724
 11  8  1 17 17 30.0000000  0 10G03G06G13G16G19G20G23G08G07G10
  -3901604.47747  -3027655.59345  21011778.2734                   21011777.2384
   1764140.94147   1391672.37144  22614720.5944                   22614720.0044
  -9202701.36747  -7158713.54646  20156148.3984                   20156146.5944
  13587919.76247  10583604.63544  23076212.6174                   23076210.9384
 -13201913.54347 -10283101.57146  21353687.1414                   21353684.2074
  15519214.28146  12084597.14743  24835630.7814                   24835633.9144
     20394.23848     24630.35646  20389270.8674                   20389267.5864
   6184248.57046   4848223.32943  24439339.9224                   24439339.9344
  -9850659.03147  -7673572.51545  22402876.7274                   22402875.2704
  -1592110.71946  -1237200.33443  23926185.7664                   23926185.3484
 11  8  1 17 18  0.0000000  0 10G03G06G13G16G19G20G23G08G07G10
  -3968366.88347  -3079678.25445  20999073.3204                   20999072.7304
   1722694.75447   1359376.62044  22606833.7274                   22606832.9734
  -9313746.30947  -7245242.07646  20135017.3594                   20135015.0664
  13582449.53947  10579342.06744  23075171.5314                   23075169.6684
 -13341948.55947 -10392219.72746  21327039.2734                   21327036.5664
  15507710.86346  12075633.25443  24833441.3754                   24833445.4344
    -29964.34048    -14610.12046  20379688.4614                   20379684.5594
   6021310.53546   4721258.73843  24408333.5864                   24408334.2894
 -10003249.02347  -7792473.77745  22373839.6724                   22373838.2734
  -1679741.23446  -1305483.94243  23909510.3054                   23909510.7154
 11  8  1 17 18 30.0000000  0 10G03G06G13G16G19G20G23G08G07G10
  -4034621.89147  -3131305.52745  20986465.8444                   20986465.1884
   1681621.50847   1327371.47444  22599017.5864                   22599017.0704
  -9424342.09847  -7331420.61946  20113971.5634                   20113969.9264
  13576923.81347  10575036.28344  23074119.9144                   23074118.4574
 -13481559.41847 -10501007.36746  21300472.0704                   21300469.2424
  15495945.70346  12066465.34043  24831203.2344                   24831206.3674
    -79884.87148    -53509.26546  20370188.6564                   20370185.0274
   5858206.07846   4594164.41743  24377295.4304                   24377295.7154
 -10155915.57447  -7911434.70345  22344788.0864                   22344786.4184
  -1767003.91046  -1373480.90443  23892904.1174                   23892905.0664
 11  8  1 17 19  0.0000000  0  9G03G06G13G16G19G23G08G07G10
  -4100360.53547  -3182530.45845  20973956.2974                   20973955.0944
   1640929.73847   1295663.59444  22591274.5944                   22591273.5594
  -9534477.09447  -7417240.10046  20093013.7274                   20093011.7504
  13571350.78546  10570693.61344  23073060.3834                   23073057.5864
 -13620733.80547 -10609454.90946  21273988.1414                   21273985.4344
   -129357.73448    -92059.57746  20360773.9924                   20360770.7894
   5694945.05546   4466948.11143  24346228.9454                   24346228.1884
 -10308648.02347  -8030446.98445  22315724.3754                   22315722.5124
  -1853889.77346  -1441184.19043  23876370.9384                   23876370.8794
 11  8  1 17 19 30.0000000  0  9G03G06G13G16G19G23G08G07G10
  -4165573.53947  -3233345.79645  20961546.6414                   20961545.5164
   1600627.81347   1264259.50144  22583605.1644                   22583604.3014
  -9644139.67647  -7502691.46346  20072145.5314                   20072143.7424
  13565738.51246  10566320.35844  23071991.7274                   23071989.9224
 -13759459.48047 -10717552.81446  21247589.3594                   21247586.4304
   -178373.82048   -130253.96046  20351446.9144                   20351443.3284
   5531537.50446   4339617.57943  24315132.5784                   24315133.1254
 -10461435.85547  -8149502.42545  22286649.8594                   22286647.7974
  -1940389.86346  -1508586.89143  23859910.4454                   23859911.0474
 11  8  1 17 20  0.0000000  0  9G03G06G13G16G19G23G08G07G10
  -4230244.81247  -3283739.01845  20949239.8674                   20949239.3284
   1560731.02047   1233171.05544  22576013.2814                   22576012.4804
  -9753311.75047  -7587760.63046  20051370.5864                   20051368.8554
  13560102.13746  10561928.37544  23070919.7734                   23070917.1254
 -13897717.50047 -10825286.30046  21221279.8594                   21221277.2544
   -226917.07048   -168079.89946  20342209.3444                   20342205.9344
   5368000.42646   4212186.19343  24284012.1174                   24284013.1294
 -10614261.46947  -8268587.29945  22257567.5234                   22257566.3444
  -2026488.50046  -1575676.79043  23843525.8674                   23843527.0474
 11  8  1 17 20 30.0000000  0  9G03G06G13G16G19G23G08G07G10
  -4294366.09447  -3333703.65445  20937037.6254                   20937037.1414
   1521246.81647   1202404.13444  22568499.2194                   22568498.8134
  -9861982.51647  -7672439.14446  20030691.6414                   20030689.4264
  13554449.24246  10557523.42144  23069843.3984                   23069841.8874
 -14035496.11747 -10932646.21746  21195061.1094                   21195058.6414
   -274979.30148   -205531.01846  20333063.7974                   20333060.0044
   5204342.92646   4084660.95943  24252868.8054                   24252870.4884
 -10767114.88747  -8387693.82345  22228481.0554                   22228478.8914
  -2112177.60546  -1642447.53843  23827220.4694                   23827220.5084
 11  8  1 17 21  0.0000000  0  9G03G06G13G16G19G23G08G07G10
  -4357923.03547  -3383228.56745  20924943.8914                   20924942.8714
   1482188.96947   1171969.40544  22561066.6644                   22561066.0864
  -9970135.22747  -7756713.98146  20010110.4694                   20010108.6294
  13548793.51246  10553116.36144  23068767.7034                   23068765.5944
 -14172778.07847 -11039619.15245  21168937.2734                   21168934.5634
   -322545.93048   -242595.95946  20324011.8834                   20324008.5824
   5040580.44546   3957053.89443  24221705.7034                   24221706.5634
 -10919979.64847  -8506809.20645  22199391.3204                   22199390.1524
  -2197442.89846  -1708888.10343  23810994.6174                   23810995.4264
 11  8  1 17 21 30.0000000  0  9G03G06G13G16G19G23G08G07G10
  -4420930.43447  -3432325.25845  20912953.4614                   20912952.7384
   1443542.20747   1141855.03344  22553713.0704                   22553712.4964
 -10077782.07447  -7840594.64046  19989626.0394                   19989624.3364
  13543119.45746  10548694.96344  23067687.4144                   23067685.9264
 -14309574.61347 -11146213.83146  21142905.8524                   21142903.3404
   -369631.40647   -279285.95946  20315051.9144                   20315048.1374
   4876699.81646   3829354.75143  24190520.6334                   24190520.2774
 -11072869.55147  -8625944.15345  22170297.6724                   22170295.7504
  -2282299.28546  -1775009.95743  23794847.5634                   23794847.3634
 11  8  1 17 22  0.0000000  0  9G03G06G13G16G19G23G08G07G10
  -4483392.66047  -3480997.14145  20901067.3834                   20901066.6094
   1405301.80947   1112057.30144  22546436.1174                   22546434.9924
 -10184925.33247  -7924082.90346  19969237.6484                   19969235.4184
  13537422.03546  10544255.37143  23066603.1564                   23066601.3554
 -14445886.69147 -11252431.00746  21116966.4614                   21116963.5514
   -416239.79348   -315604.21546  20306182.6174                   20306179.1254
   4712697.45746   3701560.75243  24159311.7344                   24159311.8674
 -11225786.55547  -8745100.24545  22141198.3754                   22141196.9694
  -2366751.21146  -1840816.73543  23778776.4064                   23778777.5004
 11  8  1 17 22 30.0000000  0  9G03G06G13G16G19G23G08G07G10
  -4545312.38747  -3529246.29545  20889284.6174                   20889283.7034
   1367463.94547   1082573.22944  22539235.9774                   22539235.3204
 -10291565.52747  -8007179.17646  19948944.6564                   19948942.6994
  13531697.72346  10539794.82743  23065514.5864                   23065511.9844
 -14581714.54347 -11358270.87946  21091119.4534                   21091116.7304
   -462374.05948   -351553.04046  20297403.5164                   20297399.9574
   4548571.60546   3573670.59543  24128079.9534                   24128080.5944
 -11378731.75447  -8864278.30045  22112093.4844                   22112092.3954
  -2450801.93746  -1906310.82443  23762783.0314                   23762782.6054
 11  8  1 17 23  0.0000000  0  9G03G06G13G16G19G23G08G07G10
  -4606682.21547  -3577066.94645  20877606.0394                   20877605.5044
   1330035.78147   1053408.38344  22532113.6564                   22532112.9454
 -10397692.02747  -8089875.17146  19928749.4454                   19928747.4884
  13525953.36746  10535318.66443  23064420.4924                   23064418.7304
 -14717046.88347 -11463724.63145  21065366.2504                   21065363.8874
   -508026.19548   -387126.15846  20288716.3204                   20288712.8984
   4384331.19145   3445691.08243  24096825.5084                   24096826.2234
 -11531695.69147  -8983470.94845  22082985.8134                   22082984.5314
  -2534443.36346  -1971486.00143  23746865.6094                   23746866.0634
 11  8  1 17 23 30.0000000  0  9G03G06G13G16G19G23G08G07G10
  -4667500.47347  -3624457.81245  20866032.6724                   20866031.6844
   1293017.83247   1024563.21044  22525068.4534                   22525068.1454
 -10503301.34047  -8172168.13846  19908652.5474                   19908650.6414
  13520189.68846  10530827.47443  23063323.9064                   23063322.0514
 -14851879.54747 -11568789.01546  21039708.5784                   21039705.7854
   -553194.94948   -422322.61046  20280121.1724                   20280117.5004
   4219978.82846   3317624.34743  24065550.6644                   24065550.6094
 -11684675.28547  -9102675.79745  22053874.7344                   22053873.1724
  -2617675.04346  -2036341.90643  23731027.6484                   23731028.2384
 11  8  1 17 24  0.0000000  0  9G03G06G13G16G19G23G08G07G10
  -3152349.08647  -2443820.36545  21154357.2734                   21154355.8134
   2831827.02747   2223635.30544  22817894.5704                   22817894.3794
  -9032971.54347  -7026456.62146  20188447.0634                   20188445.1174
  15089822.74246  11753918.12744  23362015.4064                   23362013.6524
 -13410788.61347 -10445861.01546  21313939.1644                   21313936.5084
    977537.53948    770455.92046  20571409.6804                   20571406.1954
   5630937.54746   4417072.83443  24334046.8204                   24334046.8164
 -10262247.45747  -7994290.46645  22324553.7664                   22324552.1524
  -1125078.03546   -873279.37943  24015059.4614                   24015060.4454
 11  8  1 17 24 30.0000000  0  9G03G06G13G16G19G23G08G07G10
  -3212070.34847  -2490356.42745  21142991.8204                   21142991.6094
   2795621.73447   2195423.36644  22811005.2194                   22811004.5704
  -9137545.73447  -7107943.01646  20168547.5704                   20168545.0124
  15084012.80946  11749390.88344  23360909.9774                   23360908.4454
 -13544618.43447 -10550143.98946  21288472.1954                   21288469.3284
    933329.77748    736008.28246  20562997.6484                   20562993.8524
   5466358.78146   4288829.61943  24302728.5944                   24302728.4614
 -10415258.98447  -8113520.18745  22295436.0704                   22295434.9264
  -1207496.41446   -937501.49043  23999375.6884                   23999376.5204
 11  8  1 17 25  0.0000000  0  9G03G06G13G16G19G23G08G07G10
  -3271244.34847  -2536466.03445  21131732.0314                   21131730.8164
   2759820.75446   2167526.46744  22804192.0784                   22804191.9844
  -9241599.90247  -7189024.21046  20148746.4384                   20148744.4774
  15078177.91446  11744844.12343  23359799.5164                   23359797.7894
 -13677942.98847 -10654033.24446  21263101.9454                   21263098.7544
    889601.74248    701934.44946  20554676.2584                   20554672.7734
   5301667.39146   4160498.75343  24271388.5864                   24271389.5434
 -10568284.55147  -8232760.88145  22266316.6484                   22266315.1414
  -1289509.47746  -1001407.83143  23983769.6414                   23983769.6254
 11  8  1 17 25 30.0000000  0  9G03G06G13G16G19G23G08G07G10
  -3329876.40647  -2582153.35545  21120574.4774                   21120573.2344
   2724418.55146   2139940.29944  22797455.3204                   22797455.0514
  -9345136.59847  -7269702.14946  20129043.9224                   20129041.9104
  15072312.61346  11740273.73943  23358683.6954                   23358682.5004
 -13810764.36347 -10757530.39546  21237826.2034                   21237823.3794
    846348.52348    668230.61946  20546445.4144                   20546441.8634
   5136859.53946   4032077.11443  24240027.0864                   24240027.2974
 -10721327.07047  -8352014.76145  22237193.6724                   22237192.1374
  -1371122.27047  -1065002.31843  23968239.0314                   23968239.4024
 11  8  1 17 26  0.0000000  0  9G03G06G13G16G19G23G08G07G10
  -3387968.91047  -2627420.23645  21109519.7814                   21109518.9304
   2689411.84046   2112662.34244  22790794.5234                   22790793.6994
  -9448155.97347  -7349977.00446  20109440.3284                   20109438.2274
  15066413.79346  11735677.22644  23357561.0634                   23357559.7234
 -13943081.78147 -10860634.87146  21212647.3444                   21212644.1804
    803567.71948    634894.89346  20538304.6954                   20538301.0234
   4971934.56646   3903564.19443  24208642.8914                   24208642.5554
 -10874387.55147  -8471282.65345  22208067.3984                   22208065.7384
  -1452337.43446  -1128286.87243  23952784.5784                   23952784.7274
 11  8  1 17 26 30.0000000  0  9G03G06G13G16G19G23G08G07G10
  -3445522.59447  -2672267.24545  21098567.3594                   21098567.0314
   2654799.14146   2085691.39844  22784207.4774                   22784207.0164
  -9550656.46947  -7429847.52546  20089934.7344                   20089933.1134
  15060479.99246  11731053.40744  23356432.0084                   23356430.4304
 -14074892.71147 -10963344.67446  21187564.2344                   21187561.1094
    761258.50848    601926.64446  20530253.5084                   20530249.8404
   4806892.82446   3774960.28143  24177236.1094                   24177236.0744
 -11027464.48847  -8590563.35745  22178937.6334                   22178936.0634
  -1533156.25846  -1191262.66143  23937404.4774                   23937405.5354
 11  8  1 17 27  0.0000000  0  9G03G06G13G16G19G23G08G07G10
  -3502545.77747  -2716700.91745  21087716.3914                   21087715.8014
   2620571.91047   2059020.79144  22777694.7034                   22777693.7154
  -9652643.79347  -7509318.17246  20070527.1414                   20070525.5634
  15054502.94946  11726395.92844  23355294.9224                   23355293.2034
 -14206202.67247 -11065664.09345  21162577.1414                   21162573.9774
    719412.89548    569319.64546  20522290.6254                   20522286.5594
   4641727.63746   3646260.19943  24145806.8674                   24145806.1994
 -11180563.77347  -8709861.48045  22149804.0004                   22149802.6374
  -1613587.12946  -1253936.07543  23922099.1724                   23922099.2304
 11  8  1 17 27 30.0000000  0  9G03G06G13G16G19G23G08G07G10
  -3559038.01247  -2760720.85345  21076966.6644                   21076965.2384
   2586729.69547   2032650.20044  22771254.0634                   22771254.2274
  -9754115.63748  -7588387.16146  20051217.7114                   20051216.0744
  15048482.68446  11721704.75144  23354149.3054                   23354147.6764
 -14337008.27347 -11167590.51545  21137685.5004                   21137682.4494
    678031.14148    537074.09646  20514416.0944                   20514412.4344
   4476440.21546   3517464.91743  24114353.2114                   24114352.0864
 -11333683.56247  -8829175.58645  22120666.0084                   22120664.1294
  -1693629.54746  -1316306.84343  23906867.6334                   23906868.3404
 11  8  1 17 28  0.0000000  0  9G03G06G13G16G19G23G08G07G10
  -3614999.25847  -2804327.02845  21066317.3674                   21066316.6914
   2553272.28947   2006579.45544  22764887.5164                   22764887.0314
  -9855068.94947  -7667052.08246  20032007.2734                   20032005.3874
  15042419.07846  11716979.80344  23352995.5084                   23352993.8594
 -14467305.63347 -11269120.91846  21112890.7194                   21112887.6294
    637113.76648    505190.38246  20506629.7114                   20506625.8714
   4311032.57446   3388575.79543  24082877.5314                   24082875.5164
 -11486821.07047  -8948503.48845  22091524.7894                   22091523.5124
  -1773283.78546  -1378375.12643  23891710.1804                   23891711.8714
 11  8  1 17 28 30.0000000  0  9G03G06G13G16G19G23G08G07G10
  -3670431.58647  -2847521.04845  21055769.3444                   21055767.9884
   2520196.82447   1980806.36144  22758593.2814                   22758593.2074
  -9955503.91447  -7745313.09746  20012894.9224                   20012893.0634
  15036309.50046  11712219.06144  23351833.3444                   23351831.4494
 -14597093.99247 -11370254.64846  21088192.6484                   21088189.8914
    596658.66448    473666.90146  20498931.0004                   20498927.4024
   4145504.02046   3259592.67443  24051377.7504                   24051377.4384
 -11639976.34847  -9067845.23345  22062380.3754                   22062378.5704
  -1852551.78546  -1440142.44043  23876625.9774                   23876626.4884
 11  8  1 17 29  0.0000000  0  9G03G06G13G16G19G23G08G07G10
  -3725340.98047  -2890307.60245  21045320.2034                   21045319.4344
   2487497.19947   1955326.12244  22752370.7664                   22752370.3204
 -10055423.72747  -7823172.70546  19993881.1334                   19993878.6524
  15030147.92246  11707417.76543  23350659.7814                   23350658.7504
 -14726375.95347 -11470993.82146  21063590.9534                   21063587.8834
    556660.25848    442499.27646  20491319.6644                   20491316.5164
   3979850.72746   3130512.20443  24019855.3594                   24019854.6454
 -11793152.84447  -9187203.53245  22033231.7344                   22033230.1024
  -1931439.42247  -1501613.37743  23861614.5704                   23861614.9694
 11  8  1 17 29 30.0000000  0 10G03G06G13G16G19G28G23G08G07G10
  -3779744.82847  -2932700.23545  21034967.4064                   21034966.6724
   2455155.24647   1930124.54244  22746216.5234                   22746216.4384
 -10154843.34447  -7900642.54246  19974962.2734                   19974960.3444
  15023916.70746  11702562.22344  23349474.5234                   23349473.4414
 -14855166.19547 -11571349.84046  21039083.5084                   21039080.2664
  15489412.54756  12093727.43053  24606050.3754                   24606051.7234
    517101.06647    411673.89346  20483792.1884                   20483788.4654
   3814056.04346   3001321.62743  23988305.1254                   23988304.3834
 -11946366.39147  -9306590.70045  22004076.0084                   22004074.9694
  -2009964.80146  -1562801.97643  23846670.5474                   23846671.8134
 11  8  1 17 30  0.0000000  0 10G03G06G13G16G19G28G23G08G07G10
  -3833659.47747  -2974711.67245  21024707.8364                   21024706.8484
   2423153.73447   1905188.30544  22740127.0944                   22740126.8714
 -10253777.09847  -7977733.79046  19956136.2424                   19956133.7194
  15017599.33246  11697639.55844  23348272.2664                   23348271.0474
 -14983477.64847 -11671332.75846  21014666.4144                   21014663.5044
  15317665.40246  11959898.62942  24573368.3674                   24573370.2194
    477964.88347    381178.13646  20476344.5474                   20476341.3594
   3648105.44946   2872009.48443  23956726.0784                   23956725.5314
 -12099630.81647  -9426017.51445  21974911.2504                   21974909.1914
  -2088144.35546  -1623721.21343  23831794.5084                   23831795.6724
 11  8  1 17 30 30.0000000  0 10G03G06G13G16G19G28G23G08G07G10
  -3887103.81247  -3016356.62145  21014537.8134                   21014536.6254
   2391473.61746   1880502.46644  22734098.8204                   22734098.0044
 -10352241.44547  -8054459.26546  19937398.6414                   19937396.7464
  15011176.70346  11692634.81143  23347049.9844                   23347048.8444
 -15111325.86747 -11770954.71346  20990337.1644                   20990334.7194
  15146012.00446  11826142.83843  24540703.7194                   24540705.5904
    439233.03148    350997.43146  20468974.1884                   20468970.9454
   3481981.61746   2742562.45243  23925113.3834                   23925112.8204
 -12252962.66447  -9545496.85945  21945733.0634                   21945731.9024
  -2165996.82446  -1684385.53243  23816979.8204                   23816980.3134
 11  8  1 17 31  0.0000000  0 10G03G06G13G16G19G28G23G08G07G10
  -3940068.19947  -3057627.58945  21004458.7584                   21004457.8404
   2360124.13747   1856074.30144  22728132.9144                   22728132.1644
 -10450223.89547  -8130809.22746  19918753.0314                   19918751.0474
  15004658.37546  11687555.54343  23345809.5004                   23345808.4844
 -15238698.25047 -11870205.87546  20966099.5554                   20966096.4064
  14974464.30945  11692469.44942  24508058.8134                   24508061.1804
    400915.12947    321139.30746  20461682.5634                   20461679.0554
   3315695.99246   2612989.22443  23893470.7344                   23893470.2894
 -12406349.89847  -9665019.34345  21916544.1024                   21916543.1484
  -2243512.68746  -1744787.58743  23802228.2344                   23802228.9884
 11  8  1 17 31 30.0000000  0 10G03G06G13G16G19G28G23G08G07G10
  -3992557.00447  -3098527.98245  20994470.9774                   20994469.7814
   2329100.79347   1831900.23244  22722229.7504                   22722229.2774
 -10547726.71547  -8206785.46546  19900199.1254                   19900196.8984
  14998040.21546  11682398.48243  23344550.4144                   23344548.6844
 -15365595.72347 -11969087.00846  20941951.6724                   20941948.4804
  14803020.15646  11558876.77043  24475434.1334                   24475436.0394
    363007.41047    291600.77446  20454469.2034                   20454465.5554
   3149246.25447   2483288.17043  23861796.6174                   23861795.6884
 -12559794.17247  -9784586.30445  21887345.0234                   21887343.5474
  -2320695.98846  -1804930.46543  23787541.9384                   23787542.1564
 11  8  1 17 32  0.0000000  0 10G03G06G13G16G19G28G23G08G07G10
  -4044569.95747  -3139057.54245  20984573.2344                   20984572.1844
   2298402.94947   1807979.80844  22716387.9454                   22716387.8404
 -10644747.17247  -8282385.82946  19881736.5234                   19881734.4574
  14991322.28145  11677163.68443  23343272.2034                   23343270.3954
 -15492015.34047 -12067595.75746  20917894.7734                   20917891.6054
  14631681.81846  11425366.55943  24442829.6884                   24442831.8014
    325510.37147    262382.27546  20447333.4224                   20447330.3054
   2982634.01646   2353460.51043  23830090.3834                   23830091.0274
 -12713293.07847  -9904195.80145  21858134.7504                   21858133.6174
  -2397547.26246  -1864814.59743  23772917.0164                   23772917.1374
 11  8  1 17 32 30.0000000  0 10G03G06G13G16G19G28G23G08G07G10
  -2520681.72747  -1951612.20145  21274559.1954                   21274558.4924
   3843455.38747   3011916.77544  23010401.2584                   23010400.6454
  -9165855.61747  -7130002.81246  20163160.2974                   20163158.2274
  16559929.21546  12899454.69143  23641767.0004                   23641766.4534
 -14042525.37947 -10938123.03146  21193723.5394                   21193720.5394
  16035881.04346  12519547.84843  24710039.8364                   24710041.4804
   1863848.81647   1461087.52346  20740069.4064                   20740066.2114
   4391290.75446   3451115.17543  24098149.2664                   24098148.6954
 -11291415.02747  -8796238.86445  22128709.1414                   22128708.2464
   -898639.63346   -696834.66743  24058149.7974                   24058150.6724
 11  8  1 17 33  0.0000000  0 10G03G06G13G16G19G28G23G08G07G10
  -2571739.48447  -1991397.47645  21264843.1484                   21264842.4344
   3813411.28547   2988505.79644  23004684.3594                   23004683.9614
  -9261900.58247  -7204843.05646  20144883.8834                   20144881.6484
  16553015.78146  12894067.54643  23640452.3444                   23640450.9184
 -14167975.25847 -11035876.15046  21169851.3674                   21169848.0984
  15864764.50446  12386210.44043  24677477.4384                   24677479.4064
   1827176.45347   1432511.60946  20733090.9064                   20733087.8244
   4224362.94146   3321041.58243  24066384.5944                   24066383.4694
 -11445012.18447  -8915924.93545  22099480.7894                   22099479.7424
   -974822.21546   -756197.80743  24043652.7584                   24043653.4964
 11  8  1 17 33 30.0000000  0 11G03G06G13G16G19G28G23G08G07G10G11
  -2622331.90647  -2030820.16345  21255215.9384                   21255215.0434
   3783680.82447   2965339.16544  22999026.7194                   22999026.4304
  -9357466.81647  -7279310.27346  20126697.9844                   20126695.9774
  16545992.11746  12888594.53043  23639116.5004                   23639114.2934
 -14292948.28147 -11133257.70546  21146069.6254                   21146066.3204
  15693749.73846  12252952.28643  24644933.8754                   24644936.2774
   1790904.50447   1404247.72446  20726189.0394                   20726185.4264
   4057267.64846   3190837.52443  24034586.7814                   24034587.6954
 -11598667.09847  -9035656.01845  22070241.0554                   22070239.3634
  -1050683.19546   -815310.30743  24029217.1884                   24029218.1214
  17086986.24215                  24840691.609
 11  8  1 17 34  0.0000000  0 11G03G06G13G16G19G28G23G08G07G10G11
  -2672466.68047  -2069886.23345  21245675.7504                   21245674.5204
   3754255.82847   2942410.57844  22993427.0634                   22993426.9414
  -9452559.57447  -7353408.53446  20108602.6564                   20108600.3484
  16538850.82446  12883029.84843  23637757.1024                   23637755.1414
 -14417449.18447 -11230271.37046  21122377.6334                   21122374.1884
  15522831.00046  12119769.09043  24612408.3984                   24612411.3524
   1755025.02347   1376289.66146  20719361.0234                   20719357.8794
   3889998.59446   3060498.04443  24002756.7034                   24002756.5824
 -11752385.09047  -9155436.26245  22040989.6804                   22040987.9844
  -1126230.41446   -874178.31843  24014841.0394                   24014841.7154
  16913372.91015                  24807653.961
 11  8  1 17 34 30.0000000  0 11G03G06G13G16G19G28G23G08G07G10G11
  -2722154.15247  -2108603.75645  21236220.1724                   21236219.4264
   3725126.03147   2919712.00444  22987883.5314                   22987883.3714
  -9547186.26247  -7427143.62746  20090595.5234                   20090593.5594
  16531582.14546  12877365.86943  23636373.9144                   23636371.8094
 -14541484.26247 -11326922.06946  21098774.9064                   21098771.5274
  15352000.53946  11986654.61043  24579900.9454                   24579903.0634
   1719528.68047   1348630.12146  20712606.4384                   20712603.1094
   3722547.94546   2930017.13143  23970892.2584                   23970891.4414
 -11906173.33647  -9275271.24645  22011724.4454                   22011723.1374
  -1201473.91446   -932809.71443  24000522.6024                   24000522.7274
  16739495.586 5                  24774566.617
 11  8  1 17 35  0.0000000  0 11G03G06G13G16G19G28G23G08G07G10G11
  -2771394.28547  -2146972.71145  21226850.1254                   21226849.3404
   3696291.05147   2897243.17644  22982397.3284                   22982396.9574
  -9641344.65647  -7500513.82846  20072677.6254                   20072675.7584
  16524185.84446  12871602.46643  23634966.5314                   23634965.2664
 -14665050.66847 -11423207.55746  21075261.0394                   21075257.3524
  15181260.66046  11853610.69243  24547410.1174                   24547412.1764
   1684415.42647   1321269.10846  20705924.6174                   20705921.6094
   3554917.57446   2799396.09843  23938992.7114                   23938992.5594
 -12060029.18747  -9395158.90745  21982446.5394                   21982445.2274
  -1276413.87146   -991204.52243  23986261.8594                   23986262.2464
  16565358.043 6                  24741429.414
 11  8  1 17 35 30.0000000  0 11G03G06G13G16G19G28G23G08G07G10G11
  -2820179.44147  -2184987.11045  21217566.7344                   21217565.9344
   3667757.81647   2875009.44344  22976966.7584                   22976966.7194
  -9735025.12947  -7573511.60346  20054850.8134                   20054849.2894
  16516669.79746  12865745.74543  23633536.5004                   23633534.5554
 -14788137.96147 -11519119.71546  21051837.9454                   21051835.2464
  15010620.81647  11720644.73843  24514938.5634                   24514940.4144
   1649692.91047   1294212.55546  20699317.4534                   20699313.9964
   3387116.75046   2668642.28843  23907060.9064                   23907060.5394
 -12213942.71947  -9515091.49945  21953158.0084                   21953156.7704
  -1351042.69946  -1049356.88743  23972060.8204                   23972061.5084
  16390971.89546  12803886.68452  24708245.3914                   24708249.6884
 11  8  1 17 36  0.0000000  0 11G03G06G13G16G19G28G23G08G07G10G11
  -2868504.66847  -2222643.14945  21208370.8984                   21208370.0824
   3639531.03947   2853014.51344  22971595.6644                   22971595.3324
  -9828220.25847  -7646131.19946  20037116.1644                   20037114.4414
  16509039.19946  12859799.78343  23632085.0394                   23632083.3014
 -14910737.81247 -11614652.07046  21028507.6024                   21028505.0164
  14840088.35246  11587762.37543  24482486.7274                   24482488.5164
   1615366.16847   1267464.39746  20692785.0084                   20692781.7464
   3219152.64146   2537761.19943  23875098.1724                   23875098.0944
 -12367906.33247  -9635063.12245  21923859.8984                   21923858.1094
  -1425355.34846  -1107262.94843  23957919.4454                   23957920.1604
  16216346.41246  12667815.16442  24675015.0394                   24675019.8204
 11  8  1 17 36 30.0000000  0 11G03G06G13G16G19G28G23G08G07G10G11
  -2916372.97347  -2259943.12245  21199261.6254                   21199261.0044
   3611607.49647   2831255.88244  22966282.1884                   22966281.8284
  -9920930.35947  -7718372.84546  20019474.2194                   20019472.4064
  16501291.43446  12853762.53443  23630609.7424                   23630608.2504
 -15032850.24247 -11709804.57546  21005270.5554                   21005267.4774
  14669662.91046  11454963.54443  24450055.0864                   24450058.0784
   1581432.48847   1241022.54045  20686327.8364                   20686324.8524
   3051024.45746   2406752.28343  23843103.9774                   23843104.7854
 -12521920.31247  -9755073.98645  21894551.1484                   21894550.3714
  -1499355.21146  -1164925.18243  23943838.1644                   23943839.0274
  16041483.02346  12531558.09643  24641739.3524                   24641745.2114
 11  8  1 17 37  0.0000000  0 11G03G06G13G16G19G28G23G08G07G10G11
  -2963782.37547  -2296885.51245  21190240.2734                   21190238.9064
   3583988.50047   2809734.53444  22961026.4224                   22961026.4734
 -10013151.50447  -7790233.49146  20001925.1884                   20001923.1994
  16493428.95746  12847635.87343  23629113.5554                   23629111.8444
 -15154470.19947 -11804573.35746  20982127.0084                   20982123.9224
  14499347.97746  11322250.72243  24417645.8054                   24417647.9964
   1547894.26647   1214888.81045  20679945.8134                   20679942.4104
   2882735.83646   2275618.34543  23811081.2974                   23811080.1644
 -12675979.87947  -9875120.39445  21865235.1334                   21865233.4694
  -1573040.24246  -1222342.16343  23929815.8984                   23929817.2424
  15866387.69846  12395120.41443  24608420.0164                   24608425.1174
 11  8  1 17 37 30.0000000  0 11G03G06G13G16G19G28G23G08G07G10G11
  -3010732.65247  -2333470.14645  21181305.9144                   21181304.8794
   3556674.35247   2788450.72544  22955829.2734                   22955828.3874
 -10104880.53947  -7861710.67946  19984469.5084                   19984467.6374
  16485451.96546  12841419.97943  23627595.4304                   23627594.1844
 -15275594.14847 -11898955.63146  20959078.1644                   20959075.0704
  14329146.53946  11189626.41343  24385257.8204                   24385259.4964
   1514751.77747   1189063.46746  20673638.6334                   20673635.7304
   2714289.52046   2144361.51543  23779025.9774                   23779026.3014
 -12830081.97747  -9995199.92045  21835910.7664                   21835908.8364
  -1646410.08646  -1279513.50943  23915854.1414                   23915854.5634
  15691065.03146  12258505.61743  24575057.2344                   24575061.6484
 11  8  1 17 38  0.0000000  0 11G03G06G13G16G19G28G23G08G07G10G11
  -3057222.22347  -2369695.77545  21172458.8834                   21172457.9494
   3529665.88747   2767405.15744  22950690.0314                   22950689.0664
 -10196114.14547  -7932801.81746  19967108.8204                   19967106.6604
  16477362.39846  12835116.34043  23626056.6804                   23626055.7504
 -15396217.64147 -11992947.95246  20936124.0554                   20936121.0314
  14159062.01646  11057093.18543  24352891.8754                   24352892.8594
   1482006.04347   1163547.26245  20667407.4924                   20667404.4064
   2545688.61746   2012984.30943  23746942.1484                   23746942.7274
 -12984222.62547 -10115309.49545  21806578.3054                   21806576.5594
  -1719463.32446  -1336438.17543  23901952.5634                   23901952.9614
  15515520.32446  12121717.84543  24541652.2894                   24541656.9804
 11  8  1 17 38 30.0000000  0 11G03G06G13G16G19G28G23G08G07G10G11
  -3103255.34047  -2405565.73545  21163699.0554                   21163698.1994
   3502958.74247   2746594.35444  22945607.3674                   22945607.4774
 -10286853.84047  -8003508.08746  19949841.3444                   19949839.5124
  16469156.79446  12828722.28943  23624494.6564                   23624493.9344
 -15516341.56647 -12086550.98746  20913264.9534                   20913262.0234
  13989092.74245  10924649.70742  24320547.8204                   24320547.7304
   1449654.12547   1138337.94246  20661250.9224                   20661248.0704
   2376931.55946   1881485.30943  23714828.8914                   23714829.0984
 -13138402.63747 -10235449.73345  21777239.3134                   21777236.9494
  -1792203.94546  -1393119.26543  23888110.8834                   23888111.0634
  15339754.24246  11984757.44343  24508204.2664                   24508209.1174
 11  8  1 17 39  0.0000000  0 11G03G06G13G16G19G28G23G08G07G10G11
  -3148830.35947  -2441078.74845  21155026.2274                   21155025.8594
   3476554.43447   2726019.52144  22940582.8364                   22940582.7154
 -10377095.73847  -8073826.46246  19932668.8594                   19932667.0204
  16460836.96946  12822239.25743  23622911.8674                   23622910.7584
 -15635961.28147 -12179761.13546  20890502.4454                   20890499.1334
  13819242.68846  10792299.21542  24288225.1954                   24288225.9024
   1417697.56347   1113436.67246  20655170.0004                   20655167.2624
   2208022.07046   1749867.59843  23682686.7734                   23682686.9144
 -13292617.73847 -10355617.34045  21747892.8984                   21747891.0474
  -1864630.42246  -1449555.48243  23874328.3204                   23874327.7624
  15163772.78546  11847629.30143  24474715.6254                   24474720.8484
 11  8  1 17 39 30.0000000  0 11G03G06G13G16G19G28G23G08G07G10G11
  -3193950.82847  -2476237.55745  21146440.4064                   21146439.4614
   3450449.29347   2705677.84744  22935615.1564                   22935615.1174
 -10466840.89147  -8143757.76646  19915590.8594                   19915588.7424
  16452400.54746  12815665.33943  23621306.9614                   23621305.6334
 -15755076.92247 -12272578.50146  20867835.4844                   20867832.2974
  13649510.84846  10660040.80743  24255926.7344                   24255927.6524
   1386132.94948   1088840.82446  20649163.9694                   20649160.5164
   2038958.98046   1618130.20743  23650514.8524                   23650514.9614
 -13446868.43047 -10475812.66545  21718539.9774                   21718538.3094
  -1936745.92646  -1505749.46943  23860605.3834                   23860605.3134
  14987576.89146  11710334.00743  24441187.0784                   24441191.4844
 11  8  1 17 40  0.0000000  0 11G03G06G13G16G19G28G23G08G07G10G11
  -3238602.36747  -2511030.96245  21137943.4694                   21137942.5314
   3424656.84047   2685579.76744  22930706.9614                   22930707.0984
 -10556072.83247  -8213289.16646  19898610.9534                   19898608.8244
  16443861.74646  12809011.68543  23619682.3284                   23619680.8284
 -15873671.43447 -12364989.80346  20845267.7974                   20845264.7854
  13479913.73446  10527887.34343  24223653.0554                   24223655.1094
   1354974.78548   1064561.68845  20643234.4694                   20643231.2384
   1869758.59846   1486285.80543  23618316.6414                   23618317.0164
 -13601137.53547 -10596022.34645  21689183.3054                   21689181.8634
  -2008536.53546  -1561690.20343  23846944.4774                   23846944.8164
  14811184.89146  11572885.90243  24407620.3914                   24407624.6804
 11  8  1 17 40 30.0000000  0 11G03G06G13G16G19G28G23G08G07G10G11
  -1707371.36347  -1317863.95745  21429327.1414                   21429326.1524
   4974589.86747   3893319.77244  23225649.8914                   23225649.0274
  -9069374.37147  -7054822.84046  20181520.3204                   20181518.1054
  18010633.49646  14029872.67043  23917828.5234                   23917827.4844
 -14416325.87547 -11229395.83446  21122591.1954                   21122588.1564
  14885870.89546  11623438.44542  24491198.0634                   24491199.7074
   2899636.10948   2268193.84345  20937174.0394                   20937170.8714
   3275840.61346   2581934.18243  23885885.7034                   23885885.2894
 -12180005.12147  -9488646.41445  21959615.7034                   21959614.4184
   -504588.23046   -389782.54343  24133136.1334                   24133137.0004
  16210019.41446  12662887.04343  24673809.4774                   24673813.4804
 11  8  1 17 41  0.0000000  0 11G03G06G13G16G19G28G23G08G07G10G11
  -1751102.47347  -1351940.15945  21421005.3984                   21421004.4924
   4949405.11747   3873695.23244  23220857.1484                   23220856.5124
  -9157590.24647  -7123562.49546  20164732.7194                   20164731.2114
  18001874.37546  14023047.34943  23916162.0474                   23916160.4734
 -14533886.52347 -11321001.52846  21100220.2194                   21100217.3954
  14716532.13346  11491486.32442  24458973.2664                   24458974.9304
   2869273.73048   2244534.80346  20931395.8914                   20931393.3444
   3106354.62946   2449867.21343  23853633.5314                   23853632.7034
 -12334319.80947  -9608891.60945  21930250.6644                   21930249.1724
   -575746.69146   -445230.71043  24119595.0554                   24119595.8554
  16033231.47346  12525130.34443  24640167.5554                   24640171.7344
 11  8  1 17 41 30.0000000  0 11G03G06G13G16G19G28G23G08G07G10G11
  -1794376.74247  -1385660.39545  21412770.5084                   21412769.7504
   4924520.48846   3854304.61744  23216121.4064                   23216121.3674
  -9245297.54347  -7191905.86146  20148042.9614                   20148041.0474
  17993003.03146  14016134.52643  23914473.4064                   23914472.7664
 -14650928.66447 -11412203.18446  21077947.7344                   21077945.3324
  14547323.12946  11359635.24642  24426774.3984                   24426774.9494
   2839306.55548   2221183.69946  20925693.3284                   20925690.3404
   2936726.59047   2317689.58643  23821354.1024                   23821354.2704
 -12488655.86347  -9729153.45045  21900881.7584                   21900879.9884
   -646591.75846   -500434.78443  24106113.6804                   24106113.8404
  15856249.32046  12387222.46942  24606489.7814                   24606493.1644
 11  8  1 17 42  0.0000000  0 11G03G06G13G16G19G28G23G08G07G10G11
  -1837197.61347  -1419027.33545  21404622.4304                   21404621.1454
   4899932.39546   3835145.03844  23211442.7584                   23211442.0474
  -9332498.00047  -7259854.27346  20131449.4064                   20131447.3984
  17984016.15646  14009131.70243  23912764.1644                   23912762.0864
 -14767452.94547 -11503001.29346  21055773.8754                   21055771.2384
  14378242.49646  11227884.11943  24394599.5084                   24394601.0044
   2809731.03548   2198137.79646  20920065.2664                   20920062.4734
   2766954.66447   2185399.82043  23789047.6644                   23789046.9414
 -12643014.00447  -9849432.49045  21871508.3444                   21871506.7194
   -717127.39146   -555397.65943  24092691.2194                   24092692.2814
  15679073.61346  12249163.68042  24572772.8444                   24572777.3914
 11  8  1 17 42 30.0000000  0 11G03G06G13G16G19G28G23G08G07G10G11
  -1879570.20747  -1452044.95945  21396558.5474                   21396557.6374
   4875635.23846   3816212.14544  23206819.4774                   23206818.7704
  -9419194.54347  -7327410.02146  20114951.5164                   20114949.5634
  17974909.14846  14002035.33843  23911031.5634                   23911029.2734
 -14883461.65247 -11593397.67746  21033698.2814                   21033695.4654
  14209287.36746  11096230.90843  24362448.2974                   24362449.7894
   2780542.16848   2175393.18245  20914511.1954                   20914508.0124
   2597036.21547   2052995.93643  23756713.3914                   23756712.6374
 -12797396.56647  -9969730.57745  21842130.1254                   21842128.9224
   -787358.90246   -610123.60043  24079326.7424                   24079327.3874
  15501703.55545  12110953.48442  24539020.2424                   24539024.6374
 11  8  1 17 43  0.0000000  0 11G03G06G13G16G19G28G23G08G07G10G11
  -1921499.02047  -1484716.79545  21388579.9064                   21388578.9414
   4851624.27346   3797502.24944  23202249.6094                   23202249.1764
  -9505388.93047  -7394574.50046  20098549.3594                   20098547.6644
  17965678.48046  13994842.61043  23909274.3364                   23909272.1564
 -14998956.02047 -11683393.28246  21011720.6884                   21011717.2854
  14040455.64846  10964673.81543  24330319.7974                   24330322.0744
   2751735.70348   2152946.52246  20909029.7584                   20909026.3324
   2426969.21546   1920476.22943  23724350.4614                   23724349.8794
 -12951804.54747 -10090048.47345  21812747.3594                   21812745.6294
   -857290.55146   -664615.77343  24066019.5554                   24066019.4774
  15324139.96545  11972592.46542  24505231.5554                   24505234.0784
 11  8  1 17 43 30.0000000  0 11G03G06G13G16G19G28G23G08G07G10G11
  -1962979.25847  -1517039.07645  21380686.6254                   21380685.8404
   4827904.23846   3779019.08344  23197736.2894                   23197736.3954
  -9591074.46548  -7461342.45546  20082244.0164                   20082241.9774
  17956329.69946  13987557.74943  23907495.6884                   23907493.3284
 -15113927.92647 -11772981.76146  20989842.3364                   20989839.0084
  13871754.69946  10833218.66743  24298217.5234                   24298219.2774
   2723316.67248   2130801.76645  20903621.8444                   20903618.4184
   2256760.87547   1787846.38543  23691960.8364                   23691960.5164
 -13106230.07847 -10210380.04145  21783361.0084                   21783359.4774
   -926917.66046   -718870.81843  24052768.9304                   24052770.5744
  15146391.36346  11834087.29342  24471406.2584                   24471409.7894
 11  8  1 17 44  0.0000000  0 11G03G06G13G16G19G28G23G08G07G10G11
  -2004014.37147  -1549014.51145  21372878.1954                   21372876.7234
   4804471.57446   3760759.79644  23193277.3914                   23193277.0594
  -9676251.68047  -7527714.31946  20066035.2814                   20066033.4224
  17946860.32846  13980179.01443  23905693.5864                   23905691.6134
 -15228378.09447 -11862163.68646  20968062.8444                   20968059.8794
  13703183.63746  10701864.68943  24266140.2034                   24266140.9694
   2695282.12548   2108956.60845  20898286.8134                   20898283.5204
   2086410.47746   1655105.83743  23659544.2344                   23659543.3444
 -13260673.46947 -10330725.52145  21753971.5314                   21753969.7034
   -996243.00446   -772890.56343  24039577.8984                   24039578.0084
  14968459.25446  11695439.18643  24437547.2664                   24437551.1484
 11  8  1 17 44 30.0000000  0 11G03G06G13G16G19G28G23G08G07G10G11
  -2044601.96947  -1580641.24445  21365154.2344                   21365153.5434
   4781328.52346   3742726.22343  23188872.8914                   23188873.1914
  -9760916.12547  -7593686.62046  20049923.9454                   20049922.2154
  17937273.46946  13972708.65043  23903868.9774                   23903867.8164
 -15342301.48047 -11950935.13246  20946384.0474                   20946380.8554
  13534746.98046  10570615.35943  24234086.9064                   24234088.3954
   2667634.48448   2087412.94845  20893025.8134                   20893022.6484
   1915922.66847   1522258.25943  23627101.5004                   23627101.0984
 -13415128.98447 -10451080.44745  21724579.3834                   21724577.5474
  -1065264.95346   -826673.99043  24026442.7814                   24026443.8054
  14790350.88345  11556653.56642  24403653.6804                   24403657.2274
 11  8  1 17 45  0.0000000  0 11G03G06G13G16G19G28G23G08G07G10G11
  -2084745.77347  -1611922.16045  21357515.2734                   21357514.4264
   4758470.66446   3724914.83943  23184523.6804                   23184523.4614
  -9845069.87548  -7659260.98846  20033909.8364                   20033908.3204
  17927565.76246  13965144.14143  23902021.7424                   23902020.0314
 -15455698.85547 -12039296.69946  20924805.2894                   20924801.8984
  13366443.16446  10439469.66543  24202059.9454                   24202061.8364
   2640369.83648   2066167.72446  20887837.4694                   20887834.3404
   1745295.91847   1389302.37543  23594632.3674                   23594631.7114
 -13569597.52747 -10571445.51945  21695185.2344                   21695183.7274
  -1133987.02346   -880223.71743  24013366.1094                   24013366.7344
  14612066.86745  11417731.17642  24369727.6094                   24369731.3444
 11  8  1 17 45 30.0000000  0 11G03G06G13G16G19G28G23G08G07G10G11
  -2124440.04747  -1642852.77245  21349961.5784                   21349960.9184
   4735903.99246   3707330.39943  23180229.1804                   23180228.8714
  -9928704.74647  -7724431.02746  20017995.2274                   20017993.2274
  17917744.23446  13957490.97543  23900153.1484                   23900151.1954
 -15568561.07847 -12127241.27446  20903328.3834                   20903325.4064
  13198280.59846  10308434.05343  24170059.1954                   24170061.5514
   2613494.30548   2045225.69146  20882723.3524                   20882720.8054
   1574538.94946   1256245.01743  23562137.9224                   23562137.7854
 -13724070.19147 -10691813.81145  21665790.1024                   21665788.2854
  -1202402.96546   -933534.97943  24000346.6334                   24000348.2774
  14433617.95746  11278680.30142  24335769.9614                   24335773.1954
 11  8  1 17 46  0.0000000  0 11G03G06G13G16G19G28G23G08G07G10G11
  -2163685.32047  -1673433.51345  21342493.4384                   21342492.6684
   4713627.63746   3689972.16543  23175990.6254                   23175990.0784
 -10011819.05547  -7789195.43046  20002178.9064                   20002177.1054
  17907808.85946  13949749.16543  23898262.8444                   23898260.3914
 -15680886.05547 -12214767.20646  20881953.1884                   20881950.7464
  13030260.88746  10177509.72443  24138086.3524                   24138087.4804
   2587007.51248   2024586.58946  20877683.1414                   20877680.0204
   1403653.48046   1123087.57743  23529620.2424                   23529619.5594
 -13878544.06647 -10812183.05045  21636394.3444                   21636392.6174
  -1270513.69946   -986608.30243  23987386.0004                   23987386.8674
  14255008.44546  11139504.25842  24301781.5234                   24301784.3954
 11  8  1 17 46 30.0000000  0 11G03G06G13G16G19G28G23G08G07G10G11
  -2202477.52347  -1703661.23645  21335112.0234                   21335111.0864
   4691645.95346   3672843.55844  23171807.4224                   23171807.5664
 -10094405.87947  -7853548.80746  19986463.1254                   19986461.3204
  17897764.85946  13941922.55843  23896351.1484                   23896349.0514
 -15792666.59047 -12301868.90446  20860682.0474                   20860678.9964
  12862391.03946  10046702.20343  24106141.3204                   24106143.0274
   2560914.16048   2004254.04145  20872717.9064                   20872714.5554
   1232646.68046    989835.56843  23497078.0234                   23497077.6254
 -14033011.33647 -10932547.14745  21607000.1414                   21606998.0274
  -1338314.96146  -1039440.58643  23974484.0234                   23974485.0084
  14076247.22346  11000210.01642  24267764.2504                   24267766.9264
 11  8  1 17 47  0.0000000  0 11G03G06G13G16G19G28G23G08G07G10G11
  -2240804.81647  -1733526.67245  21327818.3444                   21327817.4304
   4669970.23046   3655953.36843  23167682.8914                   23167682.3094
 -10176451.72747  -7917480.65846  19970850.1644                   19970848.7504
  17887625.06346  13934021.41243  23894421.9064                   23894420.0784
 -15903887.65647 -12388534.64046  20839517.3284                   20839514.3594
  12694685.09846   9916022.43743  24074227.9454                   24074229.4804
   2535225.80148   1984237.08646  20867829.4844                   20867826.5594
   1061532.25446    856499.72043  23464515.9844                   23464516.3284
 -14187457.21547 -11052894.56345  21577610.1484                   21577608.4614
  -1405794.93446  -1092022.45543  23961642.6884                   23961644.0514
  13897350.68846  10860810.32042  24233721.1644                   24233723.8834
 11  8  1 17 47 30.0000000  0 11G03G06G13G16G19G28G23G08G07G10G11
  -2278670.38347  -1763032.31945  21320612.7664                   21320612.0824
   4648597.33646   3639299.14344  23163615.5394                   23163615.1644
 -10257957.36347  -7980991.55846  19955340.5634                   19955338.2814
  17877387.16446  13926043.75743  23892473.4454                   23892471.8754
 -16014549.73047 -12474764.81946  20818458.9064                   20818455.9414
  12527142.35246   9785469.81843  24042344.8914                   24042347.1604
   2509939.93848   1964533.76146  20863017.6884                   20863014.8834
    890310.34446    723080.08043  23431933.8754                   23431932.8634
 -14341881.34847 -11173225.04645  21548224.2734                   21548222.4804
  -1472956.65646  -1144356.29843  23948861.7114                   23948863.7664
  13718320.44546  10721306.42443  24199652.4454                   24199655.7624
 11  8  1 17 48  0.0000000  0 11G03G06G13G16G19G28G23G08G07G10G11
   -740654.99647   -564578.80545  21613286.5704                   21613286.9184
   6202945.62546   4850479.58944  23459398.6954                   23459398.5044
  -8763499.85947  -6816479.23346  20239726.2424                   20239724.6134
  19442470.38746  15145589.05943  24190298.2194                   24190297.5554
 -14549228.36747 -11332955.94846  21097300.7504                   21097297.3754
  13935188.62146  10882648.91043  24310287.5634                   24310289.5314
   4060475.19948   3172743.00445  21158074.7584                   21158071.7854
   2294406.96146   1817181.38143  23699124.2344                   23699123.5594
 -12920857.95347 -10065934.06945  21818636.1884                   21818634.4844
     35620.12546     31157.95543  24235934.6884                   24235935.9104
  15114585.39846  11809305.27443  24465354.1484                   24465355.8014
 11  8  1 17 48 30.0000000  0 11G03G06G13G16G19G28G23G08G07G10G11
   -777593.63347   -593362.18645  21606258.4064                   21606257.6414
   6182181.34046   4834299.61544  23455446.6954                   23455446.5354
  -8843914.83647  -6879140.26946  20224423.9924                   20224421.8594
  19432042.87546  15137463.68043  24188314.8674                   24188313.3674
 -14658760.40247 -11418305.57846  21076457.3444                   21076453.9104
  13767982.85546  10752358.82443  24278469.7504                   24278470.9844
   4035997.89548   3153669.72945  21153417.1254                   21153413.8244
   2122981.12946   1683602.86343  23666502.3054                   23666502.4614
 -13075225.72347 -10186220.64145  21789261.1334                   21789259.0514
    -30901.40246    -20677.08843  24223276.5704                   24223277.1954
  14935306.12546  11669607.38043  24431236.6024                   24431239.8754
 11  8  1 17 49  0.0000000  0 11G03G06G13G16G19G28G23G08G07G10G11
   -814063.74247   -621780.47345  21599318.7114                   21599317.1914
   6161726.44946   4818360.74044  23451554.1414                   23451553.6454
  -8923776.36747  -6941370.04046  20209226.6024                   20209224.7194
  19421527.05946  15129269.46643  24186313.8834                   24186312.7894
 -14767718.00047 -11503207.58646  21055723.5944                   21055720.2774
  13600954.35546  10622206.85743  24246684.4694                   24246686.0664
   4011930.16048   3134915.58745  21148837.0474                   21148834.0664
   1951462.48446   1549952.01843  23633863.8754                   23633863.8594
 -13229554.94547 -10306477.15845  21759893.1024                   21759891.5664
    -97097.72746    -72258.68843  24210679.6954                   24210681.2154
  14755914.79346  11529822.12943  24397099.6024                   24397103.3954
 11  8  1 17 49 30.0000000  0 11G03G06G13G16G19G28G23G08G07G10G11
   -850074.72747   -649841.00445  21592465.0234                   21592464.8984
   6141570.77346   4802655.00744  23447719.1644                   23447718.8954
  -9003092.00447  -7003174.45446  20194133.8364                   20194131.4264
  19410914.29746  15120999.68143  24184293.8524                   24184292.9734
 -14876107.99647 -11587667.31846  21035097.5084                   21035094.4964
  13434095.76246  10492187.43243  24214931.6174                   24214934.2114
   3988262.47348   3116473.17345  21144333.3754                   21144330.5664
   1779843.91846   1416223.29943  23601205.3524                   23601205.5704
 -13383852.06247 -10426708.66245  21730531.3444                   21730529.9574
   -162978.44946   -123594.44143  24198142.5394                   24198144.2584
  14576406.26646  11389945.49543  24362940.3364                   24362943.3094
 11  8  1 17 50  0.0000000  0 11G03G06G13G16G19G28G23G08G07G10G11
   -885623.21147   -677541.15045  21585700.5004                   21585699.6914
   6121717.97346   4787185.25244  23443941.6254                   23443941.2304
  -9081855.60547  -7064548.70646  20179145.1954                   20179143.4964
  19400209.16046  15112657.99343  24182256.3984                   24182256.4924
 -14983923.97347 -11671679.75146  21014581.0554                   21014577.7624
  13267413.01946  10362304.90543  24183213.8984                   24183215.2774
   3964998.64848   3098345.46945  21139906.1644                   21139903.3324
   1608131.57046   1282421.52843  23568530.2114                   23568530.0514
 -13538110.17247 -10546909.75845  21701176.9924                   21701175.1954
   -228539.91846   -174681.43843  24185666.9694                   24185668.3714
  14396789.02347  11249984.27143  24328761.3284                   24328764.2114
 11  8  1 17 50 30.0000000  0 11G03G06G13G16G19G28G23G08G07G10G11
   -920698.58647   -704872.65645  21579026.0394                   21579025.8954
   6102178.68046   4771959.77944  23440222.6644                   23440223.0394
  -9160054.74647  -7125483.13146  20164264.3674                   20164262.2974
  19389423.63746  15104253.63043  24180204.2664                   24180203.5204
 -15091152.41447 -11755234.38046  20994175.6564                   20994172.6334
  13100919.47746  10232569.81843  24151531.2894                   24151532.8524
   3942149.80148   3080541.11545  21135558.5704                   21135555.2974
   1436339.15246   1148557.36343  23535838.6094                   23535838.6764
 -13692314.57047 -10667069.04745  21671832.8284                   21671831.3954
   -293771.49246   -225511.23143  24173253.7974                   24173255.3484
  14217079.08247  11109950.63443  24294563.1804                   24294565.8324
 11  8  1 17 51  0.0000000  0 11G03G06G13G16G19G28G23G08G07G10G11
   -955308.86347   -731841.72745  21572440.2734                   21572439.3164
   6082944.93446   4756972.41344  23436563.3204                   23436562.4844
  -9237695.32447  -7185982.29346  20149490.3204                   20149488.1334
  19378551.03946  15095781.44243  24178135.8364                   24178134.5824
 -15197798.32047 -11838335.06746  20973881.7894                   20973878.5634
  12934609.81346  10102978.00843  24119883.2504                   24119884.4964
   3919708.16048   3063054.07645  21131287.7344                   21131284.9144
   1264461.69146   1014626.90343  23503131.9694                   23503131.5354
 -13846469.79747 -10787189.97745  21642497.7734                   21642496.0594
   -358681.03146   -276090.20643  24160901.6644                   24160903.5784
  14037273.65646  10969842.76543  24260347.1334                   24260349.5824
 11  8  1 17 51 30.0000000  0 11G03G06G13G16G19G28G23G08G07G10G11
   -989450.62147   -758445.73845  21565943.2034                   21565942.4454
   6064020.12546   4742225.74944  23432961.5784                   23432961.7074
  -9314771.80547  -7246041.91846  20134822.7424                   20134820.7304
  19367595.54346  15087244.68243  24176050.3054                   24176050.2544
 -15303855.48447 -11920977.00546  20953699.6414                   20953696.3204
  12768489.73446   9973533.91443  24088272.1254                   24088271.8134
   3897677.05148   3045886.92345  21127095.4224                   21127092.7974
   1092505.50846    880635.16843  23470409.6174                   23470409.3714
 -14000569.17647 -10907267.42445  21613173.6954                   21613171.8984
   -423264.94146   -326415.41643  24148612.6954                   24148613.3054
  13857380.96146  10829666.88643  24226113.7734                   24226117.1884
 11  8  1 17 52  0.0000000  0 11G03G06G13G16G19G28G23G08G07G10G11
  -1023121.30147   -784682.64845  21559536.0394                   21559535.4924
   6045406.59446   4727721.67444  23429419.7274                   23429419.8164
  -9391279.50047  -7305658.31646  20120263.6414                   20120262.1254
  19356561.00846  15078646.24243  24173951.1884                   24173949.8204
 -15409318.72347 -12003156.12946  20933630.8594                   20933627.3404
  12602564.25846   9844241.48743  24056696.8674                   24056697.9184
   3876059.28948   3029041.86745  21122981.9384                   21122978.9304
    920475.66446    746585.95144  23437673.3754                   23437673.3674
 -14154606.60947 -11027296.58045  21583861.0784                   21583859.9304
   -487520.81246   -376484.97943  24136384.3134                   24136386.5314
  13677408.23446  10689428.57843  24191865.8834                   24191868.8444
 11  8  1 17 52 30.0000000  0 11G03G06G13G16G19G28G23G08G07G10G11
  -1056324.39147   -810555.20844  21553217.2974                   21553216.4774
   6027100.68446   4713457.30643  23425936.6484                   23425936.0234
  -9467219.59847  -7364832.44146  20105812.9224                   20105811.0784
  19345445.10646  15069984.43043  24171836.3754                   24171834.7114
 -15514188.66447 -12084872.94646  20913674.5864                   20913671.3054
  12436832.16046   9715099.76343  24025159.1954                   24025160.1914
   3854851.59048   3012516.32645  21118945.8834                   21118943.3914
    748371.55946    612478.91943  23404922.8134                   23404922.8594
 -14308582.11747 -11147277.47845  21554560.5784                   21554559.0004
   -551451.99646   -426301.61343  24124219.3674                   24124221.0634
  13497357.14846  10549129.22643  24157602.6334                   24157606.1844
 11  8  1 17 53  0.0000000  0 11G03G06G13G16G19G28G23G08G07G10G11
  -1089054.30547   -836059.03144  21546988.8674                   21546988.0784
   6009108.10946   4699437.09243  23422511.9844                   23422511.4144
  -9542584.45347  -7423558.33846  20091471.6804                   20091469.8244
  19334254.92646  15061264.71343  24169707.2504                   24169704.8244
 -15618457.06247 -12166121.03046  20893833.5554                   20893829.8404
  12271301.68446   9586115.17543  23993658.5634                   23993660.2154
   3834059.61348   2996314.73745  21114989.2424                   21114986.8554
    576201.60946    478320.54844  23372160.3754                   23372160.0904
 -14462486.37147 -11267202.84845  21525273.8054                   21525272.2344
   -615052.64546   -475860.60043  24112116.8284                   24112118.5824
  13317238.69146  10408777.46543  24123326.9224                   24123330.5004
 11  8  1 17 53 30.0000000  0 11G03G06G13G16G19G28G23G08G07G10G11
  -1121310.50847   -861193.77944  21540851.2274                   21540850.4614
   5991429.44946   4685661.48843  23419148.1254                   23419148.2114
  -9617371.12547  -7481833.67746  20077240.0394                   20077238.1804
  19322992.10546  15052488.46543  24167563.6644                   24167561.9534
 -15722120.54347 -12246897.75046  20874106.5474                   20874103.3244
  12105975.67646   9457289.84243  23962198.8524                   23962199.4924
   3813683.95348   2980437.53145  21111112.2664                   21111109.7074
    403969.34046    344113.61444  23339385.6954                   23339385.3794
 -14616315.33647 -11387069.54845  21496001.0864                   21495999.1764
   -678322.43446   -525161.91743  24100076.8204                   24100078.4304
  13137058.22346  10268377.30043  24089040.4614                   24089043.2584
 11  8  1 17 54  0.0000000  0 11G03G06G13G16G19G28G23G08G07G10G11
  -1153084.84447   -885953.00444  21534804.7424                   21534804.2304
   5974072.39846   4672136.43044  23415845.6414                   23415845.6254
  -9691570.54747  -7539651.43646  20063120.5084                   20063118.4774
  19311665.96546  15043662.87142  24165407.4924                   24165406.5664
 -15825168.41047 -12327194.77646  20854497.3914                   20854493.9734
  11940865.10546   9328632.36343  23930779.3204                   23930779.8444
   3793733.28948   2964891.50445  21107315.7424                   21107313.2074
    231685.93047    209866.86144  23306601.2664                   23306601.0784
 -14770057.04747 -11506868.26245  21466745.1024                   21466743.5204
   -741253.16446   -574198.89743  24088101.6804                   24088103.4024
  12956828.73846  10127939.00543  24054743.3444                   24054746.5664
 11  8  1 17 54 30.0000000  0 11G03G06G13G16G19G28G23G08G07G10G11
  -1184394.43447   -910350.10644  21528846.7424                   21528845.8554
   5957020.43846   4658849.13243  23412600.2734                   23412600.2814
  -9765197.16847  -7597022.85346  20049109.6804                   20049107.6644
  19300261.02345  15034775.86742  24163237.7424                   24163236.1724
 -15927614.72747 -12407023.05046  20835002.1644                   20834998.9614
  11775955.21946   9200131.25943  23899397.0234                   23899399.0394
   3774190.74648   2949663.49345  21103597.0164                   21103594.4654
     59337.62547     75569.54244  23273804.3364                   23273803.7074
 -14923724.80947 -11626609.37145  21437503.0944                   21437501.5514
   -803861.62546   -622984.75043  24076187.4224                   24076188.6564
  12776538.81346   9987453.59743  24020435.6884                   24020438.1684
 11  8  1 17 55  0.0000000  0 11G03G06G13G16G19G28G23G08G07G10G11
  -1215237.58247   -934383.71944  21522977.0004                   21522976.0984
   5940274.91046   4645800.66743  23409413.8204                   23409414.0124
  -9838247.36747  -7653945.09546  20035208.7734                   20035206.8554
  19288780.09845  15025829.56642  24161052.6254                   24161051.4964
 -16029455.52347 -12486379.49446  20815622.5004                   20815619.2384
  11611249.82846   9071789.55943  23868055.3444                   23868056.5744
   3755057.79748   2934754.63245  21099956.0944                   21099953.6174
   -113071.57447    -58775.21444  23240995.5944                   23240996.1374
 -15077313.49647 -11746288.84845  21408276.3284                   21408274.5634
   -866146.30146   -671518.37943  24064335.6094                   24064336.7384
  12596194.95346   9846926.09943  23986116.6024                   23986119.5394
 11  8  1 17 55 30.0000000  0 11G03G06G13G16G19G28G23G08G07G10G11
  -1245614.37947   -958053.95745  21517196.7974                   21517196.1024
   5923835.84046   4632990.94843  23406285.8054                   23406285.0314
  -9910719.17647  -7710416.66646  20021417.8984                   20021415.6334
  19277224.56645  15016825.22342  24158853.2504                   24158852.9574
 -16130687.66847 -12565261.66346  20796358.3134                   20796355.6334
  11446751.69546   8943609.36743  23836752.6024                   23836753.8364
   3736334.78948   2920165.21545  21096393.7664                   21096390.8874
   -285538.55147   -193165.05144  23208176.8134                   23208176.2344
 -15230819.48048 -11865903.89645  21379064.6954                   21379063.0474
   -928106.85246   -719799.35843  24052544.6724                   24052546.6054
  12415802.37546   9706360.75943  23951789.0084                   23951791.6564
 11  8  1 17 56  0.0000000  0 11G03G06G13G16G19G28G23G08G07G10G11
    299891.85247    246236.61845  21811297.0864                   21811296.5004
   7483119.46546   5848017.12643  23703008.1644                   23703007.1564
  -8407192.05547  -6538837.11246  20307529.4844                   20307527.5314
  20841011.79345  16235360.61342  24456432.7894                   24456431.2774
 -14655889.89147 -11416068.58646  21077003.5474                   21077000.4184
  12857884.62546  10043193.63643  24105281.1884                   24105282.2774
   5293438.26248   4133492.54645  21392700.3914                   21392697.8284
   1117361.56647    900003.92944  23475139.4924                   23475139.2814
 -13808818.32047 -10757851.03245  21649662.6804                   21649660.7304
    585674.53146    459770.41843  24340607.6094                   24340609.8164
  13810787.91446  10793362.66643  24217246.6174                   24217248.5274
 11  8  1 17 56 30.0000000  0 11G03G06G13G16G19G28G23G08G07G10G11
    270434.02347    223282.45144  21805691.3284                   21805690.0704
   7467279.55946   5835674.32343  23699993.6334                   23699993.2664
  -8478513.94547  -6594412.63946  20293957.3364                   20293955.5124
  20829297.25046  16226232.35242  24454204.5164                   24454202.4534
 -14755911.27347 -11494007.31646  21057969.9694                   21057966.5354
  12693794.98846   9915331.70743  24074056.5314                   24074057.0904
   5275522.15248   4119531.87145  21389291.2584                   21389288.6054
    944775.07447    765521.00144  23442297.6334                   23442297.1174
 -13962161.26247 -10877339.01645  21620482.3444                   21620480.3404
    524348.58646    411983.88243  24328937.4694                   24328940.1094
  13630299.84446  10652722.83343  24182899.5554                   24182902.9534
 11  8  1 17 57  0.0000000  0 11G03G06G13G16G19G28G23G08G07G10G11
    241429.07047    200681.16244  21800171.8284                   21800171.4414
   7451733.31346   5823560.31743  23697035.3134                   23697034.5004
  -8549264.52347  -6649542.98346  20280494.0864                   20280492.1804
  20817499.44946  16217039.18042  24451959.1804                   24451957.8594
 -14855329.23047 -11571475.83946  21039051.3204                   21039048.3674
  12529907.12546   9787627.01543  24042869.2974                   24042870.3524
   5258003.63748   4105881.01845  21385957.7734                   21385955.3594
    772127.18047    630990.20744  23409443.7734                   23409443.0234
 -14115423.04747 -10996763.77445  21591317.4454                   21591315.8554
    463334.33246    364440.21643  24317326.9064                   24317329.6994
  13449765.90246  10512047.24243  24148545.3524                   24148547.5864
 11  8  1 17 57 30.0000000  0 11G03G06G13G16G19G28G23G08G07G10G11
    212872.04347    178428.91344  21794737.9064                   21794737.1604
   7436475.02346   5811670.70643  23694131.2194                   23694131.5744
  -8619447.44147  -6704230.99046  20267138.7974                   20267136.8914
  20805614.29346  16207777.96542  24449697.4534                   24449696.1094
 -14954146.85547 -11648476.58046  21020246.7734                   21020243.7664
  12366218.02746   9660077.17843  24011720.8134                   24011721.1564
   5240877.30148   4092535.75745  21382698.1644                   21382696.1024
    599415.40647    496409.66144  23376577.8834                   23376576.7194
 -14268605.55947 -11116126.76945  21562168.1334                   21562166.3714
    402625.75746    317134.76943  24305775.1954                   24305777.0394
  13269185.67246  10371335.57943  24114182.3054                   24114183.9774
 11  8  1 17 58  0.0000000  0 11G03G06G13G16G19G28G23G08G07G10G11
    184757.19147    156521.22744  21789387.7894                   21789387.0234
   7421499.25046   5800001.23843  23691281.9924                   23691281.7114
  -8689066.05147  -6758479.27446  20253890.9694                   20253888.8524
  20793637.45746  16198445.31243  24447418.5944                   24447417.0554
 -15052366.90247 -11725011.67646  21001556.5704                   21001553.1804
  12202724.36346   9532679.70943  23980608.1094                   23980609.7504
   5224137.69148   4079491.84745  21379513.1024                   21379510.7384
    426637.30547    361777.41144  23343698.7344                   23343698.3444
 -14421710.35947 -11235429.18645  21533033.2114                   21533031.4224
    342217.57846    270063.35443  24294278.8284                   24294282.1414
  13088558.59046  10230587.33243  24079809.1564                   24079811.5354
 11  8  1 17 58 30.0000000  0 11G03G06G13G16G19G28G23G08G07G10G11
    157084.30947    134957.92744  21784121.4064                   21784120.6994
   7406805.71546   5788551.73043  23688486.1094                   23688484.8484
  -8758118.81647  -6812286.64446  20240750.4924                   20240748.3674
  20781570.30146  16189042.26743  24445121.7734                   24445120.5084
 -15149987.18047 -11801079.39346  20982979.6174                   20982976.4884
  12039428.73446   9405436.49543  23949534.1094                   23949535.3524
   5207784.44948   4066748.99745  21376401.0944                   21376398.5904
    253796.25447    227096.14044  23310808.1954                   23310807.6884
 -14574734.14847 -11354668.47645  21503913.9224                   21503912.2194
    282109.42646    223225.67943  24282840.9924                   24282843.8204
  12907889.94946  10089806.79643  24045429.6954                   24045431.7114
 11  8  1 17 59  0.0000000  0 11G03G06G13G16G19G28G23G08G07G10G11
    129849.23847    113735.76944  21778939.3914                   21778938.4654
   7392390.79346   5777319.26943  23685742.3284                   23685742.3594
  -8826607.45747  -6865654.43546  20227717.6954                   20227715.6454
  20769410.04746  16179566.67043  24442808.0474                   24442807.0004
 -15247009.00447 -11876680.80246  20964517.0234                   20964514.0354
  11876329.82846   9278346.50743  23918497.3984                   23918498.2584
   5191814.51648   4054304.82545  21373362.2114                   21373359.5904
     80891.17247     92364.95244  23277905.7194                   23277904.8954
 -14727676.64847 -11473844.45246  21474809.8984                   21474808.2504
    222297.76246    176619.12443  24271459.9454                   24271461.5634
  12727181.28546   9948995.08343  24011041.5314                   24011043.4414
 11  8  1 17 59 30.0000000  0 11G03G06G13G16G19G28G23G08G07G10G11
    103046.90247     92850.79544  21773838.7814                   21773837.7544
   7378248.84046   5766299.50543  23683051.1724                   23683051.7424
  -8894535.86747  -6918585.69246  20214791.0004                   20214789.0864
  20757153.23846  16170015.84143  24440475.7344                   24440474.3984
 -15343435.39147 -11951818.22646  20946167.5234                   20946164.5124
  11713424.32846   9151407.26343  23887497.7664                   23887498.0864
   5176222.23847   4042154.93145  21370395.3674                   21370392.4304
    -92080.41447    -42418.06644  23244990.0004                   23244989.4144
 -14880539.78147 -11592958.57346  21445721.1804                   21445719.3554
    162777.14146    130239.33243  24260133.7504                   24260136.0824
  12546432.27346   9808151.87043  23976646.3364                   23976648.3754
 11  8  1 18  0  0.0000000  0 11G03G06G13G16G19G28G23G08G07G10G11
     76677.98447     72303.54444  21768821.0004                   21768819.9654
   7364380.95346   5755493.34743  23680412.3984                   23680412.5744
  -8961900.98847  -6971077.98746  20201972.1024                   20201970.3284
  20744802.62546  16160391.94143  24438125.5784                   24438124.2504
 -15439262.89847 -12026488.99546  20927932.1884                   20927929.1254
  11550716.00846   9024621.71643  23856535.2734                   23856536.3634
   5161008.48848   4030300.01245  21367500.3134                   21367497.8134
   -265114.20347   -177249.53844  23212062.9304                   23212062.2034
 -15033318.64847 -11712006.99045  21416647.9774                   21416646.0984
    103548.57046     84087.13343  24248862.3444                   24248864.7074
  12365649.35546   9667282.20043  23942244.0784                   23942245.9104
 11  8  1 18  0 30.0000000  0 11G03G06G13G16G19G28G23G08G07G10G11
     50734.14147     52087.51544  21763884.0864                   21763883.3134
   7350778.91446   5744894.28243  23677824.3594                   23677824.4024
  -9028709.46547  -7023136.57846  20189258.8834                   20189257.0164
  20732351.11346  16150689.39443  24435756.4224                   24435754.9344
 -15534497.28947 -12100697.61446  20909809.9614                   20909806.5004
  11388198.72346   8897984.97543  23825609.3054                   23825609.4924
   5146165.27747   4018733.79645  21364675.5784                   21364673.0394
   -438215.13747   -312133.35043  23179122.4454                   23179121.9614
 -15186017.64847 -11830993.22445  21387590.2664                   21387588.4064
     44603.65646     38155.89743  24237646.3674                   24237648.3324
  12184829.37146   9526383.73243  23907834.6484                   23907837.3364
 11  8  1 18  1  0.0000000  0 11G03G06G13G16G19G28G23G08G07G10G11
     25210.35947     32198.81544  21759027.4924                   21759026.4844
   7337437.53546   5734498.36943  23675285.7114                   23675285.3984
  -9094964.96947  -7074764.25646  20176650.8204                   20176649.0634
  20719794.72346  16140905.10343  24433366.9614                   24433366.1804
 -15629141.27047 -12174446.16646  20891799.7974                   20891796.5554
  11225869.92646   8771495.15243  23794718.7734                   23794719.2774
   5131687.66048   4007452.45345  21361920.6564                   21361918.0084
   -611385.21947   -447071.05044  23146169.1024                   23146168.6414
 -15338637.91847 -11949918.10746  21358547.5944                   21358545.7734
    -14062.39546     -7557.97343  24226482.0784                   24226484.1094
  12003972.56346   9385456.46043  23873419.4454                   23873421.0004
 11  8  1 18  1 30.0000000  0 11G03G06G13G16G19G28G23G08G07G10G11
       107.54347     12638.19444  21754250.1334                   21754249.3754
   7324358.18846   5724306.61143  23672796.7274                   23672796.9344
  -9160664.00847  -7125958.32446  20164148.6174                   20164146.9264
  20707136.84846  16131041.76543  24430958.4304                   24430957.6914
 -15723191.05147 -12247731.69646  20873902.6954                   20873898.8874
  11063733.69146   8645155.26743  23763864.5634                   23763865.6764
   5117577.17647   3996457.19445  21359235.6564                   21359233.2544
   -784620.02747   -582059.17844  23113203.8204                   23113203.2974
 -15491174.26247 -12068777.60246  21329520.8984                   21329518.9774
    -72448.37546    -53053.62643  24215371.2034                   24215374.2304
  11823085.85246   9244505.96043  23838997.6884                   23838999.6564
 11  8  1 18  2  0.0000000  0 11G03G06G13G16G19G28G23G08G07G10G11
    -24577.44947     -6596.89644  21749552.7114                   21749552.0354
   7311537.85546   5714316.69743  23670356.6414                   23670356.9304
  -9225808.08247  -7176719.96446  20151752.2894                   20151750.4144
  20694375.89546  16121098.10243  24428529.6174                   24428529.3134
 -15816647.44947 -12320554.86746  20856118.6334                   20856115.0824
  10901788.97746   8518964.71443  23733048.0004                   23733048.4024
   5103830.50047   3985745.43445  21356619.6174                   21356617.1134
   -957919.57447   -717097.74843  23080226.0554                   23080225.6454
 -15643625.85547 -12187571.03345  21300510.4384                   21300508.5704
   -130557.40646    -98333.49643  24204313.7584                   24204316.2274
  11642170.95746   9103533.46843  23804569.9844                   23804572.4534
 11  8  1 18  2 30.0000000  0 11G03G06G13G16G19G28G23G08G07G10G11
    -48851.78947    -25512.05144  21744933.4694                   21744932.7034
   7298969.52046   5704523.15043  23667964.7034                   23667965.8954
  -9290402.37547  -7227053.19446  20139460.6334                   20139458.8134
  20681506.06346  16111069.63343  24426081.0634                   24426079.3954
 -15909515.09847 -12392919.25646  20838446.2034                   20838443.2304
  10740031.12146   8392919.73943  23702266.7664                   23702267.0204
   5090440.80547   3975311.83345  21354071.9454                   21354069.8364
  -1131287.38747   -852189.52644  23047235.1564                   23047234.2114
 -15795996.05547 -12306301.04846  21271514.9224                   21271513.3984
   -188396.34046   -143402.89443  24193308.3364                   24193310.3984
  11461226.56346   8962537.99843  23770137.7664                   23770139.4614
 11  8  1 18  3  0.0000000  0 11G03G06G13G16G19G28G23G08G07G10G11
    -72713.26647    -44105.37444  21740393.3594                   21740392.3134
   7286655.03146   5694927.41843  23665621.1954                   23665622.0234
  -9354443.40647  -7276955.30246  20127273.8444                   20127272.1954
  20668531.20746  16100959.28243  24423612.0704                   24423609.9414
 -16001789.75847 -12464821.58646  20820886.6484                   20820883.7854
  10578464.46146   8267023.71943  23671521.6564                   23671521.5704
   5077410.07447   3965157.93245  21351592.5704                   21351589.9454
  -1304718.41047   -987330.51444  23014232.9304                   23014231.8794
 -15948278.96147 -12424963.04346  21242536.9384                   21242535.1454
   -245963.46146   -188260.48143  24182353.2584                   24182355.0554
  11280259.90246   8821525.15443  23735700.7664                   23735702.3094
 11  8  1 18  3 30.0000000  0 11G03G06G13G16G19G28G23G08G07G10G11
    -96165.35247    -62379.75244  21735929.8674                   21735929.1604
   7274591.43046   5685527.14943  23663326.4614                   23663326.4264
  -9417932.25047  -7326427.15646  20115192.1254                   20115190.7544
  20655450.02045  16090766.09442  24421122.3054                   24421120.7934
 -16093472.31647 -12536262.53746  20803440.7194                   20803437.5354
  10417088.87546   8141276.66043  23640812.2344                   23640812.3444
   5064735.32847   3955281.42145  21349180.7664                   21349178.3634
  -1478212.21147  -1122520.42044  22981217.8834                   22981217.0704
 -16100473.59047 -12543556.22146  21213575.0234                   21213573.7234
   -303261.55146   -232908.41943  24171450.2894                   24171451.6024
  11099273.48046   8680496.91843  23701260.0554                   23701262.4574
 11  8  1 18  4  0.0000000  0 11G03G06G13G16G19G28G23G08G07G10G11
   1456196.96147   1147253.19044  22031334.5234                   22031333.9144
   8838183.28146   6903910.40143  23960867.8594                   23960867.8244
  -7905461.59047  -6147878.61946  20403005.6724                   20403003.9264
  22217668.42245  17308079.05142  24718402.9454                   24718402.1684
 -14609153.49247 -11379650.47146  21085896.5554                   21085893.4224
  11831315.83246   9243271.77843  23909930.8524                   23909931.5784
   6627820.85547   5173270.06545  21646626.2814                   21646623.3164
    -76355.77347    -30164.76844  23247982.2814                   23247981.6724
 -14677167.03147 -11434486.17246  21484421.1414                   21484419.4064
   1215115.15246    950242.18843  24460387.4384                   24460389.7504
  12493682.43046   9767049.51543  23966607.0474                   23966608.6764
 11  8  1 18  4 30.0000000  0 11G03G06G13G16G19G28G23G08G07G10G11
   1433541.95747   1129599.91044  22027024.0004                   22027023.0784
   8826600.11346   6894884.48943  23958664.2814                   23958663.6994
  -7967863.19547  -6196503.25746  20391131.0944                   20391129.5744
  22204357.84445  17297707.08642  24715869.0634                   24715868.5744
 -14699666.38347 -11450179.98246  21068672.8364                   21068669.7074
  11670307.62146   9117810.99143  23879291.5554                   23879292.4574
   6615836.65247   5163931.65245  21644345.5864                   21644342.9614
   -249986.75047   -165461.54744  23214941.3984                   23214940.6254
 -14829194.66847 -11552949.24346  21455491.5084                   21455489.7424
   1158333.21946    905996.36743  24449583.1414                   24449584.5434
  12312650.61746   9625985.99043  23932158.2424                   23932159.7624
 11  8  1 18  5  0.0000000  0 11G03G06G13G16G19G28G23G08G07G10G11
   1411283.05547   1112255.28145  22022787.9304                   22022787.2504
   8815255.21546   6886044.23343  23956505.4924                   23956505.1994
  -8029720.82847  -6244704.03646  20379360.5314                   20379358.7074
  22190932.84845  17287246.01242  24713315.2894                   24713313.9264
 -14789593.18747 -11520252.80646  21051560.6724                   21051557.0274
  11509484.60546   8992494.50543  23848688.4454                   23848688.1844
   6604195.66447   5154860.67645  21642130.3594                   21642127.7624
   -423683.57847   -300809.69044  23181887.9694                   23181887.3444
 -14981135.04747 -11671344.33946  21426578.1644                   21426576.2664
   1101807.33246    861950.14943  24438825.3284                   24438827.9384
  12131602.69546   9484909.78243  23897705.3834                   23897707.4964
 11  8  1 18  5 30.0000000  0 11G03G06G13G16G19G28G23G08G07G10G11
   1389411.19947   1095212.24944  22018625.4534                   22018625.1684
   8804139.35546   6877382.58243  23954390.0004                   23954389.3244
  -8091042.09847  -6292486.85746  20367691.3134                   20367689.6294
  22177385.719 5                  24710737.156
 -14878940.80547 -11589874.31846  21034558.1724                   21034554.6094
  11348839.82446   8867316.80643  23818118.8524                   23818118.2504
   6592889.00047   5146050.20045  21639978.6724                   21639976.3594
   -597452.21547   -436213.78544  23148820.9534                   23148820.7544
 -15132993.34447 -11789675.46045  21397680.4614                   21397678.7154
   1045528.31346    818096.31543  24428116.1804                   24428118.0084
  11950534.34846   9343817.75343  23863248.5704                   23863251.0394
 11  8  1 18  6  0.0000000  0 11G03G06G13G16G19G28G23G08G07G10G11
   1367924.34447   1078469.21144  22014537.5474                   22014536.4344
   8793250.79346   6868897.95143  23952318.1174                   23952317.5784
  -8151827.05147  -6339851.77146  20356123.9384                   20356122.8954
  22163716.590 6                  24708136.555
 -14967708.99247 -11659044.31646  21017666.2894                   21017662.9734
  11188374.27046   8742278.84743  23787582.4064                   23787583.3054
   6581914.70347   5137498.72045  21637890.2734                   21637887.9384
   -771291.07847   -571672.57444  23115740.3284                   23115740.0434
 -15284767.31247 -11907940.87446  21368798.9774                   21368796.8794
    989494.27346    774433.31443  24417453.7734                   24417454.7424
  11769449.37946   9202712.75743  23828789.5554                   23828791.6294
 11  8  1 18  6 30.0000000  0 11G03G06G13G16G19G28G23G08G07G10G11
   1346815.00847   1062020.34744  22010520.6174                   22010519.9924
   8782582.09446   6860584.60143  23950288.3444                   23950287.6134
  -8212081.84847  -6386803.58446  20344658.1954                   20344656.4574
  22149919.840 6                  24705510.898
 -15055903.03547 -11727766.92346  21000883.5234                   21000880.3324
  11028082.44946   8617376.27343  23757079.7664                   23757080.4574
   6571265.38347   5129200.45145  21635863.9384                   21635861.2234
   -945204.38347   -707189.37944  23082645.3984                   23082644.7734
 -15436460.52347 -12026143.36346  21339932.5634                   21339930.7664
    933697.59846    730955.31543  24406836.4304                   24406838.2304
  11588345.58746   9061593.06943  23794326.5554                   23794328.5704
 11  8  1 18  7  0.0000000  0 11G03G06G13G16G19G28G23G08G07G10G11
   1326081.03147   1045863.94744  22006574.5394                   22006574.1054
   8772131.44946   6852441.23343  23948298.6484                   23948298.6764
  -8271807.01647  -6433342.69546  20333292.6484                   20333291.2624
  22135995.05146  17244437.21552  24702861.4224                   24702862.4964
 -15143522.60547 -11796041.90846  20984209.6484                   20984206.8634
  10867964.97746   8492609.55643  23726609.7734                   23726611.0784
   6560939.06347   5121153.89545  21633899.2894                   21633896.9144
  -1119190.41847   -842762.85444  23049536.8054                   23049536.7774
 -15588070.50447 -12144280.98746  21311082.2814                   21311080.3914
    878136.66846    687660.97743  24396263.0394                   24396265.1954
  11407226.40246   8920461.36943  23759860.6724                   23759862.7384
 11  8  1 18  7 30.0000000  0 11G03G06G13G16G19G28G23G08G07G10G11
   1305730.86347   1030006.65644  22002702.2034                   22002701.6254
   8761907.07446   6844474.17743  23946352.5234                   23946353.5234
  -8330992.53147  -6479461.30946  20322030.0634                   20322028.2424
  22121952.17646  17233494.59743  24700189.1884                   24700188.3324
 -15230557.31247 -11863861.15646  20967647.8054                   20967644.0864
  10708032.53546   8367987.03743  23696176.0474                   23696176.6564
   6550943.95747   5113365.40545  21631997.0004                   21631994.7074
  -1293237.24247   -978383.70844  23016416.9224                   23016416.6994
 -15739585.59447 -12262344.69546  21282249.7664                   21282247.7934
    822819.53146    644556.68243  24385736.7344                   24385738.1884
  11226105.84046   8779328.63643  23725394.4454                   23725395.6954
 11  8  1 18  8  0.0000000  0 11G03G06G13G16G19G28G23G08G07G10G11
   1285756.40247   1014442.11944  21998901.2504                   21998900.9574
   8751901.89846   6836677.90243  23944448.7734                   23944449.6374
  -8389644.19547  -6525163.92946  20310869.2424                   20310867.3834
  22107785.72746  17222455.82443  24697493.7424                   24697493.4964
 -15317012.53547 -11931228.85046  20951195.9774                   20951192.5204
  10548280.29346   8243504.82443  23665776.0554                   23665776.2734
   6541272.96947   5105829.47845  21630157.1954                   21630154.5634
  -1467349.01647  -1114055.19444  22983284.5474                   22983283.7424
 -15891008.57848 -12380336.60146  21253434.7814                   21253433.3014
    767739.10946    601636.69043  24375254.8134                   24375256.8524
  11044982.02046   8638193.32043  23690927.8834                   23690929.0824
 11  8  1 18  8 30.0000000  0 11G03G06G13G16G19G28G23G08G07G10G11
   1266163.94947    999175.24044  21995173.0164                   21995173.0744
   8742121.92646   6829057.14643  23942589.2584                   23942588.6374
  -8447754.35248  -6570444.60146  20299810.7274                   20299809.6024
  22093503.48846  17211326.74343  24694775.6174                   24694775.5434
 -15402880.21947 -11998138.73146  20934855.6644                   20934852.5204
  10388716.62146   8119169.58843  23635412.2274                   23635412.6254
   6531931.94547   5098550.67545  21628379.5004                   21628376.9384
  -1641516.66447  -1249770.22344  22950141.2504                   22950140.7154
 -16042329.70748 -12498249.15646  21224639.9384                   21224637.7504
    712900.95746    558905.57343  24364819.2894                   24364822.5744
  10863866.62547   8497064.61243  23656462.2274                   23656463.8754
 11  8  1 18  9  0.0000000  0 11G03G06G13G16G19G28G23G08G07G10G11
   1246943.74647    984198.42644  21991515.3364                   21991514.5944
   8732557.55146   6821604.26743  23940768.1414                   23940768.6294
  -8505331.59048  -6615310.00246  20288854.4614                   20288852.9844
  22079097.94946  17200101.68343  24692033.6884                   24692033.9804
 -15488167.82847 -12064596.61146  20918626.0004                   20918622.3794
  10229334.03146   7994975.51243  23605082.4064                   23605083.5824
   6522911.29347   5091521.50345  21626662.6954                   21626660.4614
  -1815745.79747  -1385533.10944  22916987.0004                   22916986.2304
 -16193554.19147 -12616086.39546  21195862.2734                   21195860.5044
    658295.71546    516355.98643  24354428.9384                   24354431.8134
  10682755.68846   8355939.40843  23621998.0394                   23621999.7774
 11  8  1 18  9 30.0000000  0 11G03G06G13G16G19G28G23G08G07G10G11
   1228107.36347    969520.67744  21987931.1724                   21987930.5354
   8723220.92246   6814328.98143  23938991.9454                   23938991.6484
  -8562362.39548  -6659749.63246  20278001.6484                   20278000.5084
  22064582.53946  17188790.91943  24689272.4304                   24689271.5354
 -15572861.45747 -12130591.66346  20902509.3594                   20902506.0124
  10070146.71146   7870933.54843  23574789.6644                   23574791.1134
   6514222.93447   5084751.25945  21625009.4304                   21625007.5084
  -1990021.48447  -1521332.33644  22883822.7894                   22883822.2234
 -16344666.02048 -12733835.86346  21167106.6414                   21167104.8444
    603935.34046    473997.15642  24344084.5634                   24344086.4104
  10501666.05546   8214830.71343  23587538.2814                   23587538.8914
 11  8  1 18 10  0.0000000  0 11G03G06G13G16G19G28G23G08G07G10G11
   1209646.96147    955135.93244  21984418.2114                   21984417.7854
   8714104.43446   6807225.11143  23937257.0164                   23937256.9264
  -8618852.95748  -6703768.26446  20267252.1484                   20267250.6524
  22049951.37946  17177389.92643  24686487.8984                   24686487.4264
 -15656966.53947 -12196128.08846  20886504.4304                   20886501.4384
   9911150.12546   7747040.18943  23544533.7114                   23544534.9734
   6505859.35247   5078234.08545  21623418.4454                   21623416.0274
  -2164347.93747  -1657171.07944  22850649.6484                   22850649.2974
 -16495668.89847 -12851500.40446  21138371.5314                   21138370.0434
    549812.05946    431823.15243  24333785.5164                   24333787.1844
  10320595.83246   8073737.21043  23553080.9224                   23553081.3404
 11  8  1 18 10 30.0000000  0 11G03G06G13G16G19G28G23G08G07G10G11
   1191567.58647    941048.09344  21980978.0164                   21980976.9534
   8705213.00446   6800296.65243  23935564.7424                   23935565.6564
  -8674797.18748  -6747361.20546  20256606.1724                   20256604.8674
  22035211.68046  17165904.38943  24683683.1804                   24683682.1414
 -15740476.43747 -12261200.75546  20870613.3594                   20870610.0744
   9752351.29746   7623300.92943  23514315.4774                   23514315.7384
   6497825.31347   5071973.70945  21621889.7664                   21621887.2114
  -2338716.67646  -1793042.76744  22817468.8984                   22817468.3444
 -16646553.82848 -12969073.06446  21109659.2274                   21109657.3164
    495930.62146    389837.48442  24323532.4694                   24323532.5664
  10139555.68846   7932667.12643  23518629.8364                   23518630.6134
 11  8  1 18 11  0.0000000  0 11G03G06G13G16G19G28G23G08G07G10G11
   1173867.50847    927255.79244  21977609.8364                   21977608.6764
   8696545.00446   6793542.36843  23933915.1724                   23933916.4184
  -8730194.88348  -6790528.26846  20246064.2974                   20246062.7774
  22020362.93445  17154333.85942  24680856.3914                   24680856.7814
 -15823391.10247 -12325809.58446  20854835.2114                   20854831.8324
   9593750.53146   7499716.01943  23484135.0314                   23484135.7544
   6490119.16847   5065968.83245  21620423.2194                   21620420.9734
  -2513125.50047  -1928945.71944  22784279.3524                   22784279.0864
 -16797318.20748 -13086551.78346  21080969.7974                   21080968.0984
    442289.46546    348039.10243  24313324.6024                   24313326.6954
   9958549.10946   7791623.23643  23484185.8594                   23484186.0204
 11  8  1 18 11 30.0000000  0 11G03G06G13G16G19G28G23G08G07G10G11
   2731969.09847   2141360.91344  22274106.5704                   22274105.5084
  10263523.40646   8014564.43043  24232101.6954                   24232102.9844
  -7209620.83647  -5605665.39546  20535420.0394                   20535419.0044
  23580830.27345  18370282.35542  24977804.9774                   24977803.3834
 -14330283.14847 -11162348.84246  21138964.1564                   21138961.0864
  11010778.17246   8603893.54343  23753785.5944                   23753786.7114
   8058163.72347   6287821.65145  21918812.0084                   21918810.0944
  -1112142.51247   -837270.63444  23050878.0704                   23050877.7194
 -15372530.23047 -11976327.35746  21352098.3134                   21352096.4884
   1964312.62145   1534031.03543  24602956.3834                   24602959.2154
  11353010.35946   8878216.65743  23749542.7424                   23749543.4924
 11  8  1 18 12  0.0000000  0 11G03G06G13G16G19G28G23G08G07G10G11
   2715028.61347   2128160.50844  22270882.8754                   22270882.4024
  10255305.22346   8008160.63543  24230538.1884                   24230538.1294
  -7263919.55148  -5647976.12346  20525087.4694                   20525085.7974
  23565772.17245  18358548.69542  24974938.9694                   24974939.0204
 -14411998.63348 -11226023.25946  21123414.2894                   21123411.0514
  10852583.46946   8480625.00144  23723682.5554                   23723682.5004
   8051115.87147   6282329.71345  21917470.9064                   21917468.9964
  -1286618.52047   -973225.93744  23017676.1724                   23017675.2854
 -15523038.58648 -12093606.58146  21323457.0554                   21323455.3524
   1911154.11346   1492608.74242  24592840.2114                   24592842.5394
  11172090.79146   8737240.60843  23715114.1644                   23715114.7114
 11  8  1 18 12 30.0000000  0 11G03G06G13G16G19G28G23G08G07G10G11
   2698466.88347   2115255.23544  22267731.1484                   22267730.2344
  10247310.84446   8001931.19343  24229016.3524                   24229016.3244
  -7317667.88748  -5689857.96746  20514859.5394                   20514858.2304
  23550610.97345  18346734.73442  24972054.1024                   24972052.8914
 -14493112.77747 -11289229.07646  21107978.6024                   21107975.7774
  10694594.24246   8357516.63343  23693618.6484                   23693618.4184
   8044395.67647   6277093.10545  21916191.9304                   21916189.8484
  -1461124.39547  -1109204.48144  22984468.7734                   22984467.9534
 -15673414.16447 -12210782.33246  21294841.8594                   21294839.7074
   1858236.01246   1451373.74543  24582770.6334                   24582772.7894
  10991221.68046   8596303.86243  23680695.2504                   23680697.2464
 11  8  1 18 13  0.0000000  0 10G03G06G13G19G28G23G08G07G10G11
   2682280.76247   2102642.63544  22264651.5394                   22264650.3134
  10239537.39846   7995873.93443  24227537.8984                   24227538.0314
  -7370867.88748  -5731312.53846  20504735.7974                   20504733.9844
 -14573626.72747 -11351967.22546  21092657.3524                   21092654.2504
  10536809.58246   8234567.63743  23663592.6024                   23663592.8364
   8038000.30547   6272109.59545  21914975.3134                   21914973.2074
  -1635659.47747  -1245205.84944  22951256.0704                   22951255.2854
 -15823655.45347 -12327853.46846  21266251.7894                   21266249.6484
   1805555.16846   1410323.65642  24572746.4774                   24572748.3594
  10810405.69946   8455408.47643  23646287.3444                   23646288.4384
 11  8  1 18 13 30.0000000  0 10G03G06G13G19G28G23G08G07G10G11
   2666469.53547   2090322.15544  22261642.5004                   22261642.5514
  10231984.40646   7989988.50243  24226100.1954                   24226100.6454
  -7423518.76648  -5772339.23246  20494716.5314                   20494715.3484
 -14653539.28947 -11414236.73646  21077450.4454                   21077447.4344
  10379231.45746   8111779.61843  23633606.1954                   23633606.6054
   8031929.18847   6267378.78145  21913819.5634                   21913818.0634
  -1810220.57847  -1381227.41244  22918037.8364                   22918037.3834
 -15973758.81647 -12444817.10246  21237687.6334                   21237686.1604
   1753110.93846   1369457.88742  24562764.8674                   24562767.3134
  10629647.78946   8314558.34343  23611890.1484                   23611891.6054
 11  8  1 18 14  0.0000000  0 10G03G06G13G19G28G23G08G07G10G11
   2651053.84047   2078309.87944  22258708.5164                   22258708.1024
  10224672.86346   7984291.12243  24224708.7034                   24224708.3164
  -7475598.29748  -5812920.71046  20484806.1954                   20484805.0824
 -14732827.99647 -11476020.13046  21062362.3204                   21062359.0984
  10221883.02346   7989170.52443  23603663.7664                   23603664.4614
   8026202.85947   6262916.61545  21912730.1884                   21912728.2664
  -1984782.89547  -1517249.97144  22884820.0164                   22884819.0204
 -16123699.28947 -12561653.81446  21209155.0004                   21209153.5784
   1700924.02746   1328792.66042  24552835.0784                   24552836.8164
  10448974.42646   8173774.10243  23577509.7274                   23577510.6724
 11  8  1 18 14 30.0000000  0 10G03G06G13G19G28G23G08G07G10G11
   2636043.86347   2066613.75044  22255852.7814                   22255852.0634
  10217613.67246   7978790.43543  24223366.2734                   24223365.9734
  -7527094.49648  -5853047.64646  20475006.8204                   20475005.7424
 -14811480.17247 -11537307.52146  21047395.2344                   21047391.9884
  10064777.18846   7866750.47143  23573767.4534                   23573768.1054
   8020832.26247   6258731.63445  21911708.2894                   21911706.6294
  -2159332.92247  -1653262.96544  22851604.3444                   22851603.5394
 -16273462.25847 -12678352.22146  21180656.1804                   21180654.2344
   1649004.98046   1288336.19142  24542956.1334                   24542957.0554
  10268402.07846   8033068.60743  23543146.9454                   23543148.6764
 11  8  1 18 15  0.0000000  0 10G03G06G13G19G28G23G08G07G10G11
   2621430.49647   2055226.71544  22253072.0164                   22253071.1644
  10210797.63346   7973479.18043  24222068.6414                   24222068.2304
  -7578015.37948  -5892726.27146  20465317.1024                   20465315.7854
 -14889503.50047 -11598104.90746  21032548.3364                   21032545.1094
   9907907.02346   7744514.06243  23543915.7814                   23543915.7934
   8015808.04347   6254816.57045  21910752.3594                   21910750.3484
  -2333875.91047  -1789270.42844  22818389.2504                   22818389.3634
 -16423052.44148 -12794915.97346  21152189.9144                   21152188.2344
   1597344.79346   1248081.44142  24533125.3364                   24533126.5204
  10087926.76646   7892438.65043  23508803.8364                   23508804.6414
 11  8  1 18 15 30.0000000  0 10G03G06G13G19G28G23G08G07G10G11
   2607205.01647   2044141.90244  22250364.6804                   22250364.5084
  10204216.19946   7968350.77343  24220816.7424                   24220815.4264
  -7628368.73848  -5931962.68946  20455734.9064                   20455733.6954
 -14966904.99647 -11658417.74346  21017819.0084                   21017815.6724
   9751266.22746   7622456.43643  23514107.9774                   23514108.0944
   8011121.31647   6251164.47445  21909860.5084                   21909858.3444
  -2508416.89847  -1925276.35744  22785175.5004                   22785175.2464
 -16572474.67247 -12911348.86846  21123755.9694                   21123753.8954
   1545934.40245   1208021.33743  24523342.1414                   24523344.1454
   9907545.57046   7751882.07743  23474478.4144                   23474479.3524
 11  8  1 18 16  0.0000000  0 10G03G06G13G19G28G23G08G07G10G11
   2593358.50447   2033352.35844  22247729.9064                   22247729.6764
  10197860.89546   7963398.45643  24219606.9144                   24219606.7774
  -7678161.66048  -5970762.39146  20446259.7504                   20446258.6294
 -15043691.12947 -11718251.06546  21003207.0634                   21003203.8714
   9594848.57446   7500572.69444  23484342.6174                   23484343.5744
   8006763.75447   6247768.85945  21909031.2034                   21909029.4574
  -2682960.46147  -2061284.27944  22751960.8364                   22751960.4804
 -16721732.65647 -13027653.77946  21095353.5314                   21095351.3134
   1494765.43446   1168149.24643  24513604.7664                   24513607.5274
   9727255.68846   7611396.61943  23440169.5944                   23440171.6134
 11  8  1 18 16 30.0000000  0 10G03G06G13G19G28G23G08G07G10G11
   2579882.23047   2022851.37544  22245165.5164                   22245164.9344
  10191723.52746   7958615.99443  24218438.9144                   24218438.3794
  -7727401.53548  -6009131.15346  20436889.9774                   20436888.7234
 -15119868.69147 -11777610.18746  20988711.1094                   20988707.1914
   9438648.00847   7378858.05743  23454618.7974                   23454618.2154
   8002726.60547   6244622.93545  21908263.1334                   21908261.2504
  -2857511.60247  -2197298.13144  22718744.9304                   22718744.1524
 -16870830.78547 -13143834.13346  21066980.8834                   21066978.7704
   1443829.61346   1128458.89142  24503912.6564                   24503914.2774
   9547054.36346   7470980.12143  23405878.9924                   23405879.9924
 11  8  1 18 17  0.0000000  0 10G03G06G13G19G28G23G08G07G10G11
   2566763.20347   2012628.70144  22242669.6884                   22242668.6054
  10185791.54746   7953993.64542  24217310.2424                   24217310.2114
  -7776100.00848  -6047078.04346  20427623.0314                   20427621.8594
 -15195448.63747 -11836503.64846  20974328.0864                   20974325.2344
   9282654.25847   7257304.64244  23424934.2194                   23424934.5084
   7998997.32447   6241716.88944  21907554.0554                   21907551.9104
  -3032079.38747  -2333324.92244  22685525.6024                   22685524.9414
 -17019777.67247 -13259896.63146  21038636.8444                   21038635.2624
   1393113.75045   1088939.94942  24494260.2734                   24494264.7664
   9366934.34446   7330627.03043  23371603.0784                   23371603.9384
 11  8  1 18 17 30.0000000  0 10G03G06G13G19G28G23G08G07G10G11
   2554000.81647   2002683.95644  22240240.6484                   22240240.4694
  10180064.27046   7949530.79342  24216220.2814                   24216220.1914
  -7824256.37548  -6084602.51146  20418459.2424                   20418457.6644
 -15270430.34847 -11894930.93646  20960060.0314                   20960056.8404
   9126868.61746   7135913.32343  23395289.6804                   23395289.1564
   7995574.77347   6239049.84545  21906902.8524                   21906900.9654
  -3206660.80547  -2469362.38244  22652304.1954                   22652303.5554
 -17168569.63347 -13375838.40846  21010322.8444                   21010321.1214
   1342617.10246   1049591.74242  24484651.8594                   24484655.4264
   9186900.75446   7190341.28043  23337343.8834                   23337344.8444
 11  8  1 18 18  0.0000000  0 10G03G06G13G19G28G23G08G07G10G11
   2541590.82047   1993013.82344  22237878.8834                   22237878.5394
  10174537.77046   7945224.28743  24215169.2504                   24215169.2344
  -7871873.95748  -6121707.14046  20409397.6804                   20409396.5704
 -15344816.49247 -11952894.16346  20945904.6334                   20945901.3754
   8971289.14847   7014682.66743  23365683.4614                   23365683.5514
   7992454.99247   6236618.77045  21906309.2584                   21906307.4144
  -3381256.46947  -2605410.90144  22619079.4454                   22619078.5904
 -17317206.56247 -13491659.37246  20982037.8524                   20982036.1524
   1292335.48846   1010411.12542  24475084.0554                   24475087.5274
   9006955.12147   7050124.05143  23303101.2034                   23303102.3284
 11  8  1 18 18 30.0000000  0 10G03G06G13G19G28G23G08G07G10G11
   2529523.34846   1983610.59144  22235582.9614                   22235581.6564
  10169202.38346   7941066.93243  24214153.6954                   24214154.2034
  -7918961.40648  -6158398.68346  20400437.4384                   20400436.0234
 -15418615.12947 -12010399.59946  20931861.8134                   20931858.1884
   8815908.57847   6893607.00744  23336115.3834                   23336115.2194
   7989628.10547   6234415.87945  21905771.1644                   21905769.4144
  -3555872.25847  -2741475.11044  22585851.5004                   22585850.7114
 -17465694.02047 -13607363.87346  20953781.5864                   20953779.9064
   1242259.18846    971390.44343  24465554.5554                   24465558.1844
   8827093.10546   6909971.97843  23268874.4454                   23268875.5394
 11  8  1 18 19  0.0000000  0 10G03G06G13G19G28G23G08G07G10G11
   4093217.77046   3202073.75644  22533143.5634                   22533143.2114
  11739477.92246   9164658.21142  24512966.7194                   24512967.5234
  -6390096.67648  -4967075.54846  20691370.5864                   20691369.4224
 -13916402.66447 -10839844.45946  21217723.0084                   21217719.5204
  10236153.85547   8000291.77144  23606378.8054                   23606378.6294
   9562513.34847   7460040.63545  22205081.5164                   22205079.5124
  -2155079.23847  -1649948.05444  22852413.2424                   22852412.8714
 -16038603.18447 -12495345.02446  21225348.1484                   21225346.1644
   2767809.18846   2160130.68743  24755857.5784                   24755859.9574
  10222745.91447   7997493.80943  23534458.1484                   23534459.7734
 11  8  1 18 19 30.0000000  0 10G03G06G13G19G28G23G08G07G10G11
   4081834.86746   3193203.94244  22530977.8984                   22530977.5944
  11734526.09446   9160799.60743  24512025.1174                   24512025.0354
  -6436120.19548  -5002938.06046  20682612.8754                   20682611.0984
 -13989020.56647 -10896429.86345  21203904.4384                   21203900.6724
  10081178.56346   7879531.87843  23576887.9694                   23576887.7074
   9560272.44547   7458294.35145  22204654.8674                   22204653.4694
  -2329723.34047  -1786034.33544  22819179.5784                   22819178.6844
 -16186778.03948 -12610805.94646  21197151.1024                   21197149.4694
   2718143.93046   2121430.36843  24746407.3054                   24746409.5434
  10043069.21147   7857486.08043  23500267.5474                   23500267.5314
 11  8  1 18 20  0.0000000  0 10G03G06G13G19G28G23G08G07G10G11
   4070789.48046   3184597.12544  22528876.1094                   22528875.6684
  11729761.77046   9157087.10443  24511118.4534                   24511118.3444
  -6481614.53948  -5038388.22946  20673955.4774                   20673954.2274
 -14061050.44547 -10952557.04046  21190197.6024                   21190194.0984
   9926404.69147   7758928.98043  23547435.7504                   23547435.1684
   9558319.90647   7456772.79644  22204283.4384                   22204282.0594
  -2504380.19947  -1922130.54844  22785943.3674                   22785942.6294
 -16334794.53148 -12726143.46446  21168985.1174                   21168983.0434
   2668679.51246   2082886.56243  24736994.3984                   24736996.1024
   9863489.33246   7717553.89943  23466094.3364                   23466094.0984
 11  8  1 18 20 30.0000000  0 10G03G06G13G19G28G23G08G07G10G11
   4060073.14546   3176246.67144  22526836.4844                   22526836.4454
  11725176.39546   9153514.04743  24510246.0234                   24510246.4964
  -6526587.63748  -5073432.22946  20665397.2034                   20665396.0864
 -14132499.32047 -11008231.49846  21176601.2814                   21176597.5744
   9771825.83647   7638478.00944  23518019.3834                   23518020.2734
   9556646.99247   7455469.12045  22203965.2894                   22203963.2734
  -2679055.25447  -2058240.92544  22752703.9384                   22752703.0434
 -16482657.25848 -12841361.15946  21140847.2114                   21140845.6644
   2619407.28946   2044492.51643  24727618.1414                   24727619.7774
   9684002.90646   7577694.49643  23431938.8754                   23431938.9344
 11  8  1 18 21  0.0000000  0 10G03G06G13G19G28G23G08G07G10G11
   4049695.41046   3168160.13644  22524861.7974                   22524861.2304
  11720780.35246   9150088.52143  24509408.6334                   24509409.6174
  -6571028.20348  -5108061.26446  20656940.6884                   20656939.2234
 -14203355.55147 -11063444.14746  21163117.5944                   21163114.2424
   9617454.68447   7518188.87244  23488643.6954                   23488644.1604
   9555263.82847   7454391.19144  22203701.7344                   22203700.3324
  -2853733.83647  -2194354.07444  22719463.6884                   22719462.6334
 -16630351.26648 -12956447.38446  21112742.2194                   21112740.3164
   2570337.41446   2006256.14443  24718280.6094                   24718283.1454
   9504626.10546   7437920.55443  23397803.6804                   23397804.7814
 11  8  1 18 21 30.0000000  0 10G03G06G13G19G28G23G08G07G10G11
   4039652.50846   3160334.44544  22522950.1804                   22522949.8674
  11716570.10946   9146807.77543  24508608.2584                   24508608.4224
  -6614938.98048  -5142277.49246  20648584.6334                   20648583.6684
 -14273621.47347 -11118196.81846  21149746.4304                   21149743.1684
   9463289.75047   7398060.44444  23459307.6724                   23459306.9574
   9554166.72747   7453536.19344  22203493.8444                   22203491.8484
  -3028416.50847  -2330470.40244  22686222.7194                   22686221.7384
 -16777876.14848 -13071401.82046  21084669.0164                   21084667.0824
   2521466.06646   1968174.46343  24708979.8364                   24708983.7424
   9325360.98846   7298233.60543  23363691.0084                   23363690.9344
 11  8  1 18 22  0.0000000  0 10G03G06G13G19G28G23G08G07G10G11
   4029944.87546   3152770.02244  22521103.6254                   22521102.8874
  11712546.55446   9143672.47043  24507842.5634                   24507842.9384
  -6658318.28947  -5176079.56846  20640330.1174                   20640328.6134
 -14343295.09047 -11172487.93946  21136487.9694                   21136484.7154
   9309333.52347   7278094.65244  23430010.5634                   23430010.0514
   9553355.74247   7452904.15944  22203339.5634                   22203336.9844
  -3203099.00047  -2466586.59644  22652981.5234                   22652980.7664
 -16925227.04748 -13186220.67946  21056629.6174                   21056627.4344
   2472793.46146   1930247.68243  24699717.9304                   24699721.1684
   9146213.67246   7158638.42443  23329600.4924                   23329600.4924
 11  8  1 18 22 30.0000000  0 10G03G06G13G19G28G23G08G07G10G11
   4020569.96146   3145464.88943  22519319.1094                   22519318.8134
  11708707.21946   9140680.80343  24507112.0554                   24507112.7624
  -6701167.91048  -5209468.91046  20632176.2194                   20632174.7464
 -14412377.27747 -11226318.20946  21123342.0474                   21123339.0904
   9155586.21947   7158291.67444  23400753.4224                   23400753.0124
   9552828.86347   7452493.49544  22203239.7274                   22203237.1724
  -3377779.28947  -2602701.07245  22619741.5554                   22619740.3714
 -17072402.11748 -13300902.54846  21028623.0164                   21028621.1414
   2424317.55146   1892474.12143  24690494.3524                   24690496.6094
   8967187.62146   7019137.77943  23295532.1564                   23295532.5124
 11  8  1 18 23  0.0000000  0 10G03G06G13G19G28G23G08G07G10G11
   4011519.23046   3138412.35943  22517596.7814                   22517596.5314
  11705044.19546   9137826.48543  24506414.9144                   24506415.3444
  -6743495.27347  -5242451.30646  20624121.6334                   20624120.1954
 -14480875.12147 -11279693.14746  21110307.0864                   21110304.1214
   9002041.46547   7038646.50344  23371535.0164                   23371534.4344
   9552577.16047   7452297.23344  22203191.3204                   22203189.5554
  -3552461.99647  -2738817.43244  22586500.2584                   22586499.0434
 -17219405.17247 -13415450.37246  21000648.7114                   21000647.3204
   2376029.68146   1854847.12743  24681304.6174                   24681308.1994
   8788279.89846   6879729.30743  23261487.6484                   23261487.3244
 11  8  1 18 23 30.0000000  0 10G03G06G13G19G28G23G08G07G10G11
   4002796.91046   3131615.71644  22515936.9534                   22515936.9184
  11701562.05146   9135113.06943  24505751.9304                   24505752.9654
  -6785294.83247  -5275022.41146  20616167.1954                   20616165.8134
 -14548782.76647 -11332608.19246  21097384.7974                   21097381.6334
   8848706.22747   6919164.56943  23342355.6334                   23342355.3634
   9552605.20347   7452318.95444  22203196.8674                   22203194.8204
  -3727138.48447  -2874928.96544  22553260.0704                   22553259.1604
 -17366227.03547 -13529857.00846  20972709.6334                   20972707.9884
   2327934.84446   1817370.49143  24672152.9844                   24672156.1644
   8609501.09046   6740421.35743  23227466.2034                   23227466.9534
 11  8  1 18 24  0.0000000  0 10G03G06G13G19G28G23G08G07G10G11
   3994390.60946   3125065.29844  22514337.9304                   22514337.1844
  11698248.68446   9132531.20643  24505121.6954                   24505121.9654
  -6826578.18448  -5307191.28446  20608311.1334                   20608310.0904
 -14616111.06647 -11385071.79046  21084572.8444                   21084569.6134
   8695570.21147   6799837.87544  23313214.2664                   23313214.2304
   9552900.53547   7452548.97345  22203253.3524                   22203251.4104
  -3901817.90647  -3011042.75544  22520019.5704                   22520018.4454
 -17512875.87547 -13644128.82346  20944802.9694                   20944801.6054
   2280019.87946   1780034.06043  24663035.5864                   24663038.2544
   8430844.25046   6601208.38843  23193469.0234                   23193469.3754
 11  8  1 18 24 30.0000000  0 10G03G06G13G19G28G23G08G07G10G11
   3986296.33646   3118758.09044  22512798.2194                   22512797.3284
  11695100.50446   9130077.97342  24504522.3204                   24504523.5474
  -6867348.39147  -5338960.31846  20600552.9144                   20600551.6604
 -14682862.59447 -11437085.95046  21071870.5474                   21071867.1214
   8542631.77347   6680665.19744  23284111.3984                   23284111.2504
   9553459.05947   7452984.06445  22203359.7814                   22203358.1214
  -4076500.32447  -3147158.87244  22486778.0944                   22486777.7384
 -17659351.46947 -13758265.64146  20916929.7664                   20916928.0784
   2232280.98846   1742834.78343  24653950.8834                   24653954.0554
   8252311.62546   6462092.23843  23159496.1174                   23159495.8054
 11  8  1 18 25  0.0000000  0 10G03G06G13G19G28G23G08G07G10G11
   3978506.48846   3112688.01744  22511315.4534                   22511315.0704
  11692110.32445   9127747.94542  24503953.7114                   24503954.3594
  -6907612.27748  -5370334.80646  20592891.0704                   20592889.8204
 -14749043.65247 -11488655.59346  21059276.5164                   21059272.9734
   8389885.62947   6561642.29144  23255044.7584                   23255044.2934
   9554273.43047   7453618.51845  22203514.3134                   22203513.1764
  -4251188.26247  -3283279.32644  22453536.2274                   22453535.7544
 -17805656.77747 -13872269.76246  20889088.7584                   20889087.1844
   2184710.52346   1705766.80743  24644898.4614                   24644901.9224
   8073901.34846   6323071.39943  23125545.7504                   23125545.6294
 11  8  1 18 25 30.0000000  0 10G03G06G13G19G28G23G08G07G10G11
   3971011.33647   3106847.60844  22509888.5944                   22509888.6454
  11689268.71945   9125533.57042  24503410.9304                   24503413.2544
  -6947378.16847  -5401321.24146  20585324.0784                   20585322.6994
 -14814662.18047 -11539786.88946  21046789.8054                   21046786.6054
   8237324.51647   6442763.61143  23226013.3204                   23226013.1134
   9555334.00847   7454444.80644  22203716.3204                   22203715.4384
  -4425887.85247  -3419408.82044  22420292.4454                   22420291.3244
 -17951796.53547 -13986144.88846  20861279.5394                   20861277.8014
   2137299.34046   1668822.87443  24635876.8914                   24635879.4534
   7895609.41846   6184142.78443  23091617.6334                   23091617.3404
 11  8  1 18 26  0.0000000  0 10G03G06G13G19G28G23G08G07G10G11
   3963812.73446   3101238.25844  22508519.2114                   22508518.5004
  11686577.63345   9123436.58242  24502900.9304                   24502901.8324
  -6986643.33647  -5431917.50546  20577851.7344                   20577850.5864
 -14879715.23447 -11590477.55446  21034410.8284                   21034407.1024
   8084952.46147   6324032.22944  23197017.7344                   23197017.7424
   9556642.29747   7455464.10644  22203965.4064                   22203963.8954
  -4600593.30947  -3555542.91445  22387046.8754                   22387046.1884
 -18097764.50847 -14099886.14646  20833502.7034                   20833500.9804
   2090048.91446   1632004.28943  24626885.6094                   24626889.1024
   7717443.80946   6045312.57743  23057713.2894                   23057713.8674
 11  8  1 18 26 30.0000000  0 10G03G06G13G19G28G23G08G07G10G11
   3956901.13346   3095852.61044  22507204.0474                   22507203.2894
  11684028.85545   9121450.44142  24502415.8914                   24502416.0354
  -7025416.06248  -5462130.05546  20570473.9304                   20570472.2234
 -14944210.41047 -11640733.53346  21022137.8054                   21022134.4414
   7932763.07047   6205443.19444  23168057.3834                   23168057.4774
   9558189.68847   7456669.75144  22204259.8204                   22204258.8364
  -4775309.40247  -3691685.29944  22353799.9224                   22353798.4344
 -18243565.23048 -14213497.08846  20805758.0864                   20805756.0904
   2042950.77746   1595304.34143  24617922.4694                   24617925.7464
   7539401.35947   5906578.38244  23023832.4614                   23023832.9804
 11  8  1 18 27  0.0000000  0 10G03G06G13G19G28G23G08G07G10G11
   5525694.47346   4318288.93044  22805735.2344                   22805735.3094
  13257040.20346  10347173.66442  24801749.7344                   24801749.5124
  -5488276.73048  -4264359.18046  20862981.4774                   20862980.3324
 -13432726.66047 -10462953.97646  21309763.1564                   21309759.8984
   9356181.19547   7314600.25944  23438923.9224                   23438924.3444
  11135393.52047   8685659.59944  22504392.0164                   22504390.7584
  -3374609.07847  -2600230.45444  22620343.7424                   22620342.8874
 -16813771.81647 -13099372.33346  21077838.3834                   21077836.4384
   3571424.01246   2786322.26643  24908781.8444                   24908784.7114
   8936911.42647   6995547.38744  23289770.2194                   23289770.0704
 11  8  1 18 27 30.0000000  0 10G03G06G13G19G28G23G08G07G10G11
   5519345.80546   4313341.85944  22804527.0864                   22804527.3714
  13254765.12546  10345400.82042  24801317.1484                   24801316.0084
  -5526073.66448  -4293811.37646  20855789.6484                   20855788.3914
 -13496113.69547 -10512346.47045  21297701.4844                   21297697.8754
   9204352.12547   7196291.99144  23410032.5864                   23410031.6254
  11137406.92647   8687228.37844  22504775.2814                   22504774.1294
  -3549346.71147  -2736389.61944  22587092.3674                   22587091.5554
 -16959236.10247 -13212721.13246  21050157.5314                   21050155.7304
   3524618.39146   2749850.22443  24899874.9224                   24899877.7544
   8759121.16047   6857009.65044  23255937.7664                   23255938.0984
 11  8  1 18 28  0.0000000  0 10G03G06G13G19G28G23G08G07G10G11
   5513274.55546   4308611.02444  22803371.6954                   22803371.7344
  13252623.72746  10343732.06143  24800910.2894                   24800909.9064
  -5563385.07048  -4322885.22646  20848688.7424                   20848688.0594
 -13558948.58647 -10561308.71546  21285744.1484                   21285740.8444
   9052703.07047   7078123.98144  23381174.4384                   23381174.4414
  11139649.66447   8688975.81844  22505201.9614                   22505201.0004
  -3724092.23047  -2872554.91944  22553839.5944                   22553838.4884
 -17104528.88347 -13325936.28046  21022509.3594                   21022507.0234
   3477955.38346   2713489.37043  24890995.6724                   24890998.7814
   8581462.05947   6718574.12544  23222130.2424                   23222130.5234
 11  8  1 18 28 30.0000000  0 10G03G06G13G19G28G23G08G07G10G11
   5507479.51646   4304095.35544  22802269.6094                   22802268.9454
  13250614.66446  10342166.58043  24800528.0234                   24800527.7274
  -5600211.94548  -4351581.53046  20841681.0944                   20841680.0084
 -13621231.55147 -10609840.89646  21273892.2344                   21273888.7584
   8901234.57047   6960096.69944  23352350.9224                   23352350.0704
  11142119.87147   8690900.51244  22505672.6484                   22505670.7934
  -3898842.97347  -3008724.30345  22520585.4304                   22520584.7734
 -17249647.63348 -13439015.81646  20994893.8594                   20994891.8524
   3431433.20746   2677238.26743  24882142.4064                   24882145.9454
   8403938.43047   6580244.14144  23188348.3594                   23188348.6134
 11  8  1 18 29  0.0000000  0 10G03G06G13G19G28G23G08G07G10G11
   5501956.00446   4299791.26843  22801217.9144                   22801217.8364
  13248734.09846  10340701.16143  24800169.8364                   24800170.4534
  -5636557.89148  -4379903.08746  20834764.7504                   20834763.4964
 -13682966.12547 -10657945.76346  21262144.8444                   21262141.1054
   8749944.53547   6842208.41044  23323560.9064                   23323560.2894
  11144813.35947   8692999.19944  22506185.1024                   22506183.4104
  -4073599.49647  -3144898.18944  22487330.6334                   22487329.1414
 -17394591.73047 -13551959.26146  20967311.7424                   20967310.1374
   3385047.44946   2641093.35143  24873316.4064                   24873318.8834
   8226551.89147   6442020.97144  23154592.7664                   23154593.2074
 11  8  1 18 29 30.0000000  0 10G03G06G13G19G28G23G08G07G10G11
   5496699.26646   4295695.07343  22800217.9384                   22800217.4774
  13246977.84046  10339332.57043  24799836.1174                   24799836.3834
  -5672426.15648  -4407852.41246  20827939.3594                   20827938.4264
 -13744154.73047 -10705625.18846  21250500.6954                   21250497.3164
   8598830.75446   6724457.55344  23294804.6954                   23294804.8364
  11147725.60947   8695268.32844  22506739.0634                   22506738.1454
  -4248362.28547  -3281076.96144  22454073.9304                   22454073.0554
 -17539361.08247 -13664766.53746  20939763.0084                   20939761.2544
   3338794.16446   2605051.71443  24864514.0004                   24864517.6884
   8049303.61747   6303905.55544  23120863.7274                   23120863.5944
 11  8  1 18 30  0.0000000  0 10G03G06G13G19G28G23G08G07G10G11
   5491703.55546   4291802.29443  22799267.0234                   22799266.9184
  13245340.18846  10338056.45843  24799524.5234                   24799524.4414
  -5707822.59448  -4435434.06946  20821203.7274                   20821202.4884
 -13804802.78947 -10752883.42546  21238959.5004                   21238956.1604
   8447889.41447   6606841.01044  23266082.0004                   23266081.5554
  11150850.35547   8697703.06244  22507334.2974                   22507333.3014
  -4423133.15647  -3417262.00144  22420816.0704                   22420815.3054
 -17683957.53947 -13777439.09746  20912247.4144                   20912245.5394
   3292666.81646   2569108.17943  24855736.4694                   24855740.4184
   7872193.51247   6165897.77344  23087160.3754                   23087160.8054
 11  8  1 18 30 30.0000000  0 10G03G06G13G19G28G23G08G07G10G11
   5486959.14146   4288105.30143  22798364.6334                   22798364.0314
  13243811.99246  10336865.58943  24799233.3754                   24799234.9414
  -5742755.93748  -4462654.88846  20814556.5704                   20814554.7934
 -13864918.55547 -10799726.87946  21227520.1804                   21227517.1804
   8297113.44547   6489353.36444  23237390.4534                   23237389.4104
  11154177.94947   8700295.85144  22507967.7034                   22507965.9304
  -4597917.72747  -3553457.75044  22387555.8834                   22387554.5704
 -17828385.66447 -13889980.46246  20884763.9454                   20884762.1564
   3246655.79345   2533255.27742  24846980.3754                   24846984.4534
   7695217.80947   6027994.72544  23053483.3284                   23053483.0704
 11  8  1 18 31  0.0000000  0 10G03G06G13G19G28G23G08G07G10G11
   5482467.21546   4284605.04043  22797509.8834                   22797509.5824
  13242395.19946  10335761.45943  24798963.5234                   24798964.5984
  -5777223.62148  -4489512.86346  20807997.1174                   20807996.1884
 -13924499.63747 -10846153.70646  21216182.4224                   21216178.7274
   8146506.25046   6371997.19644  23208730.1024                   23208730.0004
  11157710.01247   8703047.94344  22508639.4224                   22508638.4694
  -4772710.18047  -3689659.62144  22354293.8834                   22354293.1524
 -17972639.72347 -14002386.21446  20857313.2424                   20857311.2624
   3200762.72745   2497494.31642  24838247.7034                   24838251.7304
   7518384.03147   5890202.24344  23019833.0704                   23019832.6844
 11  8  1 18 31 30.0000000  0 10G03G06G13G19G28G23G08G07G10G11
   5478227.73446   4281301.53443  22796702.6484                   22796702.4774
  13241089.71945  10334744.28243  24798715.8754                   24798716.5634
  -5811225.73048  -4516008.04446  20801526.9384                   20801525.2074
 -13983545.05547 -10892163.12246  21204946.1254                   21204942.8324
   7996070.00847   6254774.20944  23180103.0234                   23180102.9774
  11161446.04347   8705959.00144  22509350.3284                   22509349.7274
  -4947506.33647  -3825864.39044  22321031.5634                   22321030.2854
 -18116715.07447 -14114652.72146  20829896.6644                   20829894.3204
   3154987.78145   2461825.36742  24829537.1884                   24829541.1254
   7341697.85946   5752524.80043  22986210.9454                   22986210.4264
 11  8  1 18 32  0.0000000  0 10G03G06G13G19G28G23G08G07G10G11
   5474225.69146   4278182.98943  22795941.1884                   22795941.4454
  13239881.42245  10333802.63742  24798484.5864                   24798485.8364
  -5844776.03548  -4542151.17146  20795142.2344                   20795141.2074
 -14042068.21147 -10937765.59246  21193809.6334                   21193806.2384
   7845792.40247   6137674.87644  23151506.5554                   23151506.1524
  11165371.66447   8709017.74844  22510097.8674                   22510096.8204
  -5122317.07847  -3962080.51545  22287765.7974                   22287765.1214
 -18260622.13347 -14226788.07646  20802511.6804                   20802510.2704
   3109315.72745   2426236.55142  24820846.4304                   24820850.3244
   7165150.50046   5614955.48643  22952614.3984                   22952614.2584
 11  8  1 18 32 30.0000000  0 10G03G06G13G19G28G23G08G07G10G11
   5470466.90646   4275254.07943  22795226.7664                   22795225.5004
  13238775.89545  10332941.05542  24798274.9454                   24798274.5354
  -5877868.75047  -4567937.73746  20788844.8834                   20788843.8794
 -14100063.14547 -10982956.45046  21182773.3284                   21182770.6334
   7695680.22747   6020704.43944  23122941.3364                   23122940.7774
  11169491.90247   8712228.18944  22510882.0474                   22510881.3524
  -5297132.65647  -4098300.40845  22254499.6094                   22254498.3674
 -18404350.73447 -14338784.36846  20775161.3594                   20775159.1684
   3063752.14545   2390732.44942  24812175.3204                   24812179.4104
   6988752.88346   5477502.92044  22919046.7734                   22919046.5274
 11  8  1 18 33  0.0000000  0  9G03G13G19G28G23G08G07G10G11
   5466942.76646   4272507.92843  22794555.4304                   22794555.3634
  -5910511.26647  -4593373.49946  20782633.2274                   20782632.0474
 -14157536.66447 -11027741.00346  21171836.4224                   21171833.2734
   7545728.20747   5903858.76144  23094406.2114                   23094405.5164
  11173798.08647   8715583.48644  22511701.4774                   22511700.3834
  -5471956.93747  -4234527.08344  22221231.4924                   22221230.1884
 -18547904.47348 -14450644.42246  20747843.8754                   20747842.0204
   3018288.90646   2355306.43442  24803525.5314                   24803527.0474
   6812502.85946   5340165.29544  22885507.3834                   22885507.9304
 11  8  1 18 33 30.0000000  0  9G03G13G19G28G23G08G07G10G11
   5463661.16046   4269950.80843  22793931.4304                   22793930.7734
  -5942694.68748  -4618451.52046  20776508.8914                   20776507.8874
 -14214479.34047 -11072111.90046  21161000.3134                   21160997.2464
   7395946.73447   5787146.02844  23065903.4924                   23065902.3444
  11178298.98447   8719090.54144  22512558.1334                   22512557.8244
  -5646777.68047  -4370751.01745  22187964.3204                   22187963.5004
 -18691270.51647 -14562358.20146  20720561.9774                   20720560.3244
   2972934.10546   2319964.93042  24794894.4304                   24794896.7194
   6636414.57847   5202953.76544  22851999.8204                   22851998.9614
 11  8  1 18 34  0.0000000  0  9G03G13G19G28G23G08G07G10G11
   5460633.02346   4267591.22643  22793354.8594                   22793354.5234
  -5974407.38747  -4643162.75046  20770474.5234                   20770473.0824
 -14270879.31247 -11116059.92946  21150267.7814                   21150264.9344
   7246348.82447   5670576.31744  23037435.8134                   23037435.0984
  11183005.21147   8722757.55544  22513453.6954                   22513452.6524
  -5821579.91847  -4506960.51645  22154700.1564                   22154699.2734
 -18834433.42247 -14673913.71046  20693319.0944                   20693317.2734
   2927698.93846   2284716.62942  24786286.3364                   24786289.2584
   6460504.75846   5065881.28143  22818524.2034                   22818524.4534
 11  8  1 18 34 30.0000000  0  8G03G13G19G28G23G08G07G11
   7033285.07047   5493034.37543  23092620.7734                   23092620.0274
  -4430221.42247  -3439901.00146  21064323.1484                   21064321.5514
 -12751307.20747  -9931977.75846  21439433.2274                   21439430.1334
   8672368.34047   6781760.42144  23308798.6024                   23308797.7704
  12763343.14147   9954189.53844  22814182.2194                   22814181.3794
  -4420927.11347  -3415542.71545  22421235.8204                   22421235.1374
 -17401957.16447 -13557698.43046  20965910.4614                   20965908.1454
   7860211.93446   6156562.28744  23084880.4384                   23084879.4804
 11  8  1 18 35  0.0000000  0  8G03G13G19G28G23G08G07G11
   7030778.80146   5491081.38543  23092143.4384                   23092143.1024
  -4460976.68047  -3463866.17046  21058471.0554                   21058469.3794
 -12806604.59447  -9975066.61645  21428910.3754                   21428907.1334
   8523158.89547   6665493.39644  23280404.7664                   23280403.7424
  12768474.60247   9958187.91044  22815158.7734                   22815158.0984
  -4595664.97747  -3551702.05345  22387984.0944                   22387983.7704
 -17544685.05548 -13668914.93946  20938749.9224                   20938747.9694
   7684691.68847   6019793.35844  23051479.1484                   23051479.0944
 11  8  1 18 35 30.0000000  0  8G03G13G19G28G23G08G07G11
   7028549.19146   5489343.94343  23091719.2974                   23091719.4694
  -4491236.58248  -3487445.34645  21052712.5634                   21052711.0354
 -12861333.51247 -10017712.50346  21418495.9224                   21418491.9614
   8374162.89547   6549392.68244  23252051.7814                   23252050.7664
  12773834.27747   9962364.10144  22816178.4774                   22816177.9844
  -4770348.10247  -3687818.75845  22354742.7274                   22354742.2074
 -17687172.98047 -13779944.48646  20911635.6644                   20911633.4804
   7509390.66046   5883195.25144  23018120.8054                   23018120.2344
 11  8  1 18 36  0.0000000  0  8G03G13G19G28G23G08G07G11
   7026591.65646   5487818.56543  23091347.4224                   23091347.3954
  -4521005.03148  -3510641.58245  21047048.1484                   21047046.2544
 -12915497.00847 -10059917.81546  21408188.4614                   21408185.3484
   8225377.94147   6433456.43144  23223738.6884                   23223738.0274
  12779417.59447   9966714.57344  22817241.7974                   22817240.9734
  -4944976.78947  -3823893.01545  22321512.2274                   22321511.7034
 -17829420.53147 -13890786.70546  20884566.9384                   20884564.8204
   7334310.48847   5746769.27544  22984803.6094                   22984803.6174
 11  8  1 18 36 30.0000000  0  8G03G13G19G28G23G08G07G11
   7024892.63346   5486494.53543  23091023.9694                   23091023.5474
  -4550295.21548  -3533465.14845  21041474.3134                   21041472.8444
 -12969108.19547 -10101692.75445  21397987.1564                   21397983.4654
   8076792.43847   6317675.57744  23195463.2114                   23195462.5044
  12785210.85947   9971228.62144  22818343.9064                   22818343.2194
  -5119560.61347  -3959932.33445  22288290.7194                   22288289.3164
 -17971436.77047 -14001448.70946  20857541.8524                   20857539.7894
   7159443.07846   5610509.05744  22951527.8594                   22951527.3674
 11  8  1 18 37  0.0000000  0  8G03G13G19G28G23G08G07G11
   7023447.48846   5485368.44143  23090748.6024                   23090748.6024
  -4579111.39847  -3555919.34945  21035990.4924                   21035989.4304
 -13022170.64547 -10143040.10046  21387888.8134                   21387885.9414
   7928403.90647   6202048.21544  23167226.1884                   23167225.8834
  12791209.57046   9975902.77044  22819485.8914                   22819485.0704
  -5294100.10547  -4095937.11545  22255076.8134                   22255075.7304
 -18113221.44947 -14111930.25846  20830561.1414                   20830559.4344
   6984789.92247   5474415.79844  22918292.3594                   22918291.6914
 11  8  1 18 37 30.0000000  0  8G03G13G19G28G23G08G07G11
   7022246.77746   5484432.75043  23090520.6094                   23090519.8674
  -4607462.27748  -3578010.98345  21030595.5554                   21030594.1564
 -13074692.93747 -10183966.54345  21377894.6954                   21377891.7934
   7780205.50447   6086569.04744  23139025.2344                   23139023.8954
  12797404.01246   9980729.42544  22820664.9844                   22820663.7664
  -5468599.96547  -4231911.01045  22221870.1724                   22221868.9384
 -18254779.73847 -14222235.40246  20803623.4064                   20803621.3244
   6810347.53547   5338486.76644  22885097.0314                   22885096.5664
 11  8  1 18 38  0.0000000  0  8G03G13G19G28G23G08G07G11
   7021285.18846   5483683.38643  23090337.4224                   23090337.5554
  -4635352.65247  -3599743.78645  21025288.3914                   21025287.2154
 -13126679.43447 -10224475.49346  21368002.0784                   21367999.0044
   7632193.97747   5971235.45944  23110859.0084                   23110858.2704
  12803788.95346   9985704.54744  22821879.5944                   22821879.0474
  -5643060.97747  -4367854.63645  22188672.0704                   22188670.7664
 -18396111.82448 -14332364.29046  20776728.9384                   20776727.1134
   6636116.61747   5202722.54144  22851941.8364                   22851941.5354
 11  8  1 18 38 30.0000000  0  8G03G13G19G28G23G08G07G11
   7020562.13346   5483119.96343  23090200.8364                   23090200.0514
  -4662782.65248  -3621117.86546  21020068.6884                   21020067.4384
 -13178129.95347 -10264566.81145  21358211.3594                   21358207.8014
   7484370.98447   5856048.79344  23082728.8594                   23082728.2664
  12810363.68046   9990827.49944  22823130.9454                   22823130.3134
  -5817479.68447  -4503765.28245  22155480.4774                   22155479.4494
 -18537214.05147 -14442314.07246  20749877.8914                   20749876.2854
   6462102.44547   5067127.15944  22818828.2034                   22818827.7734
 11  8  1 18 39  0.0000000  0  9G03G24G13G19G28G23G08G07G11
   7020061.75046   5482729.98243  23090104.6724                   23090104.6994
  29647879.84856  23113249.33253  24334886.6724                   24334891.6484
  -4689767.85947  -3642145.33945  21014933.6254                   21014932.5664
 -13229059.62547 -10304252.26846  21348519.8364                   21348516.7704
   7336722.55547   5740998.11944  23054632.9454                   23054631.8984
  12817112.34446   9996086.00343  22824415.3594                   22824414.5514
  -5991867.53147  -4639651.88345  22122295.1954                   22122294.8634
 -18678097.32047 -14552093.21946  20723068.6174                   20723066.8364
   6288294.85247   4931692.77944  22785753.1334                   22785753.0434
 11  8  1 18 39 30.0000000  0  9G03G24G13G19G28G23G08G07G11
   7019760.97346   5482495.54743  23090048.0634                   23090047.2704
  29471046.39546  22975457.43442  24301235.6724                   24301240.0004
  -4716330.51647  -3662843.56045  21009878.6884                   21009877.7194
 -13279490.30147 -10343548.90145  21338923.0004                   21338919.6604
   7189228.12947   5626067.49744  23026565.4064                   23026565.0124
  12824011.99647  10001462.16544  22825728.1724                   22825728.0204
  -6166242.98847  -4775528.83345  22089113.3134                   22089111.8484
 -18818779.68047 -14661715.81446  20696297.7344                   20696296.0984
   6114677.00047   4796406.21644  22752714.7894                   22752714.6254
 11  8  1 18 40  0.0000000  0  9G03G24G13G19G28G23G08G07G11
   7019646.43847   5482406.34043  23090025.8444                   23090025.0824
  29294106.39846  22837582.37942  24267564.6644                   24267568.4264
  -4742483.98447  -3683222.92045  21004902.1094                   21004901.0824
 -13329434.95747 -10382466.81045  21329418.7114                   21329415.4494
   7041876.24647   5511247.88844  22998525.2424                   22998524.0594
  12831048.90247  10006945.24644  22827067.5004                   22827067.3054
  -6340615.31647  -4911403.33645  22055930.6724                   22055929.9734
 -18959270.53147 -14771189.19146  20669563.5944                   20669561.3404
   5941241.11746   4661261.45744  22719710.7734                   22719710.8284
 11  8  1 18 40 30.0000000  0  9G03G24G13G19G28G23G08G07G11
   7019721.30147   5482464.65843  23090040.4224                   23090039.4454
  29117068.76245  22699631.44942  24233874.9924                   24233878.2624
  -4768224.55547  -3703280.55145  21000003.8524                   21000002.3164
 -13378889.35547 -10421002.71545  21320008.4534                   21320004.7854
   6894672.32847   5396543.62344  22970513.2034                   22970512.7194
  12838226.20346  10012537.77144  22828433.6564                   22828432.9844
  -6514976.76647  -5047269.35845  22022750.7504                   22022750.1174
 -19099561.56247 -14880506.85546  20642866.8674                   20642864.8094
   5767996.70747   4526265.90444  22686743.4304                   22686743.1294
 11  8  1 18 41  0.0000000  0  9G03G24G13G19G28G23G08G07G11
   7019986.77047   5482671.48843  23090091.1954                   23090090.1174
  28939940.33245  22561609.46942  24200168.5784                   24200171.8244
  -4793550.32447  -3723014.95345  20995184.3834                   20995183.8164
 -13427851.63747 -10459155.13846  21310690.6254                   21310687.8484
   6747619.94547   5281957.41744  22942530.1174                   22942528.7504
  12845545.12947  10018240.58644  22829826.3594                   22829826.2584
  -6689321.73847  -5183122.54745  21989574.2424                   21989573.3674
 -19239646.81247 -14989664.19346  20616209.4144                   20616207.4184
   5594950.38747   4391424.68644  22653813.5864                   22653813.1844
 11  8  1 18 41 30.0000000  0  9G03G24G13G19G28G23G08G07G11
   7020447.93847   5483030.79543  23090178.6024                   23090178.4344
  28762731.805 5                  24166445.484
  -4818456.12947  -3742422.11845  20990445.2664                   20990444.1914
 -13476315.94147 -10496919.52545  21301468.6724                   21301464.8914
   6600726.23047   5167494.87444  22914576.8834                   22914575.9344
  12853010.82846  10024057.84244  22831247.1254                   22831247.5514
  -6863640.64847  -5318955.43445  21956403.2034                   21956402.0594
 -19379516.85947 -15098653.81946  20589593.1024                   20589591.0394
   5422113.16446   4256746.42144  22620924.1094                   22620923.4344
 11  8  1 18 42  0.0000000  0  9G03G24G13G19G28G23G08G07G11
   7021100.36746   5483539.20043  23090303.0394                   23090302.3404
  28585444.016 5                  24132708.102
  -4842946.42647  -3761505.52345  20985785.0554                   20985783.6484
 -13524286.36747 -10534299.09645  21292339.9384                   21292336.3094
   6453988.49647   5053153.81844  22886653.8364                   22886652.3364
  12860618.37147  10029985.56144  22832695.2894                   22832695.3794
  -7037933.78947  -5454768.23745  21923235.5084                   21923234.6644
 -19519171.52347 -15207475.62546  20563017.6254                   20563015.7734
   5249486.53947   4122232.28944  22588074.0554                   22588073.3874
 11  8  1 18 42 30.0000000  0  9G03G24G13G19G28G23G08G07G11
   8597364.07046   6711796.53243  23390255.1024                   23390255.5434
  29983508.930 5                  24398751.070
  -3291599.55947  -2552663.85145  21280996.5784                   21280995.1644
 -11996340.03947  -9343691.56745  21583098.3984                   21583095.2274
   7882834.11747   6166540.08444  23158553.9454                   23158553.0904
  14443787.80146  11263623.87544  23133962.4534                   23133962.7074
  -5636770.96547  -4362953.01345  22189868.4064                   22189867.0824
 -18083181.09047 -14088522.02046  20836277.6024                   20836275.4884
   6652502.38347   5215491.48444  22855059.4534                   22855058.7734
